[[{"header":{"parameterUnit":"m.s-1","parameterCategory":1,"la1":30.6,"la2":29.2853,"lo1":-89.7004,"lo2":-87.6739,"dy":0.0162,"dx":0.0183,"nx":112,"ny":82,"refTime":"2023-03-24T12:00:00:Z","depth":0,"parameterNumber":2,"parameterNumberName":"U-component_of_WINDS"},"data":[0.0,0.0,0.0,0.0,0.0,0.0,0.0,0.0,0.0,0.0,0.0,0.0,0.0,0.0,0.0,0.0,0.0,0.0,0.0,0.0,0.0,0.0,0.0,0.0,0.0,0.0,0.0,0.0,0.0,0.0,0.0,0.0,0.0,0.0,0.0,0.0,0.0,0.0,0.0,0.0,0.0,0.0,0.0,0.0,0.0,0.0,0.0,0.0,0.0,0.0,0.0,0.0,0.0,0.0,0.0,0.0,0.0,0.0,0.0,0.0,0.0,0.0,0.0,0.0,0.0,0.0,0.0,0.0,0.0,0.0,0.0,0.0,0.0,0.0,0.0,0.0,0.0,0.0,0.0,0.0,0.0,0.0,0.0,0.0,0.0,0.0,0.0,0.0,0.0,0.0,5.8665,5.9588,6.0358,6.0781,6.0781,6.0781,6.0935,6.1304,0.0,0.0,0.0,0.0,0.0,0.0,0.0,0.0,0.0,0.0,0.0,0.0,0.0,0.0,0.0,0.0,0.0,0.0,0.0,0.0,0.0,0.0,0.0,0.0,0.0,0.0,0.0,0.0,0.0,0.0,0.0,0.0,0.0,0.0,0.0,0.0,0.0,0.0,0.0,0.0,0.0,0.0,0.0,0.0,0.0,0.0,0.0,0.0,0.0,0.0,0.0,0.0,0.0,0.0,0.0,0.0,0.0,0.0,0.0,0.0,0.0,0.0,0.0,0.0,0.0,0.0,0.0,0.0,0.0,0.0,0.0,0.0,0.0,0.0,0.0,0.0,0.0,0.0,0.0,0.0,0.0,0.0,0.0,0.0,0.0,0.0,0.0,0.0,0.0,0.0,0.0,0.0,0.0,0.0,0.0,0.0,0.0,0.0,0.0,0.0,0.0,0.0,0.0,0.0,5.8896,6.0435,6.0704,6.0781,6.0781,6.0781,6.0935,6.1304,0.0,0.0,0.0,0.0,0.0,0.0,0.0,0.0,0.0,0.0,0.0,0.0,0.0,0.0,0.0,0.0,0.0,0.0,0.0,0.0,0.0,0.0,0.0,0.0,0.0,0.0,0.0,0.0,0.0,0.0,0.0,0.0,0.0,0.0,0.0,0.0,0.0,0.0,0.0,0.0,0.0,0.0,0.0,0.0,0.0,0.0,0.0,0.0,0.0,0.0,0.0,0.0,0.0,0.0,0.0,0.0,0.0,0.0,0.0,0.0,0.0,0.0,0.0,0.0,0.0,0.0,0.0,0.0,0.0,0.0,0.0,0.0,0.0,0.0,0.0,0.0,0.0,0.0,0.0,0.0,0.0,0.0,0.0,0.0,0.0,0.0,0.0,0.0,0.0,0.0,0.0,0.0,0.0,0.0,0.0,0.0,0.0,0.0,0.0,0.0,0.0,0.0,0.0,5.9127,5.9935,6.0704,6.0781,6.0781,6.0781,6.0781,6.0935,6.1304,6.1314,0.0,0.0,0.0,0.0,0.0,0.0,0.0,0.0,0.0,0.0,0.0,0.0,0.0,0.0,0.0,0.0,0.0,0.0,0.0,0.0,0.0,0.0,0.0,0.0,0.0,0.0,0.0,0.0,0.0,0.0,0.0,0.0,0.0,0.0,0.0,0.0,0.0,0.0,0.0,0.0,0.0,0.0,0.0,0.0,0.0,0.0,0.0,0.0,0.0,0.0,0.0,0.0,0.0,0.0,0.0,0.0,0.0,0.0,0.0,0.0,0.0,0.0,0.0,0.0,0.0,0.0,0.0,0.0,0.0,0.0,0.0,0.0,0.0,0.0,0.0,0.0,0.0,0.0,0.0,0.0,0.0,0.0,0.0,0.0,0.0,0.0,0.0,0.0,0.0,0.0,0.0,0.0,0.0,0.0,0.0,0.0,0.0,0.0,0.0,0.0,0.0,0.0,6.0242,6.0781,6.0781,6.0781,6.0781,6.0781,6.0781,6.0935,6.1304,6.1314,0.0,0.0,0.0,0.0,0.0,0.0,0.0,0.0,0.0,0.0,0.0,0.0,0.0,0.0,0.0,0.0,0.0,0.0,0.0,0.0,0.0,0.0,0.0,0.0,0.0,0.0,0.0,0.0,0.0,0.0,0.0,0.0,0.0,0.0,0.0,0.0,0.0,0.0,0.0,0.0,0.0,0.0,0.0,0.0,0.0,0.0,0.0,0.0,0.0,0.0,0.0,0.0,0.0,0.0,0.0,0.0,0.0,0.0,0.0,0.0,0.0,0.0,0.0,0.0,0.0,0.0,0.0,0.0,0.0,0.0,0.0,0.0,0.0,0.0,0.0,0.0,0.0,0.0,0.0,0.0,0.0,0.0,0.0,0.0,0.0,0.0,0.0,0.0,0.0,0.0,0.0,0.0,0.0,0.0,0.0,0.0,0.0,0.0,0.0,0.0,0.0,0.0,6.0242,6.0781,6.0781,6.0781,6.0781,6.0781,6.0781,6.0935,6.1304,6.1314,0.0,0.0,0.0,0.0,0.0,0.0,0.0,0.0,0.0,0.0,0.0,0.0,0.0,0.0,0.0,0.0,0.0,0.0,0.0,0.0,0.0,0.0,0.0,0.0,0.0,0.0,0.0,0.0,0.0,0.0,0.0,0.0,0.0,0.0,0.0,0.0,0.0,0.0,0.0,0.0,0.0,0.0,0.0,0.0,0.0,0.0,0.0,0.0,0.0,0.0,0.0,0.0,0.0,0.0,0.0,0.0,0.0,0.0,0.0,0.0,0.0,0.0,0.0,0.0,0.0,0.0,0.0,0.0,0.0,0.0,0.0,0.0,0.0,0.0,0.0,0.0,0.0,0.0,0.0,0.0,0.0,0.0,0.0,0.0,0.0,0.0,0.0,0.0,0.0,0.0,0.0,0.0,0.0,0.0,0.0,0.0,0.0,0.0,0.0,0.0,0.0,0.0,6.0589,6.0781,6.0781,6.0781,6.0781,6.0781,6.0781,6.0935,6.1304,0.0,0.0,0.0,0.0,0.0,0.0,0.0,0.0,0.0,0.0,0.0,0.0,0.0,0.0,0.0,0.0,0.0,0.0,0.0,0.0,0.0,0.0,0.0,0.0,0.0,0.0,0.0,0.0,0.0,0.0,0.0,0.0,0.0,0.0,0.0,0.0,0.0,0.0,0.0,0.0,0.0,0.0,0.0,0.0,0.0,0.0,0.0,0.0,0.0,0.0,0.0,0.0,0.0,0.0,0.0,0.0,0.0,0.0,0.0,0.0,0.0,0.0,0.0,0.0,0.0,0.0,0.0,0.0,0.0,0.0,0.0,0.0,0.0,0.0,0.0,0.0,0.0,0.0,0.0,0.0,0.0,0.0,0.0,0.0,0.0,0.0,0.0,0.0,0.0,0.0,0.0,0.0,0.0,0.0,0.0,0.0,0.0,0.0,0.0,0.0,0.0,0.0,6.0704,6.0781,6.0781,6.0781,6.0781,6.0781,6.0781,6.0781,6.0896,6.1189,0.0,0.0,0.0,0.0,0.0,0.0,0.0,0.0,0.0,0.0,0.0,0.0,0.0,0.0,0.0,0.0,0.0,0.0,0.0,0.0,0.0,0.0,0.0,0.0,0.0,0.0,0.0,0.0,0.0,0.0,0.0,0.0,0.0,0.0,0.0,0.0,0.0,0.0,0.0,0.0,0.0,0.0,0.0,0.0,0.0,0.0,0.0,0.0,0.0,0.0,0.0,0.0,0.0,0.0,0.0,0.0,0.0,0.0,0.0,0.0,0.0,0.0,0.0,0.0,0.0,0.0,0.0,0.0,0.0,0.0,0.0,0.0,0.0,0.0,0.0,0.0,0.0,0.0,0.0,0.0,0.0,0.0,0.0,0.0,0.0,0.0,0.0,0.0,0.0,0.0,0.0,0.0,0.0,0.0,0.0,0.0,0.0,0.0,0.0,0.0,0.0,0.0,6.0781,6.0781,6.0781,6.0781,6.0781,6.0781,6.0781,6.0781,6.0858,0.0,0.0,0.0,0.0,0.0,0.0,0.0,0.0,0.0,0.0,0.0,0.0,0.0,0.0,0.0,0.0,0.0,0.0,0.0,0.0,0.0,0.0,0.0,0.0,0.0,0.0,0.0,0.0,0.0,0.0,0.0,0.0,0.0,0.0,0.0,0.0,0.0,0.0,0.0,0.0,0.0,0.0,0.0,0.0,0.0,0.0,0.0,0.0,0.0,0.0,0.0,0.0,0.0,0.0,0.0,0.0,0.0,0.0,0.0,0.0,0.0,0.0,0.0,0.0,0.0,0.0,0.0,0.0,0.0,0.0,0.0,0.0,0.0,0.0,0.0,0.0,0.0,0.0,0.0,0.0,0.0,0.0,0.0,0.0,0.0,0.0,0.0,0.0,0.0,0.0,0.0,0.0,0.0,0.0,0.0,0.0,0.0,0.0,0.0,0.0,0.0,0.0,0.0,6.0781,6.0781,6.0781,6.0781,6.0781,6.0781,6.0781,6.0781,6.0858,6.0973,0.0,0.0,0.0,0.0,0.0,0.0,0.0,0.0,0.0,0.0,0.0,0.0,0.0,0.0,0.0,0.0,0.0,0.0,0.0,0.0,0.0,0.0,0.0,0.0,0.0,0.0,0.0,0.0,0.0,0.0,0.0,0.0,0.0,0.0,0.0,0.0,0.0,0.0,0.0,0.0,0.0,0.0,0.0,0.0,0.0,0.0,0.0,0.0,0.0,0.0,0.0,0.0,0.0,0.0,0.0,0.0,0.0,0.0,0.0,0.0,0.0,0.0,0.0,0.0,0.0,0.0,0.0,0.0,0.0,0.0,0.0,0.0,0.0,0.0,0.0,0.0,0.0,0.0,0.0,0.0,0.0,0.0,0.0,0.0,0.0,0.0,0.0,0.0,0.0,0.0,0.0,0.0,0.0,0.0,0.0,0.0,0.0,0.0,0.0,0.0,0.0,0.0,6.0781,6.0781,6.0781,6.0781,6.0781,6.0781,6.0781,6.0781,6.0819,6.0896,0.0,0.0,0.0,0.0,0.0,0.0,0.0,0.0,0.0,0.0,0.0,0.0,0.0,0.0,0.0,0.0,0.0,0.0,0.0,0.0,0.0,0.0,0.0,0.0,0.0,0.0,0.0,0.0,0.0,0.0,0.0,0.0,0.0,0.0,0.0,0.0,0.0,0.0,0.0,0.0,0.0,0.0,0.0,0.0,0.0,0.0,0.0,0.0,0.0,0.0,0.0,0.0,0.0,0.0,0.0,0.0,0.0,0.0,0.0,0.0,0.0,0.0,0.0,0.0,0.0,0.0,0.0,0.0,0.0,0.0,0.0,0.0,0.0,0.0,0.0,0.0,0.0,0.0,0.0,0.0,0.0,0.0,0.0,0.0,0.0,0.0,0.0,0.0,0.0,0.0,0.0,0.0,0.0,0.0,0.0,0.0,0.0,0.0,0.0,0.0,0.0,0.0,6.0781,6.0781,6.0781,6.0781,6.0781,6.0781,6.0781,6.0781,6.0781,6.0781,0.0,0.0,0.0,0.0,0.0,0.0,0.0,0.0,0.0,0.0,0.0,0.0,0.0,0.0,0.0,0.0,0.0,0.0,0.0,0.0,0.0,0.0,0.0,0.0,0.0,0.0,0.0,0.0,0.0,0.0,0.0,0.0,0.0,0.0,0.0,0.0,0.0,0.0,0.0,0.0,0.0,0.0,0.0,0.0,0.0,0.0,0.0,0.0,0.0,0.0,0.0,0.0,0.0,0.0,0.0,0.0,0.0,0.0,0.0,0.0,5.5703,5.5703,0.0,0.0,0.0,0.0,0.0,0.0,0.0,0.0,0.0,0.0,0.0,0.0,0.0,0.0,0.0,0.0,0.0,0.0,0.0,0.0,0.0,0.0,0.0,0.0,0.0,0.0,0.0,0.0,0.0,0.0,0.0,0.0,0.0,0.0,0.0,0.0,0.0,0.0,0.0,0.0,6.0781,6.0781,6.0781,6.0781,6.0781,6.0781,6.0781,6.0781,6.0781,6.0781,6.0973,0.0,0.0,0.0,0.0,0.0,0.0,0.0,0.0,0.0,0.0,0.0,0.0,0.0,0.0,0.0,0.0,0.0,0.0,0.0,0.0,0.0,0.0,0.0,0.0,0.0,0.0,0.0,0.0,0.0,0.0,0.0,0.0,0.0,0.0,0.0,0.0,0.0,0.0,0.0,0.0,0.0,0.0,0.0,0.0,0.0,0.0,0.0,0.0,0.0,0.0,0.0,0.0,0.0,0.0,0.0,0.0,0.0,0.0,0.0,5.5703,5.5703,0.0,0.0,0.0,0.0,0.0,0.0,0.0,0.0,0.0,0.0,0.0,0.0,0.0,0.0,0.0,0.0,0.0,0.0,0.0,0.0,0.0,0.0,0.0,0.0,0.0,0.0,0.0,0.0,0.0,0.0,0.0,0.0,0.0,0.0,0.0,0.0,0.0,0.0,0.0,0.0,6.0781,6.0781,6.0781,6.0781,6.0781,6.0781,6.0781,6.0781,6.0781,6.0781,6.0935,0.0,0.0,0.0,0.0,0.0,0.0,0.0,0.0,0.0,0.0,0.0,0.0,0.0,0.0,0.0,0.0,0.0,0.0,0.0,0.0,0.0,0.0,0.0,0.0,0.0,0.0,0.0,0.0,0.0,0.0,0.0,0.0,0.0,0.0,0.0,0.0,0.0,0.0,0.0,0.0,0.0,0.0,0.0,0.0,0.0,0.0,0.0,0.0,0.0,0.0,0.0,0.0,0.0,5.5399,5.5554,5.5508,5.5621,5.5643,5.5599,5.5682,5.5703,5.5703,5.5703,0.0,0.0,0.0,0.0,0.0,0.0,0.0,0.0,0.0,0.0,0.0,0.0,0.0,0.0,0.0,0.0,0.0,0.0,0.0,0.0,0.0,0.0,0.0,0.0,5.9935,6.0012,6.0104,0.0,0.0,0.0,0.0,0.0,0.0,0.0,0.0,0.0,0.0,0.0,6.0781,6.0781,6.0781,6.0781,6.0781,6.0781,6.0781,6.0781,6.0819,6.0819,6.0896,6.0973,0.0,0.0,0.0,0.0,0.0,0.0,0.0,0.0,0.0,0.0,0.0,0.0,0.0,0.0,0.0,0.0,0.0,0.0,0.0,0.0,0.0,0.0,0.0,0.0,0.0,0.0,0.0,0.0,0.0,0.0,0.0,0.0,5.3314,5.3359,0.0,0.0,0.0,0.0,0.0,0.0,0.0,0.0,0.0,0.0,0.0,0.0,0.0,5.3565,5.4237,5.4011,5.4118,5.4579,5.4998,5.5026,5.4671,5.5399,5.5531,5.5186,5.5554,0.0,5.5703,5.5703,0.0,0.0,0.0,0.0,0.0,0.0,0.0,0.0,0.0,0.0,0.0,0.0,0.0,0.0,0.0,0.0,0.0,0.0,0.0,0.0,0.0,0.0,5.9242,5.9511,6.0127,6.065,0.0,6.0894,6.1109,6.107,6.1042,0.0,0.0,0.0,0.0,0.0,0.0,0.0,6.0781,6.0781,6.0781,6.0781,6.0781,6.0781,6.0781,6.0781,6.0858,6.0973,6.0858,6.0935,6.1266,6.1304,0.0,0.0,0.0,0.0,0.0,0.0,0.0,0.0,0.0,0.0,0.0,0.0,0.0,0.0,0.0,0.0,0.0,0.0,0.0,0.0,0.0,0.0,0.0,0.0,0.0,0.0,0.0,0.0,0.0,5.3682,5.3444,5.323,5.34,5.3444,0.0,0.0,0.0,0.0,0.0,0.0,0.0,0.0,0.0,5.3444,5.3314,5.3359,5.3758,5.3796,5.3905,5.4118,5.479,5.5026,5.4848,5.5423,5.5599,5.5446,5.5621,5.5703,5.5703,5.5703,5.5703,5.5703,0.0,0.0,0.0,0.0,5.5703,5.5703,5.5703,5.5703,5.5703,5.5703,0.0,0.0,0.0,0.0,0.0,0.0,0.0,0.0,0.0,0.0,5.9627,6.0127,6.0512,6.0781,6.0781,6.0896,6.0973,0.0,6.0896,6.0858,6.0819,0.0,0.0,0.0,0.0,6.0781,6.0781,6.0781,6.0781,6.0781,6.0781,6.0781,6.0781,6.0781,6.0858,6.0973,6.0858,6.0896,6.1112,6.1228,6.131,0.0,0.0,0.0,0.0,0.0,0.0,0.0,0.0,0.0,0.0,0.0,0.0,0.0,0.0,0.0,0.0,0.0,0.0,0.0,0.0,0.0,0.0,0.0,0.0,0.0,0.0,0.0,0.0,5.3682,5.3563,5.323,5.3484,5.3526,0.0,0.0,0.0,0.0,0.0,0.0,5.3225,5.3225,5.3225,5.3225,5.3225,5.3225,5.3225,5.3524,5.3682,5.3682,5.4414,5.479,5.479,5.5287,5.5554,5.5554,5.5682,5.5703,5.5703,5.5703,5.5703,5.5703,5.5703,5.5703,5.5703,5.5703,5.5703,5.5703,5.5703,5.5703,5.5703,5.5703,5.5857,5.6049,5.628,0.0,0.0,0.0,0.0,5.8819,5.9627,5.9819,6.0012,6.0666,6.0781,6.0781,6.0781,6.0781,6.0781,0.0,6.0781,6.0781,6.0781,0.0,0.0,0.0,6.0781,6.0781,6.0781,6.0781,6.0781,6.0781,6.0781,6.0781,6.0781,6.0781,6.0858,6.0973,6.0896,6.0896,6.0973,6.1228,6.1331,6.1316,0.0,0.0,0.0,0.0,0.0,0.0,0.0,0.0,0.0,0.0,0.0,0.0,0.0,0.0,0.0,0.0,0.0,0.0,0.0,0.0,0.0,0.0,0.0,0.0,0.0,0.0,0.0,0.0,0.0,5.3225,5.3225,0.0,0.0,0.0,0.0,5.3225,5.3225,5.3225,5.3225,5.3225,5.3225,5.3225,5.3225,5.3225,5.3225,5.3188,5.323,5.323,5.3644,5.3869,5.3905,5.4722,5.5134,5.516,5.5554,5.5703,5.5703,5.5703,5.5703,5.5703,5.5703,5.5703,5.5703,5.5703,5.5703,5.5703,5.5703,5.5703,5.5703,5.5703,5.6242,5.7088,5.7934,5.8204,0.0,0.0,5.9435,5.9627,6.0512,6.0742,6.0742,6.0781,6.0781,6.0781,6.0781,6.0781,6.0781,0.0,6.0781,6.0781,6.0781,0.0,6.0781,6.0781,6.0781,6.0781,6.0781,6.0781,6.0781,6.0781,6.0781,6.0781,6.0781,6.0781,6.0858,6.0973,6.0973,6.0973,6.0973,6.1343,6.1447,6.1316,6.1573,0.0,0.0,0.0,0.0,0.0,0.0,0.0,0.0,0.0,0.0,0.0,0.0,0.0,0.0,0.0,0.0,0.0,0.0,0.0,0.0,0.0,0.0,0.0,0.0,0.0,0.0,0.0,0.0,5.3225,5.3225,0.0,5.3225,5.3225,5.3225,5.3225,5.3225,5.3225,5.3225,5.3225,5.3225,5.3225,5.3225,5.3225,5.3225,5.3225,5.3225,5.3188,5.3604,5.3795,5.3795,5.4452,5.4848,5.5107,5.5237,5.5446,5.5703,5.5703,5.5703,5.5703,5.5703,5.5703,5.5703,5.5703,5.5703,5.5703,5.5703,5.6049,5.6626,5.7203,5.7588,5.7973,5.8819,5.9088,5.9242,6.0089,6.0319,6.0396,6.0704,6.0781,6.0781,6.0781,6.0781,6.0781,6.0781,6.0781,6.0781,6.0781,6.0781,6.0781,6.0781,6.0781,6.0781,6.0781,6.0781,6.0781,6.0781,6.0781,6.1012,6.1589,6.1627,6.1858,6.2358,6.2397,6.2474,6.2651,6.2651,6.2459,6.1988,6.219,6.2034,6.1447,6.1609,6.1719,0.0,0.0,0.0,0.0,0.0,0.0,0.0,0.0,0.0,0.0,0.0,0.0,0.0,0.0,0.0,0.0,0.0,0.0,0.0,0.0,0.0,0.0,0.0,0.0,0.0,5.3359,5.3225,5.3225,5.3225,5.3225,5.3225,5.3225,5.3225,5.3225,5.3225,5.3225,5.3225,5.3225,5.3225,5.3225,5.3225,5.3225,5.3225,5.3225,5.3225,5.3225,5.3484,5.3644,5.3795,5.4118,5.4579,5.5107,5.5107,5.535,5.5703,5.5703,5.5857,5.6088,5.5818,5.5703,5.5742,5.6011,5.6126,5.6165,5.6472,5.6973,5.7588,5.8434,5.8704,5.8858,5.9704,5.9935,6.005,6.0627,6.0781,6.0781,6.0781,6.0781,6.0781,6.0781,6.0781,6.0781,6.0781,6.0781,6.0781,6.0781,6.0781,6.0781,6.0781,6.0781,6.0781,6.0781,6.0781,6.0781,6.0781,6.105,6.1435,6.205,6.232,6.2704,6.3243,6.332,6.3358,6.3498,6.3614,6.3421,6.2897,6.3137,6.2891,6.1982,6.1768,6.1719,6.1719,0.0,0.0,0.0,0.0,0.0,0.0,0.0,0.0,0.0,0.0,0.0,0.0,0.0,0.0,0.0,0.0,0.0,0.0,0.0,0.0,0.0,0.0,0.0,5.3225,5.3225,5.3225,5.3225,5.3225,5.3225,5.3225,5.3225,5.3225,5.3225,5.3225,5.3225,5.3225,5.3225,5.3225,5.3225,5.3225,5.3225,5.3225,5.3225,5.3225,5.3225,5.3225,5.3404,5.3758,5.3795,5.4251,5.5107,5.5107,5.5389,5.5742,5.578,5.628,5.6934,5.6088,5.5742,5.5857,5.6742,5.7049,5.7165,5.805,5.8357,5.8473,5.9281,5.955,5.9704,6.055,6.0781,6.0781,6.0781,6.0781,6.0781,6.0781,6.0781,6.0781,6.0781,6.0781,6.0781,6.0781,6.0781,6.0781,6.0781,6.0781,6.0781,6.0781,6.0781,6.0781,6.0781,6.0819,0.0,6.0819,6.1589,6.2127,6.2166,6.2897,6.3358,6.3397,6.3397,6.3397,6.3397,6.3705,6.3806,6.3661,6.4093,6.3846,6.286,6.2126,6.1758,6.1758,0.0,0.0,0.0,0.0,0.0,0.0,0.0,0.0,0.0,0.0,0.0,0.0,0.0,0.0,0.0,0.0,0.0,0.0,0.0,0.0,0.0,5.3225,5.3225,5.3225,5.3225,5.3225,5.3225,5.3225,5.3225,5.3225,5.3225,5.3225,5.3225,5.3225,5.3225,5.3225,5.3225,5.3225,5.3225,5.3225,5.3225,5.3225,5.3225,5.3225,5.3225,5.3225,5.3272,5.34,5.3644,5.4118,5.4708,5.5646,5.6269,5.6665,5.7319,5.7742,5.7857,5.6973,5.7011,5.7627,5.7857,5.7934,5.805,5.8896,5.9165,5.9319,6.0165,6.0435,6.0473,6.0742,6.0781,6.0781,6.0781,6.0781,6.0781,6.0781,6.0781,6.0781,6.0781,6.0781,6.0781,6.0781,6.0781,6.0781,6.0781,6.0781,6.0781,6.0781,6.0781,6.0781,6.0781,6.132,0.0,6.1743,6.2474,6.3205,6.3858,6.4128,6.4512,6.5128,6.5205,6.5205,6.5205,6.5359,6.5225,6.4698,6.488,6.4658,6.3917,6.3078,6.2656,0.0,0.0,0.0,0.0,0.0,0.0,0.0,0.0,0.0,0.0,0.0,0.0,0.0,0.0,0.0,0.0,0.0,0.0,0.0,0.0,0.0,0.0,5.3225,5.3225,5.3225,5.3225,5.3225,5.3225,5.3225,5.3225,5.3225,5.3225,5.3225,5.3225,5.3225,5.3225,5.3225,5.3225,5.3225,5.3225,5.3225,5.3225,5.3225,5.3225,5.3225,5.3225,5.3555,5.3702,5.3702,5.4293,5.4914,5.5541,5.6285,5.6981,5.7588,5.8088,5.8511,0.0,0.0,0.0,0.0,0.0,5.905,5.9396,5.9896,6.005,6.0127,6.0627,6.0781,6.0781,6.0781,6.0781,6.0781,6.0781,6.0781,6.0781,6.0781,6.0781,6.0781,6.0781,6.0781,6.0781,6.0781,6.0781,6.0781,6.0781,6.0781,0.0,6.0781,6.0781,6.0935,6.1281,6.1781,6.2204,6.2551,6.332,6.4051,6.4551,6.4936,6.5359,6.5859,6.5897,0.0,0.0,0.0,6.5973,6.5722,6.5537,0.0,0.0,0.0,6.3555,6.3555,0.0,0.0,0.0,6.1601,6.1172,0.0,0.0,0.0,0.0,0.0,0.0,0.0,0.0,0.0,0.0,0.0,0.0,0.0,0.0,0.0,0.0,5.3225,5.3225,5.3225,5.3225,5.3225,5.3225,5.3225,5.3225,5.3225,5.3225,5.3225,5.3225,5.3225,5.3225,5.3225,5.3225,0.0,0.0,0.0,5.3261,5.3335,5.3335,5.3408,5.3482,5.4179,5.4546,5.4546,5.5331,5.6134,5.6937,5.7045,5.7625,5.8434,5.855,5.9011,5.9588,5.8858,5.8588,5.8665,5.9396,6.0127,6.0781,6.0781,0.0,0.0,6.0781,6.0781,6.0781,6.0781,6.0781,6.0781,6.0781,6.0781,6.0781,6.0781,6.0781,6.0781,6.0781,6.0781,6.0781,6.0781,6.0781,6.0781,6.0781,6.0781,6.0819,6.0935,6.0935,6.1204,6.1973,6.2243,6.2627,6.3358,6.4205,6.4743,6.4743,0.0,0.0,6.5897,6.5897,6.5897,6.5897,6.6051,6.6281,6.6555,6.6054,6.5742,6.5742,6.4883,6.4453,6.4453,6.4336,6.4297,6.4258,6.2695,6.1992,0.0,0.0,0.0,0.0,0.0,0.0,0.0,0.0,0.0,0.0,0.0,0.0,0.0,0.0,0.0,5.3225,5.3225,5.3225,5.3225,5.3225,5.3225,5.3225,5.3225,5.3225,5.3225,5.3225,5.3225,5.3225,5.3225,5.3225,5.3225,5.3225,5.3225,5.3225,5.3225,5.3518,5.4179,5.4179,5.4473,5.5133,5.528,0.0,5.5397,5.5895,5.637,5.6937,5.797,5.8754,5.9319,6.0012,6.0396,6.0512,6.0358,6.0319,6.0319,6.0473,6.0666,6.0781,6.0781,6.0781,6.0781,6.0781,6.0781,6.0781,6.0781,6.0781,0.0,6.0781,6.0781,6.0781,6.0781,6.0781,6.0781,6.0781,6.0781,6.0781,6.0781,6.0781,6.0781,6.0781,6.0781,6.1012,6.1704,6.1858,6.1897,6.205,6.3243,6.4166,6.432,6.5128,6.5628,6.5628,6.5782,6.5897,6.5897,6.5897,6.5897,6.5897,6.6167,6.6358,6.6418,6.6582,6.664,6.664,6.5781,6.5351,6.5351,6.4648,6.4297,6.4297,6.3945,6.3789,0.0,0.0,0.0,0.0,0.0,0.0,0.0,0.0,0.0,0.0,0.0,5.3225,5.3225,0.0,5.3225,5.3225,5.3225,5.3225,5.3225,5.3555,5.3665,5.3261,5.3225,5.3225,5.3225,5.3225,5.3371,5.3775,5.3812,5.3995,5.4363,5.4399,5.4399,5.4399,5.4399,5.4583,5.4987,5.4987,5.5207,5.5574,5.6014,5.6198,5.6198,5.683,5.7364,5.7828,5.8732,5.9367,5.9843,6.0517,6.0781,6.0781,6.0781,6.0781,6.0781,6.0781,6.0781,6.0781,6.0781,6.0781,6.0781,6.0781,6.0781,6.0781,6.0781,6.0781,6.0781,6.0781,6.0781,6.0781,6.0781,6.0781,6.0781,6.0781,6.0781,6.0781,6.0781,6.0781,6.0781,6.0781,6.0781,6.1089,6.1935,6.2435,6.2858,6.3281,6.4051,6.4743,6.5205,6.5628,6.5897,6.5897,6.5897,6.5897,6.5897,6.5897,6.5897,6.5897,6.6128,6.6295,6.6413,6.6648,6.6797,6.6914,6.6484,6.625,6.625,6.582,6.5586,6.5586,6.5586,6.5117,0.0,0.0,0.0,0.0,0.0,0.0,0.0,5.3225,5.3225,5.3225,5.3225,5.3225,5.3225,5.3225,5.3261,5.3408,5.3445,5.3482,5.3665,5.4216,5.4399,5.3739,5.3665,5.3665,5.3665,5.3665,5.3959,5.4583,5.462,5.4913,5.5574,5.5574,5.5574,5.5574,5.5574,5.5684,5.5831,5.5831,5.5904,5.6051,5.6712,5.7042,5.7079,5.7703,5.8238,5.8716,5.9284,5.9823,6.0283,6.0647,6.0781,6.0781,6.0781,6.0781,6.0781,6.0781,6.0781,6.0781,6.0781,6.0781,6.0781,6.0781,6.0781,6.0781,6.0781,6.0781,6.0781,6.0781,6.0781,6.0781,6.0781,6.0781,6.0781,6.0781,6.0781,6.0781,6.0781,6.0781,6.0781,6.0781,6.0935,6.132,6.2166,6.3012,6.3782,6.4474,6.4743,6.5128,6.582,6.5897,6.5897,6.5897,6.5897,6.5897,6.5897,6.5897,6.5897,6.5897,6.6013,6.6174,6.6377,6.6517,6.668,6.6914,6.6914,6.6914,6.6914,6.6914,6.6914,6.6914,6.6914,6.6133,5.3225,5.3225,5.3225,5.3225,5.3225,5.3225,0.0,5.3225,5.3225,5.3225,5.3225,5.3225,5.3225,5.3225,5.3445,5.4142,5.4289,5.4509,5.5207,5.539,5.5427,5.5317,5.5317,5.5317,5.5317,5.5317,5.5354,5.5464,5.5464,5.55,5.5574,5.5574,5.5574,5.5574,5.5574,5.5941,5.6675,5.6675,5.7005,5.774,5.7813,5.7886,5.7886,5.796,5.8238,5.8716,5.9625,6.0311,6.0734,6.0781,6.0781,6.0781,6.0781,6.0781,6.0781,6.0781,6.0781,6.0781,6.0781,6.0781,6.0781,6.0781,6.0781,6.0781,6.0781,6.0781,6.0781,6.0781,6.0781,6.0781,6.0781,6.0781,6.0781,6.0781,6.0781,6.0781,6.0781,6.0781,6.0781,6.0781,6.1435,6.2204,6.3051,6.3897,6.4474,6.4589,6.5243,6.5782,6.5897,6.5897,6.5897,6.5897,6.5897,6.5897,6.5897,6.5897,6.5897,6.5897,6.6013,6.6178,6.6406,6.6525,6.668,6.6914,6.6914,6.6914,6.6914,6.6914,6.6914,6.6914,6.6914,6.6797,5.3225,5.3225,5.3225,5.3225,5.3225,5.3225,5.3225,5.3225,5.3225,5.3225,5.3225,5.3335,5.3812,5.3922,5.4179,5.495,5.5097,5.5207,5.5537,5.5978,5.6308,5.6308,5.6712,5.6638,5.5684,5.5574,5.5794,5.6271,5.6308,5.6492,5.6969,5.7005,5.7005,5.7005,5.7005,5.7152,5.7483,5.7483,5.7666,5.7997,5.7997,5.7997,5.7997,5.7997,5.8238,5.8716,5.9389,5.9946,6.0391,6.071,6.0781,6.0781,6.0781,6.0781,6.0781,6.0781,6.0781,6.0781,6.0781,6.0781,6.0781,6.0781,6.0781,6.0781,6.0781,6.0781,6.0781,6.0781,6.0781,6.0781,6.0781,6.0781,6.0781,6.0781,6.0781,6.0781,6.0781,6.0781,6.0935,6.1435,6.1858,6.2512,6.382,6.4359,6.4782,6.5282,6.5667,6.5897,6.5897,6.5897,6.5897,6.5897,6.5897,6.5897,6.5897,6.5897,6.5897,6.5897,6.5936,6.6051,6.623,6.6386,6.6561,6.6719,6.6836,6.6914,6.6914,6.6914,6.6914,6.6914,6.6914,6.6914,5.3225,5.3225,5.3225,5.3225,5.3225,5.3225,5.3225,5.3225,5.3261,5.3482,5.3555,5.3775,5.4583,5.473,5.4987,5.5794,5.5941,5.6014,5.6235,5.6748,5.7152,5.7152,5.7666,5.7519,5.6381,5.6235,5.6492,5.7079,5.7152,5.7409,5.796,5.7997,5.7997,5.7997,5.7997,5.7997,5.7997,5.7997,5.7997,5.7997,5.7997,5.7997,5.7997,5.7997,5.8238,5.8753,5.9176,5.9696,6.0132,6.0622,6.0781,6.0781,6.0781,6.0781,6.0781,6.0781,6.0781,6.0781,6.0781,6.0781,6.0781,6.0781,6.0781,6.0781,6.0781,6.0781,6.0781,6.0781,6.0781,6.0781,6.0781,6.0781,6.0781,6.0781,6.0781,6.0781,6.0781,6.0973,6.1358,6.1973,6.2474,6.3166,6.4397,6.4782,6.5166,6.582,6.5897,6.5897,6.5897,6.5897,6.5897,6.5897,6.5897,6.5897,6.5897,6.5897,6.5897,6.5897,6.5897,6.5936,6.609,6.6245,6.6407,6.6601,6.6758,6.6836,6.6914,6.6914,6.6914,6.6914,6.6914,6.6914,5.3225,5.3225,5.3225,5.3225,5.3225,5.3225,5.3225,5.3225,5.3445,5.4216,5.4363,5.462,5.5427,5.5537,5.5831,5.6638,5.6748,5.7042,5.7813,5.796,5.796,5.796,5.7997,5.796,5.7923,5.7923,5.7923,5.796,5.796,5.796,5.7997,5.7997,5.7997,5.7997,5.7997,5.7997,5.7997,5.7997,5.7997,5.7997,5.7997,5.7997,5.7997,5.7997,5.8238,5.8753,5.9176,5.9696,6.0132,6.0622,6.0781,6.0781,6.0781,6.0781,6.0781,6.0781,6.0781,6.0781,6.0781,6.0781,6.0781,6.0781,6.0781,6.0781,6.0781,6.0781,6.0781,6.0781,6.0781,6.0781,6.0781,6.0781,6.0781,6.0781,6.0781,6.0781,6.0781,6.1435,6.205,6.2089,6.3397,6.4551,6.4589,6.5282,6.5859,6.5897,6.5897,6.5897,6.5897,6.5897,6.5897,6.5897,6.5897,6.5897,6.5897,6.5897,6.5897,6.5897,6.5897,6.5936,6.609,6.6115,6.6256,6.6601,6.6601,6.6719,6.6914,6.6914,6.6914,6.6914,6.6914,6.6914,5.3225,5.3225,5.3225,5.3225,5.3225,5.3225,5.3225,5.3628,5.4069,5.4326,5.4803,5.5427,5.6235,5.6418,5.6675,5.7483,5.7593,5.7703,5.796,5.7997,5.7997,5.7997,5.7997,5.7997,5.7997,5.7997,5.7997,5.7997,5.7997,5.7997,5.7997,5.7997,5.7997,5.7997,5.7997,5.7997,5.7997,5.7997,5.7997,5.7997,5.7997,5.7997,5.7997,5.7997,5.8097,5.8282,5.8716,5.9176,5.9658,6.0132,6.0508,6.0781,6.0781,6.0781,6.0781,6.0781,6.0781,6.0781,6.0781,6.0781,6.0781,6.0781,6.0781,6.0781,6.0781,6.0781,6.0781,6.0781,6.0781,6.0781,6.0781,6.0781,6.0781,6.0781,6.0781,6.0973,6.155,6.1897,6.2435,6.3551,6.4205,6.4782,6.5359,6.5705,6.5897,6.5897,6.5897,6.5897,6.5897,6.5897,6.5897,6.5897,6.5897,6.5897,6.5897,6.5897,6.5897,6.5897,6.5897,6.5897,6.5974,6.6051,6.6229,6.6467,6.655,6.6719,6.6914,6.6914,6.6914,6.6914,6.6914,6.6914,5.3225,5.3225,5.3225,5.3225,5.3445,5.3628,5.3628,5.4252,5.4913,5.5207,5.5684,5.6271,5.7079,5.7226,5.7409,5.7923,5.7997,5.7997,5.7997,5.7997,5.7997,5.7997,5.7997,5.7997,5.7997,5.7997,5.7997,5.7997,5.7997,5.7997,5.7997,5.7997,5.7997,5.7997,5.7997,5.7997,5.7997,5.7997,5.7997,5.7997,5.7997,5.7997,5.7997,5.7997,5.7997,5.8042,5.8503,5.8874,5.9176,5.9855,6.0283,6.0572,6.0734,6.0781,6.0781,6.0781,6.0781,6.0781,6.0781,6.0781,6.0781,6.0781,6.0781,6.0781,6.0781,6.0781,6.0781,6.0781,6.0781,6.0781,6.0781,6.0781,6.0781,6.0781,6.105,6.1396,6.1973,6.2551,6.332,6.4397,6.4859,6.5243,6.5782,6.5897,6.5897,6.5897,6.5897,6.5897,6.5897,6.5897,6.5897,6.5897,6.5897,6.5897,6.5897,6.5897,6.5897,6.5897,6.5897,6.5897,6.5897,6.5974,6.6128,6.6423,6.6462,6.6664,6.6914,6.6914,6.6914,6.6914,6.6914,6.6914,5.3225,5.3225,5.3225,5.3261,5.3849,5.4399,5.4436,5.506,5.5868,5.6638,5.6822,5.7079,5.785,5.7997,5.7997,5.7997,5.7997,5.7997,5.7997,5.7997,5.7997,5.7997,5.7997,5.7997,5.7997,5.7997,5.7997,5.7997,5.7997,5.7997,5.7997,5.7997,5.7997,5.7997,5.7997,5.7997,5.7997,5.7997,5.7997,5.7997,5.7997,5.7997,5.7997,5.7997,5.7997,5.8042,5.8503,5.8673,5.8756,5.9658,6.0036,6.0103,6.0533,6.0757,6.0757,6.0757,6.0781,6.0781,6.0781,6.0781,6.0781,6.0781,6.0781,6.0781,6.0781,6.0781,6.0781,6.0781,6.0781,6.0781,6.0781,6.0819,6.0858,6.0858,6.1512,6.2166,6.2204,6.3474,6.4628,6.4666,6.532,6.5897,6.5897,6.5897,6.5897,6.5897,6.5897,6.5897,6.5897,6.5897,6.5897,6.5897,6.5897,6.5897,6.5897,6.5897,6.5897,6.5897,6.5897,6.5897,6.5897,6.5897,6.6051,6.6384,6.6389,6.6564,6.6875,6.6875,6.6914,6.6914,6.6914,6.6914,5.3225,5.3225,5.3335,5.3959,5.4252,5.4546,5.5133,5.5904,5.6565,5.6748,5.7299,5.7776,5.796,5.7997,5.7997,5.7997,5.7997,5.7997,5.7997,5.7997,5.7997,5.7997,5.7997,5.7997,5.7997,5.7997,5.7997,5.7997,5.7997,5.7997,5.7997,5.7997,5.7997,5.7997,5.7997,5.7997,5.7997,5.7997,5.7997,5.7997,5.7997,5.7997,5.7997,5.7997,5.7997,5.7997,5.8142,5.8375,5.8753,5.8951,5.9248,5.9592,5.9728,5.9946,6.0283,6.0283,6.0508,6.0781,6.0781,6.0781,6.0781,6.0781,6.0781,6.0781,6.0781,6.0781,6.0781,6.0781,6.0781,6.0781,6.0781,6.1281,6.1781,6.1781,6.2397,6.3166,6.382,6.4282,6.4782,6.5436,6.5743,6.5897,6.5897,6.5897,6.5897,6.5897,6.5897,6.5897,6.5897,6.5897,6.5897,6.5897,6.5897,6.5897,6.5897,6.5897,6.5897,6.5897,6.5897,6.5897,6.5897,6.5897,6.5974,6.6167,6.6295,6.6486,6.668,6.6836,6.6914,6.6914,6.6914,6.6914,5.3628,5.3739,5.3922,5.473,5.5207,5.5574,5.6014,5.6748,5.7336,5.7336,5.7703,5.7997,5.7997,5.7997,5.7997,5.7997,5.7997,5.7997,5.7997,5.7997,5.7997,5.7997,5.7997,5.7997,5.7997,5.7997,5.7997,5.7997,5.7997,5.7997,5.7997,5.7997,5.7997,5.7997,5.7997,5.7997,5.7997,5.7997,5.7997,5.7997,5.7997,5.7997,5.7997,5.7997,5.7997,5.7997,5.7997,5.8142,5.8418,5.8632,5.8874,5.9102,5.9319,5.9559,5.9792,5.9792,5.9946,6.0189,6.0189,6.0189,6.0245,6.0647,6.0781,6.0781,6.0781,6.0781,6.0781,6.0781,6.0781,6.0896,6.1281,6.1704,6.2166,6.2551,6.3243,6.4012,6.4474,6.4897,6.532,6.582,6.5897,6.5897,6.5897,6.5897,6.5897,6.5897,6.5897,6.5897,6.5897,6.5897,6.5897,6.5897,6.5897,6.5897,6.5897,6.5897,6.5897,6.5897,6.5897,6.5897,6.5897,6.5897,6.5936,6.609,6.6281,6.6489,6.6601,6.6797,6.6914,6.6914,6.6914,6.6914,5.4363,5.4546,5.473,5.5537,5.6271,5.6822,5.6932,5.7483,5.7997,5.7997,5.7997,5.7997,5.7997,5.7997,5.7997,5.7997,5.7997,5.7997,5.7997,5.7997,5.7997,5.7997,5.7997,5.7997,5.7997,5.7997,5.7997,5.7997,5.7997,5.7997,5.7997,5.7997,5.7997,5.7997,5.7997,5.7997,5.7997,5.7997,5.7997,5.7997,5.7997,5.7997,5.7997,5.7997,5.7997,5.7997,5.7997,5.7997,5.8042,5.8461,5.8591,5.8673,5.9065,5.9248,5.9284,5.9284,5.9354,5.9389,5.9389,5.9389,5.9526,6.0338,6.0622,6.0622,6.071,6.071,6.0734,6.0935,6.0973,6.1166,6.205,6.2358,6.2589,6.332,6.4128,6.4782,6.4782,6.5359,6.5897,6.5897,6.5897,6.5897,6.5897,6.5897,6.5897,6.5897,6.5897,6.5897,6.5897,6.5897,6.5897,6.5897,6.5897,6.5897,6.5897,6.5897,6.5897,6.5897,6.5897,6.5897,6.5897,6.5897,6.5936,6.6051,6.6307,6.6472,6.6558,6.6796,6.6914,6.6914,6.6914,6.6914,5.5354,5.539,5.5574,5.6381,5.6712,5.6969,5.7629,5.7886,5.7997,5.7997,5.7997,5.7997,5.7997,5.7997,5.7997,5.7997,5.7997,5.7997,5.7997,5.7997,5.7997,5.7997,5.7997,5.7997,5.7997,5.7997,5.7997,5.7997,5.7997,5.7997,5.7997,5.7997,5.7997,5.7997,5.7997,5.7997,5.7997,5.7997,5.7997,5.7997,5.7997,5.7997,5.7997,5.7997,5.7997,5.7997,5.7997,5.7997,5.7997,5.8097,5.8142,5.8142,5.8194,5.8503,5.8835,5.8835,5.9103,5.9389,5.9389,5.9389,5.9424,5.9592,5.9625,5.9728,6.0103,6.0217,6.0464,6.1555,6.1858,6.205,6.2897,6.3628,6.4205,6.4359,6.5051,6.5667,6.5667,6.5782,6.5897,6.5897,6.5897,6.5897,6.5897,6.5897,6.5897,6.5897,6.5897,6.5897,6.5897,6.5897,6.5897,6.5897,6.5897,6.5897,6.5897,6.5897,6.5897,6.5897,6.5897,6.5897,6.5897,6.5897,6.5897,6.5936,6.6269,6.6417,6.6429,6.6738,6.6914,6.6914,6.6914,6.6914,5.6088,5.6235,5.6418,5.7226,5.7409,5.7519,5.7923,5.7997,5.7997,5.7997,5.7997,5.7997,5.7997,5.7997,5.7997,5.7997,5.7997,5.7997,5.7997,5.7997,5.7997,5.7997,5.7997,5.7997,5.7997,5.7997,5.7997,5.7997,5.7997,5.7997,5.7997,5.7997,5.7997,5.7997,5.7997,5.7997,5.7997,5.7997,5.7997,5.7997,5.7997,5.7997,5.7997,5.7997,5.7997,5.7997,5.7997,5.7997,5.7997,5.7997,5.7997,5.7997,5.7997,5.8142,5.8369,5.8369,5.8503,5.8673,5.8673,5.8673,5.8673,5.8673,5.9028,5.9424,5.9696,6.0031,6.0481,6.1157,6.1637,6.214,6.2978,6.3694,6.4298,6.4747,6.5383,6.5897,6.5897,6.5897,6.5897,6.5897,6.5897,6.5897,6.5897,6.5897,6.5897,6.5897,6.5897,6.5897,6.5897,6.5897,6.5897,6.5897,6.5897,6.5897,6.5897,6.5897,6.5897,6.5897,6.5897,6.5897,6.5897,6.5897,6.5897,6.5897,6.6128,6.6299,6.6387,6.6614,6.6797,6.6914,6.6914,6.6914,5.6895,5.7079,5.7226,5.785,5.7997,5.7997,5.7997,5.7997,5.7997,5.7997,5.7997,5.7997,5.7997,5.7997,5.7997,5.7997,5.7997,5.7997,5.7997,5.7997,5.7997,5.7997,5.7997,5.7997,5.7997,5.7997,5.7997,5.7997,5.7997,5.7997,5.7997,5.7997,5.7997,5.7997,5.7997,5.7997,5.7997,5.7997,5.7997,5.7997,5.7997,5.7997,5.7997,5.7997,5.7997,5.7997,5.7997,5.7997,5.7997,5.7997,5.7997,5.7997,5.7997,5.7997,5.7997,5.7997,5.7997,5.7997,5.7997,5.7997,5.8033,5.8217,5.8762,5.9403,5.9475,6.0077,6.0754,6.1053,6.1617,6.2296,6.3125,6.3641,6.4133,6.4877,6.5513,6.5897,6.5897,6.5897,6.5897,6.5897,6.5897,6.5897,6.5897,6.5897,6.5897,6.5897,6.5897,6.5897,6.5897,6.5897,6.5897,6.5897,6.5897,6.5897,6.5897,6.5897,6.5897,6.5897,6.5897,6.5897,6.5897,6.5897,6.5897,6.5897,6.6013,6.6196,6.6392,6.6522,6.6719,6.6914,6.6914,6.6914,5.785,5.7886,5.7923,5.796,5.7997,5.7997,5.7997,5.7997,5.7997,5.7997,5.7997,5.7997,5.7997,5.7997,5.7997,5.7997,5.7997,5.7997,5.7997,5.7997,5.7997,5.7997,5.7997,5.7997,5.7997,5.7997,5.7997,5.7997,5.7997,5.7997,5.7997,5.7997,5.7997,5.7997,5.7997,5.7997,5.7997,5.7997,5.7997,5.7997,5.7997,5.7997,5.7997,5.7997,5.7997,5.7997,5.7997,5.7997,5.7997,5.7997,5.7997,5.7997,5.7997,5.7997,5.7997,5.7997,5.7997,5.7997,5.7997,5.7997,5.8107,5.8877,5.9145,5.9337,5.9706,6.0431,6.1297,6.2523,6.2899,6.3163,6.403,6.4294,6.4478,6.4965,6.5513,6.5897,6.5897,6.5897,6.5897,6.5897,6.5897,6.5897,6.5897,6.5897,6.5897,6.5897,6.5897,6.5897,6.5897,6.5897,6.5897,6.5897,6.5897,6.5897,6.5897,6.5897,6.5897,6.5897,6.5897,6.5897,6.5897,6.5897,6.5897,6.5897,6.6013,6.6217,6.6381,6.6541,6.6719,6.6914,6.6914,6.6914,5.7997,5.7997,5.7997,5.7997,5.7997,5.7997,5.7997,5.7997,5.7997,5.7997,5.7997,5.7997,5.7997,5.7997,5.7997,5.7997,5.7997,5.7997,5.7997,5.7997,5.7997,5.7997,5.7997,5.7997,5.7997,5.7997,5.7997,5.7997,5.7997,5.7997,5.7997,5.7997,5.7997,5.7997,5.7997,5.7997,5.7997,5.7997,5.7997,5.7997,5.7997,5.7997,5.7997,5.7997,5.7997,5.7997,5.7997,5.7997,5.7997,5.7997,5.7997,5.7997,5.7997,5.7997,5.7997,5.7997,5.7997,5.807,5.8547,5.8731,5.8877,5.9685,6.0272,6.0577,6.0296,6.0794,6.1505,6.2027,6.2517,6.3,6.3379,6.368,6.4019,6.4554,6.5035,6.5417,6.5417,6.5663,6.5897,6.5897,6.5897,6.5897,6.5897,6.5897,6.5897,6.5897,6.5897,6.5897,6.5897,6.5897,6.5897,6.5897,6.5897,6.5897,6.5897,6.5897,6.5897,6.5897,6.5897,6.5897,6.5897,6.5897,6.5897,6.5897,6.5936,6.6051,6.623,6.64,6.6561,6.6719,6.6836,6.6914,5.7997,5.7997,5.7997,5.7997,5.7997,5.7997,5.7997,5.7997,5.7997,5.7997,5.7997,5.7997,5.7997,5.7997,5.7997,5.7997,5.7997,5.7997,5.7997,5.7997,5.7997,5.7997,5.7997,5.7997,5.7997,5.7997,5.7997,5.7997,5.7997,5.7997,5.7997,5.7997,5.7997,5.7997,5.7997,5.7997,5.7997,5.7997,5.7997,5.7997,5.7997,5.7997,5.7997,5.7997,5.7997,5.7997,5.7997,5.7997,5.7997,5.7997,5.7997,5.7997,5.7997,5.7997,5.8033,5.8253,5.8364,5.8474,5.9281,5.9575,5.9685,6.0493,6.1153,6.152,6.1227,6.152,6.1961,6.1961,6.2365,6.2805,6.2805,6.3215,6.368,6.4059,6.4554,6.49,6.5067,6.5417,6.569,6.5872,6.5897,6.5897,6.5897,6.5897,6.5897,6.5897,6.5897,6.5897,6.5897,6.5897,6.5897,6.5897,6.5897,6.5897,6.5897,6.5897,6.5897,6.5897,6.5897,6.5897,6.5897,6.5897,6.5897,6.5897,6.5897,6.5974,6.609,6.6284,6.6457,6.6601,6.6797,6.6914,5.7997,5.7997,5.7997,5.7997,5.7997,5.7997,5.7997,5.7997,5.7997,5.7997,5.7997,5.7997,5.7997,5.7997,5.7997,5.7997,5.7997,5.7997,5.7997,5.7997,5.7997,5.7997,5.7997,5.7997,5.7997,5.7997,5.7997,5.7997,5.7997,5.7997,5.7997,5.7997,5.7997,5.7997,5.7997,5.7997,5.7997,5.7997,5.7997,5.7997,5.7997,5.7997,5.7997,5.7997,5.7997,5.7997,5.7997,5.7997,5.7997,5.7997,5.7997,5.7997,5.7997,5.7997,5.8107,5.8914,5.9208,5.9318,6.0126,6.0382,6.0529,6.1337,6.1594,6.1741,6.2548,6.2805,6.2805,6.2805,6.2805,6.2805,6.2805,6.3215,6.3593,6.3631,6.4016,6.4518,6.5003,6.5099,6.5261,6.5808,6.5897,6.5897,6.5897,6.5897,6.5897,6.5897,6.5897,6.5897,6.5897,6.5897,6.5897,6.5897,6.5897,6.5897,6.5897,6.5897,6.5897,6.5897,6.5897,6.5897,6.5897,6.5897,6.5897,6.5897,6.5897,6.5974,6.609,6.6307,6.6484,6.6601,6.6797,6.6914,5.7997,5.7997,5.7997,5.7997,5.7997,5.7997,5.7997,5.7997,5.7997,5.7997,5.7997,5.7997,5.7997,5.7997,5.7997,5.7997,5.7997,5.7997,5.7997,5.7997,5.7997,5.7997,5.7997,5.7997,5.7997,5.7997,5.7997,5.7997,5.7997,5.7997,5.7997,5.7997,5.7997,5.7997,5.7997,5.7997,5.7997,5.7997,5.7997,5.7997,5.7997,5.7997,5.7997,5.7997,5.7997,5.7997,5.7997,5.7997,5.7997,5.7997,5.7997,5.7997,5.7997,5.8327,5.8877,5.9134,5.9575,6.0162,6.0933,6.1227,6.1337,6.2181,6.2438,6.2475,6.2732,6.2805,6.2805,6.2805,6.2805,6.2805,6.2805,6.2953,6.3121,6.3498,6.4016,6.4518,6.5003,6.5388,6.569,6.5872,6.5897,6.5897,6.5897,6.5897,6.5897,6.5897,6.5897,6.5897,6.5897,6.5897,6.5897,6.5897,6.5897,6.5897,6.5897,6.5897,6.5897,6.5897,6.5897,6.5897,6.5897,6.5897,6.5897,6.5897,6.5897,6.5897,6.5936,6.6269,6.6561,6.6797,6.6875,6.6914,5.7997,5.7997,5.7997,5.7997,5.7997,5.7997,5.7997,5.7997,5.7997,5.7997,5.7997,5.7997,5.7997,5.7997,5.7997,5.7997,5.7997,5.7997,5.7997,5.7997,5.7997,5.7997,5.7997,5.7997,5.7997,5.7997,5.7997,5.7997,5.7997,5.7997,5.7997,5.7997,5.7997,5.7997,5.7997,5.7997,5.7997,5.7997,5.7997,5.7997,5.7997,5.7997,5.7997,5.7997,5.7997,5.7997,5.7997,5.7997,0.0,5.7997,5.818,5.8437,5.8437,5.8951,5.9685,6.0015,6.0419,6.097,6.1777,6.2034,6.2144,6.2658,6.2805,6.2805,6.2805,6.2805,6.2805,6.2805,6.2805,6.2805,6.2805,6.2805,6.2904,6.3215,6.355,6.3978,6.4696,6.5105,6.5456,6.5808,6.5897,6.5897,6.5897,6.5897,6.5897,6.5897,6.5897,6.5897,6.5897,6.5897,6.5897,6.5897,6.5897,6.5897,6.5897,6.5897,6.5897,6.5897,6.5897,6.5897,6.5897,6.5897,6.5897,6.5897,6.5897,6.5897,6.5897,6.6212,6.6555,6.6914,6.6914,6.6914,0.0,5.7997,5.7997,5.7997,5.7997,5.7997,5.7997,5.7997,0.0,5.7997,5.7997,5.7997,5.7997,5.7997,5.7997,5.7997,5.7997,5.7997,5.7997,5.7997,5.7997,5.7997,5.7997,5.7997,5.7997,5.7997,5.7997,5.7997,5.7997,5.7997,5.7997,5.7997,5.7997,5.7997,5.7997,5.7997,5.7997,5.7997,5.7997,5.7997,5.7997,5.7997,5.7997,5.7997,5.7997,5.7997,5.7997,5.8033,5.8107,5.8107,5.8547,5.9318,5.9318,5.9795,6.0566,6.13,6.163,6.1777,6.2548,6.2805,6.2805,6.2805,6.2805,6.2805,6.2805,6.2805,6.2805,6.2805,6.2805,6.2805,6.2805,6.2805,6.2805,6.2855,6.2855,6.3121,6.4178,6.4445,6.4734,6.5663,6.5872,6.5897,6.5897,6.5897,6.5897,6.5897,6.5897,6.5897,6.5897,6.5897,6.5897,6.5897,6.5897,6.5897,6.5897,6.5897,6.5897,6.5897,6.5897,6.5897,6.5897,6.5897,6.5897,6.5897,6.5897,6.5897,6.5936,6.6234,6.6572,6.6914,6.6914,6.6914,5.7997,0.0,5.7997,5.7997,5.7997,5.7997,0.0,5.7997,5.7997,5.7997,5.7997,5.7997,5.7997,5.7997,5.7997,5.7997,5.7997,5.7997,5.7997,5.7997,5.7997,5.7997,5.7997,5.7997,5.7997,5.7997,5.7997,5.7997,5.7997,5.7997,5.7997,5.7997,5.7997,5.7997,5.7997,5.7997,5.7997,5.7997,5.7997,5.7997,5.7997,5.7997,5.7997,5.7997,5.7997,5.7997,5.7997,5.8364,5.8914,5.8914,5.9391,6.0126,6.0126,6.0603,6.1337,6.152,6.1998,6.2548,6.2732,6.2805,6.2805,6.2805,6.2805,6.2805,6.2805,6.2805,6.2805,6.2805,6.2805,6.2805,6.2805,6.2805,6.2904,6.3317,6.3408,6.3593,6.4255,6.4661,6.5003,6.5261,6.5597,6.5897,6.5897,6.5897,6.5897,6.5897,6.5897,6.5897,6.5897,6.5897,6.5897,6.5897,6.5897,6.5897,6.5897,6.5897,6.5897,6.5897,6.5897,6.5897,6.5897,6.5897,6.5897,6.5897,6.5897,6.6013,6.6307,6.6351,6.6572,6.6914,6.6914,6.6914,5.7997,5.7997,5.7997,5.7997,5.7997,5.7997,5.7997,5.7997,5.7997,5.7997,5.7997,5.7997,5.7997,5.7997,5.7997,5.7997,5.7997,5.7997,5.7997,5.7997,5.7997,5.7997,5.7997,5.7997,5.7997,5.7997,5.7997,5.7997,5.7997,5.7997,5.7997,5.7997,5.7997,5.7997,5.7997,5.7997,5.7997,5.7997,5.7997,5.7997,5.7997,5.7997,5.7997,5.7997,5.8217,5.8547,5.8547,5.9024,5.9758,5.9758,6.0236,6.0933,6.0933,6.1447,6.2144,6.2144,6.2438,6.2805,6.2805,6.2805,6.2805,6.2805,6.2805,6.2805,6.2805,6.2805,6.2805,6.2805,6.2805,6.2805,6.2805,6.2805,6.2904,6.3168,6.3262,6.3363,6.3934,6.4444,6.4833,6.5067,6.5542,6.5897,6.5897,6.5897,6.5897,6.5897,6.5897,6.5897,6.5897,6.5897,6.5897,6.5897,6.5897,6.5897,6.5897,6.5897,6.5897,6.5897,6.5897,6.5897,6.5897,6.5897,6.5897,6.5897,6.5897,6.6051,6.6423,6.6389,6.6572,6.6914,6.6914,6.6914,5.7997,5.7997,5.7997,5.7997,5.7997,5.7997,5.7997,5.7997,5.7997,5.7997,5.7997,5.7997,5.7997,5.7997,5.7997,5.7997,5.7997,5.7997,5.7997,5.7997,5.7997,5.7997,5.7997,5.7997,5.7997,5.7997,5.7997,5.7997,5.7997,5.7997,5.7997,5.7997,5.7997,5.7997,5.7997,5.7997,5.7997,5.7997,5.7997,5.7997,5.7997,5.807,5.818,5.818,5.8621,5.9391,5.9391,0.0,6.0566,6.0566,6.108,6.1777,6.1777,6.2218,6.2805,6.2805,6.2805,6.2805,6.2805,6.2805,6.2805,6.2805,6.2805,6.2805,6.2805,6.2805,6.2805,6.2805,6.2805,6.2805,6.2805,6.2805,6.2805,6.2805,6.2805,6.2917,6.3363,6.3892,6.4407,6.49,6.5417,6.5808,6.5897,6.5897,6.5897,6.5897,6.5897,6.5897,6.5897,6.5897,6.5897,6.5897,6.5897,6.5897,6.5897,6.5897,6.5897,6.5897,6.5897,6.5897,6.5897,6.5897,6.5897,6.5897,6.5897,6.6051,6.6423,6.6389,6.6572,6.6914,6.6914,6.6914,5.7997,5.7997,5.7997,5.7997,5.7997,5.7997,5.7997,0.0,5.7997,5.7997,5.7997,5.7997,5.7997,5.7997,5.7997,5.7997,5.7997,5.7997,5.7997,5.7997,5.7997,5.7997,5.7997,5.7997,5.7997,5.7997,5.7997,5.7997,5.7997,5.7997,5.7997,5.7997,5.7997,5.7997,5.7997,5.7997,5.7997,5.7997,5.7997,5.7997,5.7997,5.8364,5.9024,5.9024,5.9465,6.0236,0.0,6.0676,6.141,6.141,6.1887,6.2622,6.2622,6.2695,6.2805,6.2805,6.2805,6.2805,6.2805,6.2805,6.2805,6.2805,6.2805,6.2805,6.2805,6.2805,6.2805,6.2805,6.2805,6.2805,6.2805,6.2805,6.2805,6.2805,6.2805,6.2805,6.2904,6.3317,6.3892,6.4407,6.4866,6.5388,6.5808,6.5897,6.5897,6.5897,6.5897,6.5897,6.5897,6.5897,6.5897,6.5897,6.5897,6.5897,6.5897,6.5897,6.5897,6.5897,6.5897,6.5897,6.5897,6.5897,6.5897,6.5897,6.5897,6.6051,6.6423,6.6389,6.6572,6.6914,6.6914,6.6914,5.7997,5.7997,5.7997,5.7997,5.7997,5.7997,0.0,0.0,5.7997,5.7997,5.7997,5.7997,5.7997,5.7997,5.7997,5.7997,5.7997,5.7997,5.7997,5.7997,5.7997,5.7997,5.7997,5.7997,5.7997,5.7997,5.7997,5.7997,5.7997,5.7997,5.7997,5.7997,5.7997,5.7997,5.7997,5.7997,5.7997,5.8437,5.8657,5.8657,5.8657,5.9098,5.9869,5.9869,6.0309,6.1043,0.0,6.1484,6.2254,6.2254,6.2475,6.2805,6.2805,6.2805,6.2805,6.2805,6.2805,6.2805,6.2805,6.2805,6.2805,6.2805,6.2805,6.2805,6.2805,6.2805,6.2805,6.2805,6.2805,6.2805,6.2805,6.2805,6.2805,6.2805,6.2805,6.2805,6.2805,6.3215,6.3766,6.4294,6.4765,6.5261,6.5808,6.5897,6.5897,6.5897,6.5897,6.5897,6.5897,6.5897,6.5897,6.5897,6.5897,6.5897,6.5897,6.5897,6.5897,6.5897,6.5897,6.5897,6.5897,6.5897,6.5897,6.5897,6.5897,6.6051,6.6423,6.6389,6.6572,6.6914,6.6914,6.6914,5.7997,5.7997,5.7997,5.7997,5.7997,0.0,0.0,0.0,0.0,0.0,5.7997,5.7997,5.7997,5.7997,5.7997,5.7997,5.7997,5.7997,5.7997,5.7997,5.7997,5.7997,5.7997,5.7997,5.7997,5.7997,5.7997,5.7997,5.7997,5.7997,5.7997,5.7997,5.7997,5.7997,5.818,5.829,5.829,5.9098,5.9391,5.9208,5.9391,5.9905,6.0676,6.0676,6.1117,6.1887,6.1887,6.2218,6.2805,6.2805,6.2805,6.2805,6.2805,6.2805,6.2805,6.2805,6.2805,6.2805,6.2805,6.2805,6.2805,6.2805,6.2805,6.2805,6.2805,6.2805,6.2805,6.2805,6.2805,6.2805,6.2805,6.2805,6.2805,6.2805,6.2805,6.2805,6.2805,6.3121,6.3593,6.4255,6.4696,6.513,6.5781,6.5897,6.5897,6.5897,6.5897,6.5897,6.5897,6.5897,6.5897,6.5897,6.5897,6.5897,6.5897,6.5897,6.5897,6.5897,6.5897,6.5897,6.5897,6.5897,6.5897,6.5897,6.5897,6.6051,6.6346,6.6389,6.6533,6.6836,6.6875,6.6914,5.7997,5.7997,5.7997,5.7997,5.7997,0.0,5.7997,5.7997,0.0,5.7997,5.7997,5.7997,5.7997,5.7997,5.7997,5.7997,5.7997,5.7997,5.7997,5.7997,5.7997,5.7997,5.7997,5.7997,5.7997,5.7997,5.7997,5.7997,5.7997,5.7997,5.7997,5.7997,5.7997,5.7997,5.8731,5.9134,5.9134,5.9905,5.9942,5.9208,5.9979,6.075,6.152,6.152,6.1961,6.2732,6.2732,6.2768,6.2805,6.2805,6.2805,6.2805,6.2805,6.2805,6.2805,6.2805,6.2805,6.2805,6.2805,6.2805,6.2805,6.2805,6.2805,6.2805,6.2805,6.2805,6.2805,6.2805,6.2805,6.2805,6.2805,6.2805,6.2805,6.2805,6.2805,6.2805,6.2805,6.2855,6.3168,6.4178,6.4407,6.4769,6.5755,6.5897,6.5897,6.5897,6.5897,6.5897,6.5897,6.5897,6.5897,6.5897,6.5897,6.5897,6.5897,6.5897,6.5897,6.5897,6.5897,6.5897,6.5897,6.5897,6.5897,6.5897,6.5897,6.5974,6.609,6.6312,6.6494,6.664,6.6797,6.6914,5.7997,5.7997,5.7997,5.7997,5.7997,0.0,0.0,5.7997,5.7904,5.7401,5.7679,5.7821,5.7401,5.7679,5.7821,5.7401,5.7726,5.7821,5.7401,5.7351,5.7116,5.6632,5.6978,5.7351,5.7351,5.7726,5.7997,5.7997,5.7997,5.7997,5.7997,5.7997,5.8217,5.8731,5.9061,5.9465,5.9942,6.075,6.1006,6.0713,6.1006,6.1557,6.2365,6.2365,6.2511,6.2805,6.2805,6.2805,6.2805,6.2805,6.2805,6.2805,6.2805,6.2805,6.2805,6.2805,6.2805,6.2805,6.2805,6.2805,6.2805,6.2805,6.2805,6.2805,6.2805,6.2805,6.2805,6.2805,6.2805,6.2805,6.2805,6.2805,6.2805,6.2805,6.2805,6.2805,6.2805,6.2805,6.3014,6.3766,6.4138,6.459,6.5291,6.569,6.5897,6.5897,6.5897,6.5897,6.5897,6.5897,6.5897,6.5897,6.5897,6.5897,6.5897,6.5897,6.5897,6.5897,6.5897,6.5897,6.5897,6.5897,6.5897,6.5897,6.5897,6.6013,6.6307,6.635,6.6517,6.6797,6.6875,6.6914,5.7997,5.7997,5.7997,5.7997,0.0,0.0,5.7679,5.7679,5.7498,5.7015,5.7302,5.7449,5.6668,5.6927,5.708,5.6616,5.6927,5.708,5.6616,5.651,5.6313,5.578,5.6204,5.6616,5.6861,5.7351,5.7726,5.7997,5.7997,5.7997,5.7997,5.8253,5.8621,5.9208,5.9685,6.0236,6.0786,6.1594,6.1998,6.1998,6.1998,6.2291,6.2805,6.2805,6.2805,6.2805,6.2805,6.2805,6.2805,6.2805,6.2805,6.2805,6.2805,6.2805,6.2805,6.2805,6.2805,6.2805,6.2805,6.2805,6.2805,6.2805,6.2805,6.2805,6.2805,6.2805,6.2805,6.2805,6.2805,6.2805,6.2805,6.2805,6.2805,6.2805,6.2805,6.2805,6.2805,6.2805,6.3014,6.3723,6.4138,6.459,6.5261,6.5663,6.5897,6.5897,6.5897,6.5897,6.5897,6.5897,6.5897,6.5897,6.5897,6.5897,6.5897,6.5897,6.5897,6.5897,6.5897,6.5897,6.5897,6.5897,6.5897,6.5897,6.5897,6.6013,6.6307,6.6383,6.6545,6.6814,6.6865,6.6914,5.7997,5.7997,5.7997,5.7997,5.7449,5.6912,5.6861,5.6912,5.6912,5.6912,5.6861,5.6616,5.5836,5.5724,5.5724,5.5724,5.5724,5.5724,5.5724,5.5724,5.5724,5.5667,5.5724,5.6004,5.6809,5.6912,5.7166,5.795,5.7997,5.7997,5.7997,5.8767,5.9208,5.9245,6.0786,6.1594,6.1594,6.2401,6.2805,6.2805,6.2805,6.2805,6.2805,6.2805,6.2805,6.2805,6.2805,6.2805,6.2805,6.2805,6.2805,6.2805,6.2805,6.2805,6.2805,6.2805,6.2805,6.2805,6.2805,6.2805,6.2805,6.2805,6.2805,6.2805,6.2805,6.2805,6.2805,6.2805,6.2805,6.2805,6.2805,6.2805,6.2805,6.2805,6.2805,6.2805,6.2805,6.2805,6.3121,6.4178,6.437,6.4734,6.5728,6.5897,6.5897,6.5897,6.5897,6.5897,6.5897,6.5897,6.5897,6.5897,6.5897,6.5897,6.5897,6.5897,6.5897,6.5897,6.5897,6.5897,6.5897,6.5897,6.5897,6.5897,6.5897,6.5974,6.609,6.6312,6.645,6.6627,6.6814,6.6914,5.7997,5.7997,5.7904,5.7351,5.7065,5.6616,5.553,5.5667,0.0,5.6059,5.561,5.5238,5.4999,5.5379,5.5552,5.5024,5.5379,5.5552,5.4999,5.4939,5.4695,5.4235,5.4606,5.5059,5.5297,5.5724,5.6367,5.7166,5.7252,5.7704,5.8794,5.9098,5.9722,6.086,6.1337,6.1851,6.2438,6.2695,6.2805,6.2805,6.2805,6.2805,6.2805,6.2805,6.2805,6.2805,6.2805,6.2805,6.2805,6.2805,6.2805,6.2805,6.2805,6.2805,6.2805,6.2805,6.2805,6.2805,6.2805,6.2805,6.2805,6.2805,6.2805,6.2805,6.2805,6.2805,6.2805,6.2805,6.2805,6.2805,6.2805,6.2805,6.2805,6.2805,6.2805,6.2805,6.2805,6.2805,6.3014,6.368,6.4138,6.459,6.523,6.5663,6.5897,6.5897,6.5897,6.5897,6.5897,6.5897,6.5897,6.5897,6.5897,6.5897,6.5897,6.5897,6.5897,6.5897,6.5897,6.5897,6.5897,6.5897,6.5897,6.5897,6.5974,6.6128,6.6307,6.646,6.6639,6.683,6.6867,6.6914,5.7997,5.7774,5.7449,5.7015,5.6456,5.5645,5.4454,5.4695,5.5144,5.4878,5.473,5.4544,5.42,5.4544,5.4668,5.42,5.4544,5.4668,5.42,5.4136,5.4011,5.3551,5.3881,5.4264,5.4606,5.4964,5.561,5.6367,5.6743,5.7457,5.87,5.937,6.0272,6.1557,6.1924,6.2328,6.2805,6.2805,6.2805,6.2805,6.2805,6.2805,6.2805,6.2805,6.2805,6.2805,6.2805,6.2805,6.2805,6.2805,6.2805,6.2805,6.2805,6.2805,6.2805,6.2805,6.2805,6.2805,6.2805,6.2805,6.2805,6.2805,6.2805,6.2805,6.2805,6.2805,6.2805,6.2805,6.2805,6.2805,6.2805,6.2805,6.2805,6.2805,6.2805,6.2805,6.2805,6.2805,6.3014,6.3766,6.4178,6.4628,6.5291,6.569,6.5897,6.5897,6.5897,6.5897,6.5897,6.5897,6.5897,6.5897,6.5897,6.5897,6.5897,6.5897,6.5897,6.5897,6.5897,6.5897,6.5897,6.5897,6.5897,6.5897,6.6013,6.6198,6.6379,6.6545,6.6717,6.6914,6.6914,6.6914,5.7774,5.7266,5.6773,5.6668,5.5588,5.4328,5.3685,5.3977,5.4328,5.3618,5.4042,5.4328,5.3618,5.3518,5.3518,5.3518,5.3518,5.3518,5.3518,5.3518,5.3518,5.3518,5.3518,5.3783,5.4419,5.4551,5.4922,5.5658,5.6458,5.7299,5.8178,5.9601,6.0755,6.1569,6.2352,6.2805,6.2805,6.2805,6.2805,6.2805,6.2805,6.2805,6.2805,6.2805,6.2805,6.2805,6.2805,6.2805,6.2805,6.2805,6.2805,6.2805,6.2805,6.2805,6.2805,6.2805,6.2805,6.2805,6.2805,6.2805,6.2805,6.2805,6.2805,6.2805,6.2805,6.2805,6.2805,6.2805,6.2805,6.2805,6.2805,6.2805,6.2805,6.2805,6.2805,6.2805,6.2805,6.2805,6.3121,6.4178,6.437,6.4734,6.5755,6.5897,6.5897,6.5897,6.5897,6.5897,6.5897,6.5897,6.5897,6.5897,6.5897,6.5897,6.5897,6.5897,6.5897,6.5897,6.5897,6.5897,6.5897,6.5897,6.5897,6.5897,6.6051,6.6218,6.6411,6.6554,6.6718,6.6914,6.6914,6.6914,5.6169,5.6059,5.5836,5.5238,5.4391,5.3651,5.3551,5.3618,5.3651,5.3484,5.3618,5.3651,5.3484,5.3518,5.3518,5.3518,5.3518,5.3518,5.3518,5.3518,5.3518,5.3518,5.3518,5.3551,5.3717,5.4227,5.4932,5.5661,5.6419,5.7429,5.8875,5.9901,6.0756,6.1571,6.2354,6.2805,6.2805,6.2805,6.2805,6.2805,6.2805,6.2805,6.2805,6.2805,6.2805,6.2805,6.2805,6.2805,6.2805,6.2805,6.2805,6.2805,6.2805,6.2805,6.2805,6.2805,6.2805,6.2805,6.2805,6.2805,6.2805,6.2805,6.2805,6.2805,6.2805,6.2805,6.2805,6.2805,6.2805,6.2805,6.2805,6.2805,6.2805,6.2805,6.2805,6.2805,6.2805,6.2805,6.3121,6.4178,6.437,6.4734,6.5755,6.5897,6.5897,6.5897,6.5897,6.5897,6.5897,6.5897,6.5897,6.5897,6.5897,6.5897,6.5897,6.5897,6.5897,6.5897,6.5897,6.5897,6.5897,6.5897,6.5936,6.6051,6.6269,6.6396,6.6537,6.6719,6.6856,6.6914,6.6914,6.6914,5.5724,5.5437,5.4999,5.4264,5.3783,5.3518,5.3518,5.3518,5.3518,5.3518,5.3518,5.3518,5.3518,5.3518,5.3518,5.3518,5.3518,5.3518,5.3518,5.3518,5.3518,5.3518,5.3518,5.3653,5.3991,5.4363,5.4907,5.5619,5.6405,5.7357,5.8549,5.9763,6.0777,6.1568,6.2376,6.2805,6.2805,6.2805,6.2805,6.2805,6.2805,6.2805,6.2805,6.2805,6.2805,6.2805,6.2805,6.2805,6.2805,6.2805,6.2805,6.2805,6.2805,6.2805,6.2805,6.2805,6.2805,6.2805,6.2805,6.2805,6.2805,6.2805,6.2805,6.2805,6.2805,6.2805,6.2805,6.2805,6.2805,6.2805,6.2805,6.2805,6.2805,6.2805,6.2805,6.2805,6.2805,6.2805,6.3121,6.4178,6.437,6.4734,6.5755,6.5897,6.5897,6.5897,6.5897,6.5897,6.5897,6.5897,6.5897,6.5897,6.5897,6.5897,6.5897,6.5897,6.5897,6.5897,6.5897,6.5897,6.5897,6.5897,6.5936,6.609,6.6316,6.6471,6.6615,6.6806,6.6914,6.6914,6.6914,6.6914,5.532,5.4878,5.4264,5.3685,5.3518,5.3518,5.3518,5.3518,5.3518,5.3518,5.3518,5.3518,5.3518,5.3518,5.3518,5.3518,5.3518,5.3518,5.3518,5.3518,5.3518,5.3518,5.3619,5.3923,5.4532,5.4837,5.5243,5.5852,5.6562,5.7289,5.7943,5.9354,6.058,6.1343,6.2129,6.2654,6.2805,6.2805,6.2805,6.2805,6.2805,6.2805,6.2805,6.2805,6.2805,6.2805,6.2805,6.2805,6.2805,6.2805,6.2805,6.2805,6.2805,6.2805,6.2805,6.2805,6.2805,6.2805,6.2805,6.2805,6.2805,6.2805,6.2805,6.2805,6.2805,6.2805,6.2805,6.2805,6.2805,6.2805,6.2805,6.2805,6.2805,6.2805,6.2805,6.2805,6.2805,6.2805,6.3121,6.4178,6.4556,6.4904,6.5755,6.5897,6.5897,6.5897,6.5897,6.5897,6.5897,6.5897,6.5897,6.5897,6.5897,6.5897,6.5897,6.5897,6.5897,6.5897,6.5897,6.5897,6.5897,6.5897,6.5974,6.6128,6.6295,6.647,6.6668,6.6798,6.6914,6.6914,6.6914,6.6914,5.3783,5.3717,5.3618,5.3484,5.3518,5.3518,5.3518,5.3518,5.3518,5.3518,5.3518,5.3518,5.3518,5.3518,5.3518,5.3518,5.3518,5.3518,5.3518,5.3518,5.3518,5.3518,5.4059,5.4465,5.4566,5.575,5.6562,5.6664,5.734,5.7819,5.7929,5.8772,5.9704,6.0519,6.1343,6.2076,6.2805,6.2805,6.2805,6.2805,6.2805,6.2805,6.2805,6.2805,6.2805,6.2805,6.2805,6.2805,6.2805,6.2805,6.2805,6.2805,6.2805,6.2805,6.2805,6.2805,6.2805,6.2805,6.2805,6.2805,6.2805,6.2805,6.2805,6.2805,6.2805,6.2805,6.2805,6.2805,6.2805,6.2805,6.2805,6.2805,6.2805,6.2805,6.2805,6.2805,6.2805,6.2805,6.3121,6.4178,6.5105,6.5755,6.5897,6.5897,6.5897,6.5897,6.5897,6.5897,6.5897,6.5897,6.5897,6.5897,6.5897,6.5897,6.5897,6.5897,6.5897,6.5897,6.5897,6.5897,6.5897,6.5897,6.6051,6.6346,6.6389,6.6537,6.6856,6.6873,6.6914,6.6914,6.6914,6.6914,5.3518,5.3518,5.3518,5.3518,5.3518,5.3518,5.3518,5.3518,5.3518,5.3518,5.3518,5.3518,5.3518,5.3518,5.3518,5.3518,5.3518,5.3518,5.3518,5.3518,5.3518,5.3518,5.416,5.4769,5.5175,5.619,5.6968,5.7374,5.7712,5.7881,5.7881,5.8703,5.9245,5.9639,6.0938,6.177,6.2129,6.2567,6.2805,6.2805,6.2805,6.2805,6.2805,6.2805,6.2805,6.2805,6.2805,6.2805,6.2805,6.2805,6.2805,6.2805,6.2805,6.2805,6.2805,6.2805,6.2805,6.2805,6.2805,6.2805,6.2805,6.2805,6.2805,6.2805,6.2805,6.2805,6.2805,6.2805,6.2805,6.2805,6.2805,6.2805,6.2805,6.2805,6.2805,6.2805,6.2805,6.2805,6.3121,6.4178,6.5199,6.5897,6.5897,6.5897,6.5897,6.5897,6.5897,6.5897,6.5897,6.5897,6.5897,6.5897,6.5897,6.5897,6.5897,6.5897,6.5897,6.5897,6.5897,6.5897,6.5897,6.5897,6.6051,6.6384,6.6389,6.6564,6.6914,6.6914,6.6914,6.6914,6.6914,6.6914,5.3518,5.3518,5.3518,5.3518,5.3518,5.3518,5.3518,5.3518,5.3518,5.3518,5.3518,5.3518,5.3518,5.3518,5.3518,5.3518,5.3518,5.3518,5.3518,5.3518,5.3585,5.3754,5.4431,5.5175,5.5919,5.6664,5.7306,5.7848,5.7881,5.7881,5.7881,5.8424,5.9011,5.9443,6.0605,6.1492,6.1915,6.2515,6.2805,6.2805,6.2805,6.2805,6.2805,6.2805,6.2805,6.2805,6.2805,6.2805,6.2805,6.2805,6.2805,6.2805,6.2805,6.2805,6.2805,6.2805,6.2805,6.2805,6.2805,6.2805,6.2805,6.2805,6.2805,6.2805,6.2805,6.2805,6.2805,6.2805,6.2805,6.2805,6.2805,6.2805,6.2805,6.2805,6.2805,6.2805,6.2805,6.2904,6.3271,6.4217,6.5105,6.5717,6.5897,6.5897,6.5897,6.5897,6.5897,6.5897,6.5897,6.5897,6.5897,6.5897,6.5897,6.5897,6.5897,6.5897,6.5897,6.5897,6.5897,6.5897,6.5897,6.5897,6.6051,6.6384,6.6389,6.6564,6.6914,6.6914,6.6914,6.6914,6.6914,6.6914,5.3518,5.3518,5.3518,5.3518,5.3518,5.3518,5.3518,5.3518,5.3518,5.3518,5.3518,5.3518,5.3518,5.3518,5.3518,5.3518,5.3518,5.3518,5.3518,5.3518,5.3754,5.4465,5.5209,5.5953,5.6664,5.7408,5.7848,5.7881,5.7881,5.7881,5.7881,5.7954,5.8703,6.0273,6.0397,6.1171,6.2705,6.2755,6.2805,6.2805,6.2805,6.2805,6.2805,6.2805,6.2805,6.2805,6.2805,6.2805,6.2805,6.2805,6.2805,6.2805,6.2805,6.2805,6.2805,6.2805,6.2805,6.2805,6.2805,6.2805,6.2805,6.2805,6.2805,6.2805,6.2805,6.2805,6.2805,6.2805,6.2805,6.2805,6.2805,6.2805,6.2805,6.2805,6.2805,6.2805,6.2805,6.3215,6.3723,6.4294,6.4799,6.5291,6.5808,6.5897,6.5897,6.5897,6.5897,6.5897,6.5897,6.5897,6.5897,6.5897,6.5897,6.5897,6.5897,6.5897,6.5897,6.5897,6.5897,6.5897,6.5897,6.5897,6.6051,6.6384,6.6389,6.6564,6.6914,6.6914,6.6914,6.6914,6.6914,6.6914,5.3518,5.3518,5.3518,5.3518,5.3518,5.3518,5.3518,5.3518,5.3518,5.3518,5.3518,5.3518,5.3518,5.3518,5.3518,5.3518,5.3518,5.3518,5.3518,5.3923,5.4296,5.4566,5.5683,5.6528,5.6765,5.7476,5.7881,5.7881,5.7881,5.7881,5.7881,5.7881,5.8388,5.9509,6.0086,6.1171,6.2755,6.2805,6.2805,6.2805,6.2805,6.2805,6.2805,6.2805,6.2805,6.2805,6.2805,6.2805,6.2805,6.2805,6.2805,6.2805,6.2805,6.2805,6.2805,6.2805,6.2805,6.2805,6.2805,6.2805,6.2805,6.2805,6.2805,6.2805,6.2805,6.2805,6.2805,6.2805,6.2805,6.2805,6.2805,6.2805,6.2805,6.2805,6.2805,6.2805,6.2805,6.3461,6.4138,6.4332,6.5073,6.569,6.5872,6.5897,6.5897,6.5897,6.5897,6.5897,6.5897,6.5897,6.5897,6.5897,6.5897,6.5897,6.5897,6.5897,6.5897,6.5897,6.5897,6.5897,6.5897,6.5897,6.6051,6.6384,6.6389,6.6564,6.6914,6.6914,6.6914,6.6914,6.6914,6.6914,5.3518,5.3518,5.3518,5.3518,5.3518,5.3518,5.3518,5.3518,5.3518,5.3518,5.3518,5.3518,5.3518,5.3518,5.3518,5.3518,5.3518,5.3518,5.3518,5.4126,5.4668,5.4938,5.6055,5.69,5.7137,5.7611,5.7881,5.7881,5.7881,5.7881,5.7881,5.7881,5.8388,5.9509,6.064,6.1751,6.2805,6.2805,6.2805,6.2805,6.2805,6.2805,6.2805,6.2805,6.2805,6.2805,6.2805,6.2805,6.2805,6.2805,6.2805,6.2805,6.2805,6.2805,6.2805,6.2805,6.2805,6.2805,6.2805,6.2805,6.2805,6.2805,6.2805,6.2805,6.2805,6.2805,6.2805,6.2805,6.2805,6.2805,6.2805,6.2805,6.2805,6.2805,6.2805,6.2805,6.2805,6.3498,6.4178,6.437,6.5073,6.569,6.5872,6.5897,6.5897,6.5897,6.5897,6.5897,6.5897,6.5897,6.5897,6.5897,6.5897,6.5897,6.5897,6.5897,6.5897,6.5897,6.5897,6.5897,6.5897,6.5897,6.6051,6.6384,6.6389,6.6564,6.6914,6.6914,6.6914,6.6914,6.6914,6.6914,0.0,0.0,0.0,5.3518,5.3518,5.3518,5.3518,5.3518,5.3518,5.3518,5.3518,5.3518,5.3518,5.3518,5.3518,5.3518,5.3518,5.3518,5.3518,5.416,5.4905,5.5615,5.6393,5.7103,5.7814,5.7881,5.7881,5.7881,5.7881,5.7881,5.7881,5.7954,5.8703,6.0397,6.1969,6.2805,6.2805,6.2805,6.2805,6.2805,6.2805,6.2805,6.2805,6.2805,6.2805,6.2805,6.2805,6.2805,6.2805,6.2805,6.2805,6.2805,6.2805,6.2805,6.2805,6.2805,6.2805,6.2805,6.2805,6.2805,6.2805,6.2805,6.2805,6.2805,6.2805,6.2805,6.2805,6.2805,6.2805,6.2805,6.2805,6.2805,6.2805,6.2805,6.2805,6.2805,6.2805,6.3262,6.3766,6.4294,6.4765,6.5291,6.5808,6.5897,6.5897,6.5897,6.5897,6.5897,6.5897,6.5897,6.5897,6.5897,6.5897,6.5897,6.5897,6.5897,6.5897,6.5897,6.5897,6.5897,6.5897,6.5897,6.6051,6.6384,6.6389,6.6564,6.6875,6.6914,6.6914,6.6914,6.6914,6.6914,5.3518,0.0,0.0,0.0,0.0,0.0,5.3518,5.3518,5.3518,5.3518,5.3518,5.3518,5.3518,5.3518,5.3518,5.3518,5.3518,5.3518,5.3518,5.46,5.548,5.5683,5.6833,5.7679,5.7881,5.7881,5.7881,5.7881,5.7881,5.7881,5.7881,5.9011,6.0211,6.1229,6.2271,6.2805,6.2805,6.2805,6.2805,6.2805,6.2805,6.2805,6.2805,6.2805,6.2805,6.2805,6.2805,6.2805,6.2805,6.2805,6.2805,6.2805,6.2805,6.2805,6.2805,6.2805,6.2805,6.2805,6.2805,6.2805,6.2805,6.2805,6.2805,6.2805,6.2805,6.2805,6.2805,6.2805,6.2805,6.2805,6.2805,6.2805,6.2805,6.2805,6.2805,6.2805,6.2805,6.3543,6.4217,6.437,6.5105,6.5717,6.5872,6.5897,6.5897,6.5897,6.5897,6.5897,6.5897,6.5897,6.5897,6.5897,6.5897,6.5897,6.5897,6.5897,6.5897,6.5897,6.5897,6.5897,6.5897,6.5897,6.5974,6.6167,6.6334,6.6486,6.668,6.6836,6.6914,6.6914,6.6914,6.6914,0.0,0.0,0.0,0.0,0.0,0.0,5.3518,5.3518,5.3518,5.3518,5.3518,5.3518,5.3518,5.3518,5.3518,5.3518,5.3518,5.3619,5.3923,5.4972,5.5818,5.6122,5.7171,5.7881,5.7881,5.7881,5.7881,5.7881,5.7881,5.8065,5.8388,5.9639,6.076,6.1604,6.2376,6.2805,6.2805,6.2805,6.2805,6.2805,6.2805,6.2805,6.2805,6.2805,6.2805,6.2805,6.2805,6.2805,6.2805,6.2805,6.2805,6.2805,6.2805,6.2805,6.2805,6.2805,6.2805,6.2805,6.2805,6.2805,6.2805,6.2805,6.2805,6.2805,6.2805,6.2805,6.2805,6.2805,6.2805,6.2805,6.2805,6.2805,6.2805,6.2805,6.2805,6.2805,6.2805,6.3498,6.4099,6.437,6.5199,6.5897,6.5897,6.5897,6.5897,6.5897,6.5897,6.5897,6.5897,6.5897,6.5897,6.5897,6.5897,6.5897,6.5897,6.5897,6.5897,6.5897,6.5897,6.5897,6.5897,6.5897,6.5974,6.623,6.634,6.6489,6.6719,6.6836,6.6914,6.6914,6.6914,6.6914,0.0,0.0,0.0,0.0,5.3518,0.0,5.3518,5.3518,5.3518,5.3518,5.3518,5.3518,5.3518,5.3518,5.3518,5.3518,5.3585,5.3856,5.4499,5.5243,5.5987,5.6697,5.7442,5.7881,5.7881,5.7881,5.7881,5.7881,5.8027,5.8388,5.9178,6.0086,6.0879,6.1715,6.2464,6.2805,6.2805,6.2805,6.2805,6.2805,6.2805,6.2805,6.2805,6.2805,6.2805,6.2805,6.2805,6.2805,6.2805,6.2805,6.2805,6.2805,6.2805,6.2805,6.2805,6.2805,6.2805,6.2805,6.2805,6.2805,6.2805,6.2805,6.2805,6.2805,6.2805,6.2805,6.2805,6.2805,6.2805,6.2805,6.2805,6.2805,6.2805,6.2805,6.2805,6.2805,6.2805,6.3262,6.385,6.4294,6.5168,6.5808,6.5897,6.5897,6.5897,6.5897,6.5897,6.5897,6.5897,6.5897,6.5897,6.5897,6.5897,6.5897,6.5897,6.5897,6.5897,6.5897,6.5897,6.5897,6.5897,6.5897,6.6051,6.6346,6.6381,6.6555,6.6914,6.6914,6.6914,6.6914,6.6914,6.6914,0.0,0.0,0.0,0.0,0.0,0.0,5.3518,5.3518,5.3518,5.3518,5.3518,5.3518,5.3518,5.3518,5.3518,5.3518,5.3991,5.4431,5.4566,5.5243,5.5987,5.6697,5.7442,5.7881,5.7881,5.7881,5.7881,5.7881,5.8494,5.9245,6.0086,6.0938,6.1715,6.2567,6.2705,6.2805,6.2805,6.2805,6.2805,6.2805,6.2805,6.2805,6.2805,6.2805,6.2805,6.2805,6.2805,6.2805,6.2805,6.2805,6.2805,6.2805,6.2805,6.2805,6.2805,6.2805,6.2805,6.2805,6.2805,6.2805,6.2805,6.2805,6.2805,6.2805,6.2805,6.2805,6.2805,6.2805,6.2805,6.2805,6.2805,6.2805,6.2805,6.2805,6.2805,6.2805,6.2805,6.355,6.4255,6.437,6.4871,6.5417,6.5808,6.5897,6.5897,6.5897,6.5897,6.5897,6.5897,6.5897,6.5897,6.5897,6.5897,6.5897,6.5897,6.5897,6.5897,6.5897,6.5897,6.5897,6.5897,6.5897,6.5936,6.5974,6.6244,6.6556,6.6914,6.6914,6.6914,6.6914,6.6914,6.6914,0.0,0.0,0.0,5.3518,0.0,0.0,0.0,5.3518,5.3518,5.3518,5.3518,5.3518,5.3518,5.3518,5.3518,5.3518,5.4126,5.4735,5.5108,5.5784,5.6528,5.7273,5.7679,5.7881,5.7881,5.7881,5.7881,5.7881,5.8633,5.9509,6.0335,6.1171,6.1969,6.2755,6.2805,6.2805,6.2805,6.2805,6.2805,6.2805,6.2805,6.2805,6.2805,6.2805,6.2805,6.2805,6.2805,6.2805,6.2805,6.2805,6.2805,6.2805,6.2805,6.2805,6.2805,6.2805,6.2805,6.2805,6.2805,6.2805,6.2805,6.2805,6.2805,6.2805,6.2805,6.2805,6.2805,6.2805,6.2805,6.2805,6.2805,6.2805,6.2805,6.2805,6.2805,6.2805,6.2805,6.3453,6.4059,6.4332,6.4765,6.5261,6.5808,6.5897,6.5897,6.5897,6.5897,6.5897,6.5897,6.5897,6.5897,6.5897,6.5897,6.5897,6.5897,6.5897,6.5897,6.5897,6.5897,6.5897,6.5897,6.5897,6.5974,6.6128,6.6389,6.6642,6.6914,6.6914,6.6914,6.6914,6.6914,6.6914,0.0,0.0,0.0,0.0,0.0,5.3518,0.0,0.0,0.0,5.3518,5.3518,5.3518,5.3518,5.3518,5.3416,5.3112,5.3923,5.4769,5.5209,5.6156,5.707,5.7814,5.7881,5.7881,5.7881,5.7881,5.7881,5.7881,5.8806,5.9639,6.0335,6.1322,6.2129,6.2755,6.2805,6.2805,6.2805,6.2805,6.2805,6.2805,6.2805,6.2805,6.2805,6.2805,6.2805,6.2805,6.2805,6.2805,6.2805,6.2805,6.2805,6.2805,6.2805,6.2805,6.2805,6.2805,6.2805,6.2805,6.2805,6.2805,6.2805,6.2805,6.2805,6.2805,6.2805,6.2805,6.2805,6.2805,6.2805,6.2805,6.2805,6.2805,6.2805,6.2805,6.2805,6.2805,6.2805,6.3271,6.3892,6.4294,6.4871,6.5388,6.5808,6.5897,6.5897,6.5897,6.5897,6.5897,6.5897,6.5897,6.5897,6.5897,6.5897,6.5897,6.5897,6.5897,6.5897,6.5897,6.5897,6.5897,6.5897,6.5897,6.6051,6.6346,6.6506,6.6642,6.6836,6.7031,6.707,6.6914,6.6914,6.6914,0.0,0.0,0.0,0.0,5.3518,0.0,0.0,0.0,5.3518,5.3518,0.0,5.3518,5.3518,0.0,0.0,5.1691,5.3213,5.4397,5.3822,5.5513,5.707,5.7814,5.7881,5.7881,5.7881,5.7881,5.7881,5.7881,5.9346,6.0273,6.0397,6.186,6.2705,6.2805,6.2805,6.2805,6.2805,6.2805,6.2805,6.2805,6.2805,6.2805,6.2805,6.2805,6.2805,6.2805,6.2805,6.2805,6.2805,6.2805,6.2805,6.2805,6.2805,6.2805,6.2805,6.2805,6.2805,6.2805,6.2805,6.2805,6.2805,6.2805,6.2805,6.2805,6.2805,6.2805,6.2805,6.2805,6.2805,6.2805,6.2805,6.2805,6.2805,6.2805,6.2805,6.2805,6.2805,6.3593,6.4332,6.437,6.5168,6.5808,6.5897,6.5897,6.5897,6.5897,6.5897,6.5897,6.5897,6.5897,6.5897,6.5897,6.5897,6.5897,6.5897,6.5897,6.5897,6.5897,6.5897,6.5897,6.5897,6.5897,6.5974,6.6128,6.6295,6.6486,6.664,6.7578,6.7656,6.6914,6.6914,6.6914,0.0,0.0,0.0,0.0,0.0,0.0,5.3518,0.0,5.3518,0.0,0.0,0.0,0.0,0.0,0.0,0.0,5.3687,5.4634,5.4769,5.5953,5.707,5.7814,5.7881,5.7881,5.7881,5.8317,5.8633,5.8633,6.0113,6.1113,6.1113,6.2166,6.2805,6.2805,6.2805,6.2805,6.2805,6.2805,6.2805,6.2805,6.2805,6.2805,6.2805,6.2805,6.2805,6.2805,6.2805,6.2805,6.2805,6.2805,6.2805,6.2805,6.2805,6.2805,6.2805,6.2805,6.2805,6.2805,6.2805,6.2805,6.2805,6.2805,6.2805,6.2805,6.2805,6.2805,6.2805,6.2805,6.2805,6.2805,6.2805,6.2805,6.2805,6.2805,6.2805,6.2805,6.2805,6.3637,6.437,6.437,6.5199,6.5897,6.5897,6.5897,6.5897,6.5897,6.5897,6.5897,6.5897,6.5897,6.5897,6.5897,6.5897,6.5897,6.5897,6.5897,6.5897,6.5897,6.5897,6.5897,6.5897,6.5897,6.6205,6.6821,6.693,6.7372,6.8125,6.8555,6.8633,6.8398,6.8359,6.8359,5.3856,0.0,0.0,0.0,0.0,0.0,0.0,0.0,0.0,0.0,0.0,0.0,0.0,0.0,0.0,0.0,0.0,5.4702,5.5074,5.6089,5.707,5.7814,5.7881,5.7881,5.7881,5.8633,5.9111,5.9111,6.0665,6.1604,6.1604,6.2376,6.2805,6.2805,6.2805,6.2805,6.2805,6.2805,6.2805,6.2805,6.2805,6.2805,6.2805,6.2805,6.2805,6.2805,6.2805,6.2805,6.2805,6.2805,6.2805,6.2805,6.2805,6.2805,6.2805,6.2805,6.2805,6.2805,6.2805,6.2805,6.2805,6.2805,6.2805,6.2805,6.2805,6.2805,6.2805,6.2805,6.2805,6.2805,6.2805,6.2805,6.2805,6.2805,6.2805,6.2805,6.2805,6.3637,6.437,6.437,6.5199,6.5897,6.5897,6.5897,6.5897,6.5897,6.5897,6.5897,6.5897,6.5897,6.5897,6.5897,6.5897,6.5897,6.5897,6.5897,6.5897,6.5897,6.609,6.6244,6.6244,6.6474,6.6936,6.7667,6.7705,6.8142,6.9022,6.9406,6.9648,6.9765,6.9531,6.9453,0.0,0.0,0.0,5.3687,0.0,0.0,0.0,0.0,5.3518,0.0,0.0,0.0,0.0,0.0,0.0,0.0,0.0,0.0,0.0,5.5446,5.707,5.7814,5.7881,5.7881,5.7881,5.8633,5.9111,5.9111,6.0665,6.1604,6.1604,6.2376,6.2805,6.2805,6.2805,6.2805,6.2805,6.2805,6.2805,6.2805,6.2805,6.2805,6.2805,6.2805,6.2805,6.2805,6.2805,6.2805,6.2805,6.2805,6.2805,6.2805,6.2805,6.2805,6.2805,6.2805,6.2805,6.2805,6.2805,6.2805,6.2805,6.2805,6.2805,6.2805,6.2805,6.2805,6.2805,6.2805,6.2805,6.2805,6.2805,6.2805,6.2805,6.2805,6.2805,6.2805,6.2805,6.3637,6.437,6.437,6.5199,6.5897,6.5897,6.5897,6.5897,6.5897,6.5897,6.5897,6.5897,6.5897,6.5897,6.5897,6.5897,6.5897,6.5897,6.5897,6.5897,6.5897,6.6628,6.7051,6.7051,6.7859,6.8321,6.8359,6.8487,6.859,6.8604,6.9857,7.0469,7.0469,6.9805,6.9453,0.0,0.0,5.5277,5.504,0.0,0.0,0.0,0.0,0.0,0.0,0.0,0.0,0.0,0.0,0.0,0.0,0.0,0.0,0.0,5.8033,5.9229,5.9509,5.9078,5.8943,5.9543,6.03,6.0725,6.0725,6.177,6.2376,6.2376,6.2618,6.2805,6.2805,6.2805,6.2805,6.2805,6.2805,6.2805,6.2805,6.2805,6.2805,6.2805,6.2805,6.2805,6.2805,6.2805,6.2805,6.2805,6.2805,6.2805,6.2805,6.2805,6.2805,6.2805,6.2805,6.2805,6.2805,6.2805,6.2805,6.2805,6.2805,6.2805,6.2805,6.2805,6.2805,6.2805,6.2805,6.2805,6.2805,6.2805,6.2805,6.2805,6.2805,6.2805,6.2805,6.2805,6.3637,6.437,6.437,6.5199,6.5897,6.5897,6.5897,6.5897,6.5897,6.5897,6.5897,6.5897,6.5897,6.5897,6.5897,6.5897,6.5897,6.5897,6.5897,6.6128,6.6667,6.6936,6.7359,6.7936,6.8244,6.8667,6.9244,6.9321,6.9667,7.0321,7.087,7.1198,7.1289,7.1211,7.1133,5.6156,5.6089,0.0,5.5784,5.5716,0.0,5.5716,0.0,0.0,0.0,0.0,0.0,0.0,0.0,0.0,0.0,0.0,0.0,0.0,5.926,6.0149,6.076,6.0086,5.9768,6.0371,6.1113,6.1604,6.1604,6.2324,6.2805,6.2805,6.2805,6.2805,6.2805,6.2805,6.2805,6.2805,6.2805,6.2805,6.2805,6.2805,6.2805,6.2805,6.2805,6.2805,6.2805,6.2805,6.2805,6.2805,6.2805,6.2805,6.2805,6.2805,6.2805,6.2805,6.2805,6.2805,6.2805,6.2805,6.2805,6.2805,6.2805,6.2805,6.2805,6.2805,6.2805,6.2805,6.2805,6.2805,6.2805,6.2805,6.2805,6.2805,6.2805,6.2805,6.2805,6.2805,6.3637,6.437,6.437,6.5199,6.5897,6.5897,6.5897,6.5897,6.5897,6.5897,6.5897,6.5897,6.5897,6.5897,6.5897,6.5897,6.5897,6.5897,6.6167,6.6551,6.7051,6.7667,6.8282,6.8859,6.9129,6.9436,6.9706,6.9975,7.0283,7.0667,7.1129,7.1435,7.154,7.1714,7.1861]},{"header":{"parameterUnit":"m.s-1","parameterCategory":1,"la1":30.6,"la2":29.2853,"lo1":-89.7004,"lo2":-87.6739,"dy":0.0162,"dx":0.0183,"nx":112,"ny":82,"refTime":"2023-03-24T12:00:00:Z","depth":0,"parameterNumber":3,"parameterNumberName":"V-component_of_WINDS"},"data":[0.0,0.0,0.0,0.0,0.0,0.0,0.0,0.0,0.0,0.0,0.0,0.0,0.0,0.0,0.0,0.0,0.0,0.0,0.0,0.0,0.0,0.0,0.0,0.0,0.0,0.0,0.0,0.0,0.0,0.0,0.0,0.0,0.0,0.0,0.0,0.0,0.0,0.0,0.0,0.0,0.0,0.0,0.0,0.0,0.0,0.0,0.0,0.0,0.0,0.0,0.0,0.0,0.0,0.0,0.0,0.0,0.0,0.0,0.0,0.0,0.0,0.0,0.0,0.0,0.0,0.0,0.0,0.0,0.0,0.0,0.0,0.0,0.0,0.0,0.0,0.0,0.0,0.0,0.0,0.0,0.0,0.0,0.0,0.0,0.0,0.0,0.0,0.0,0.0,0.0,1.0344,1.0507,1.0643,1.0717,1.0717,1.0717,1.0744,1.0672,0.0,0.0,0.0,0.0,0.0,0.0,0.0,0.0,0.0,0.0,0.0,0.0,0.0,0.0,0.0,0.0,0.0,0.0,0.0,0.0,0.0,0.0,0.0,0.0,0.0,0.0,0.0,0.0,0.0,0.0,0.0,0.0,0.0,0.0,0.0,0.0,0.0,0.0,0.0,0.0,0.0,0.0,0.0,0.0,0.0,0.0,0.0,0.0,0.0,0.0,0.0,0.0,0.0,0.0,0.0,0.0,0.0,0.0,0.0,0.0,0.0,0.0,0.0,0.0,0.0,0.0,0.0,0.0,0.0,0.0,0.0,0.0,0.0,0.0,0.0,0.0,0.0,0.0,0.0,0.0,0.0,0.0,0.0,0.0,0.0,0.0,0.0,0.0,0.0,0.0,0.0,0.0,0.0,0.0,0.0,0.0,0.0,0.0,0.0,0.0,0.0,0.0,0.0,0.0,1.0385,1.0656,1.0704,1.0717,1.0717,1.0717,1.0744,1.0672,0.0,0.0,0.0,0.0,0.0,0.0,0.0,0.0,0.0,0.0,0.0,0.0,0.0,0.0,0.0,0.0,0.0,0.0,0.0,0.0,0.0,0.0,0.0,0.0,0.0,0.0,0.0,0.0,0.0,0.0,0.0,0.0,0.0,0.0,0.0,0.0,0.0,0.0,0.0,0.0,0.0,0.0,0.0,0.0,0.0,0.0,0.0,0.0,0.0,0.0,0.0,0.0,0.0,0.0,0.0,0.0,0.0,0.0,0.0,0.0,0.0,0.0,0.0,0.0,0.0,0.0,0.0,0.0,0.0,0.0,0.0,0.0,0.0,0.0,0.0,0.0,0.0,0.0,0.0,0.0,0.0,0.0,0.0,0.0,0.0,0.0,0.0,0.0,0.0,0.0,0.0,0.0,0.0,0.0,0.0,0.0,0.0,0.0,0.0,0.0,0.0,0.0,0.0,1.0426,1.0568,1.0704,1.0717,1.0717,1.0717,1.0717,1.0744,1.0672,0.7393,0.0,0.0,0.0,0.0,0.0,0.0,0.0,0.0,0.0,0.0,0.0,0.0,0.0,0.0,0.0,0.0,0.0,0.0,0.0,0.0,0.0,0.0,0.0,0.0,0.0,0.0,0.0,0.0,0.0,0.0,0.0,0.0,0.0,0.0,0.0,0.0,0.0,0.0,0.0,0.0,0.0,0.0,0.0,0.0,0.0,0.0,0.0,0.0,0.0,0.0,0.0,0.0,0.0,0.0,0.0,0.0,0.0,0.0,0.0,0.0,0.0,0.0,0.0,0.0,0.0,0.0,0.0,0.0,0.0,0.0,0.0,0.0,0.0,0.0,0.0,0.0,0.0,0.0,0.0,0.0,0.0,0.0,0.0,0.0,0.0,0.0,0.0,0.0,0.0,0.0,0.0,0.0,0.0,0.0,0.0,0.0,0.0,0.0,0.0,0.0,0.0,0.0,1.0622,1.0717,1.0717,1.0717,1.0717,1.0717,1.0717,1.0744,1.0672,0.7393,0.0,0.0,0.0,0.0,0.0,0.0,0.0,0.0,0.0,0.0,0.0,0.0,0.0,0.0,0.0,0.0,0.0,0.0,0.0,0.0,0.0,0.0,0.0,0.0,0.0,0.0,0.0,0.0,0.0,0.0,0.0,0.0,0.0,0.0,0.0,0.0,0.0,0.0,0.0,0.0,0.0,0.0,0.0,0.0,0.0,0.0,0.0,0.0,0.0,0.0,0.0,0.0,0.0,0.0,0.0,0.0,0.0,0.0,0.0,0.0,0.0,0.0,0.0,0.0,0.0,0.0,0.0,0.0,0.0,0.0,0.0,0.0,0.0,0.0,0.0,0.0,0.0,0.0,0.0,0.0,0.0,0.0,0.0,0.0,0.0,0.0,0.0,0.0,0.0,0.0,0.0,0.0,0.0,0.0,0.0,0.0,0.0,0.0,0.0,0.0,0.0,0.0,1.0622,1.0717,1.0717,1.0717,1.0717,1.0717,1.0717,1.0744,1.0672,0.7393,0.0,0.0,0.0,0.0,0.0,0.0,0.0,0.0,0.0,0.0,0.0,0.0,0.0,0.0,0.0,0.0,0.0,0.0,0.0,0.0,0.0,0.0,0.0,0.0,0.0,0.0,0.0,0.0,0.0,0.0,0.0,0.0,0.0,0.0,0.0,0.0,0.0,0.0,0.0,0.0,0.0,0.0,0.0,0.0,0.0,0.0,0.0,0.0,0.0,0.0,0.0,0.0,0.0,0.0,0.0,0.0,0.0,0.0,0.0,0.0,0.0,0.0,0.0,0.0,0.0,0.0,0.0,0.0,0.0,0.0,0.0,0.0,0.0,0.0,0.0,0.0,0.0,0.0,0.0,0.0,0.0,0.0,0.0,0.0,0.0,0.0,0.0,0.0,0.0,0.0,0.0,0.0,0.0,0.0,0.0,0.0,0.0,0.0,0.0,0.0,0.0,0.0,1.0683,1.0717,1.0717,1.0717,1.0717,1.0717,1.0717,1.0744,1.0672,0.0,0.0,0.0,0.0,0.0,0.0,0.0,0.0,0.0,0.0,0.0,0.0,0.0,0.0,0.0,0.0,0.0,0.0,0.0,0.0,0.0,0.0,0.0,0.0,0.0,0.0,0.0,0.0,0.0,0.0,0.0,0.0,0.0,0.0,0.0,0.0,0.0,0.0,0.0,0.0,0.0,0.0,0.0,0.0,0.0,0.0,0.0,0.0,0.0,0.0,0.0,0.0,0.0,0.0,0.0,0.0,0.0,0.0,0.0,0.0,0.0,0.0,0.0,0.0,0.0,0.0,0.0,0.0,0.0,0.0,0.0,0.0,0.0,0.0,0.0,0.0,0.0,0.0,0.0,0.0,0.0,0.0,0.0,0.0,0.0,0.0,0.0,0.0,0.0,0.0,0.0,0.0,0.0,0.0,0.0,0.0,0.0,0.0,0.0,0.0,0.0,0.0,1.0704,1.0717,1.0717,1.0717,1.0717,1.0717,1.0717,1.0717,1.0738,1.0652,0.0,0.0,0.0,0.0,0.0,0.0,0.0,0.0,0.0,0.0,0.0,0.0,0.0,0.0,0.0,0.0,0.0,0.0,0.0,0.0,0.0,0.0,0.0,0.0,0.0,0.0,0.0,0.0,0.0,0.0,0.0,0.0,0.0,0.0,0.0,0.0,0.0,0.0,0.0,0.0,0.0,0.0,0.0,0.0,0.0,0.0,0.0,0.0,0.0,0.0,0.0,0.0,0.0,0.0,0.0,0.0,0.0,0.0,0.0,0.0,0.0,0.0,0.0,0.0,0.0,0.0,0.0,0.0,0.0,0.0,0.0,0.0,0.0,0.0,0.0,0.0,0.0,0.0,0.0,0.0,0.0,0.0,0.0,0.0,0.0,0.0,0.0,0.0,0.0,0.0,0.0,0.0,0.0,0.0,0.0,0.0,0.0,0.0,0.0,0.0,0.0,0.0,1.0717,1.0717,1.0717,1.0717,1.0717,1.0717,1.0717,1.0717,1.0731,0.0,0.0,0.0,0.0,0.0,0.0,0.0,0.0,0.0,0.0,0.0,0.0,0.0,0.0,0.0,0.0,0.0,0.0,0.0,0.0,0.0,0.0,0.0,0.0,0.0,0.0,0.0,0.0,0.0,0.0,0.0,0.0,0.0,0.0,0.0,0.0,0.0,0.0,0.0,0.0,0.0,0.0,0.0,0.0,0.0,0.0,0.0,0.0,0.0,0.0,0.0,0.0,0.0,0.0,0.0,0.0,0.0,0.0,0.0,0.0,0.0,0.0,0.0,0.0,0.0,0.0,0.0,0.0,0.0,0.0,0.0,0.0,0.0,0.0,0.0,0.0,0.0,0.0,0.0,0.0,0.0,0.0,0.0,0.0,0.0,0.0,0.0,0.0,0.0,0.0,0.0,0.0,0.0,0.0,0.0,0.0,0.0,0.0,0.0,0.0,0.0,0.0,0.0,1.0717,1.0717,1.0717,1.0717,1.0717,1.0717,1.0717,1.0717,1.0731,1.0751,0.0,0.0,0.0,0.0,0.0,0.0,0.0,0.0,0.0,0.0,0.0,0.0,0.0,0.0,0.0,0.0,0.0,0.0,0.0,0.0,0.0,0.0,0.0,0.0,0.0,0.0,0.0,0.0,0.0,0.0,0.0,0.0,0.0,0.0,0.0,0.0,0.0,0.0,0.0,0.0,0.0,0.0,0.0,0.0,0.0,0.0,0.0,0.0,0.0,0.0,0.0,0.0,0.0,0.0,0.0,0.0,0.0,0.0,0.0,0.0,0.0,0.0,0.0,0.0,0.0,0.0,0.0,0.0,0.0,0.0,0.0,0.0,0.0,0.0,0.0,0.0,0.0,0.0,0.0,0.0,0.0,0.0,0.0,0.0,0.0,0.0,0.0,0.0,0.0,0.0,0.0,0.0,0.0,0.0,0.0,0.0,0.0,0.0,0.0,0.0,0.0,0.0,1.0717,1.0717,1.0717,1.0717,1.0717,1.0717,1.0717,1.0717,1.0724,1.0738,0.0,0.0,0.0,0.0,0.0,0.0,0.0,0.0,0.0,0.0,0.0,0.0,0.0,0.0,0.0,0.0,0.0,0.0,0.0,0.0,0.0,0.0,0.0,0.0,0.0,0.0,0.0,0.0,0.0,0.0,0.0,0.0,0.0,0.0,0.0,0.0,0.0,0.0,0.0,0.0,0.0,0.0,0.0,0.0,0.0,0.0,0.0,0.0,0.0,0.0,0.0,0.0,0.0,0.0,0.0,0.0,0.0,0.0,0.0,0.0,0.0,0.0,0.0,0.0,0.0,0.0,0.0,0.0,0.0,0.0,0.0,0.0,0.0,0.0,0.0,0.0,0.0,0.0,0.0,0.0,0.0,0.0,0.0,0.0,0.0,0.0,0.0,0.0,0.0,0.0,0.0,0.0,0.0,0.0,0.0,0.0,0.0,0.0,0.0,0.0,0.0,0.0,1.0717,1.0717,1.0717,1.0717,1.0717,1.0717,1.0717,1.0717,1.0717,1.0717,0.0,0.0,0.0,0.0,0.0,0.0,0.0,0.0,0.0,0.0,0.0,0.0,0.0,0.0,0.0,0.0,0.0,0.0,0.0,0.0,0.0,0.0,0.0,0.0,0.0,0.0,0.0,0.0,0.0,0.0,0.0,0.0,0.0,0.0,0.0,0.0,0.0,0.0,0.0,0.0,0.0,0.0,0.0,0.0,0.0,0.0,0.0,0.0,0.0,0.0,0.0,0.0,0.0,0.0,0.0,0.0,0.0,0.0,0.0,0.0,0.9822,0.9822,0.0,0.0,0.0,0.0,0.0,0.0,0.0,0.0,0.0,0.0,0.0,0.0,0.0,0.0,0.0,0.0,0.0,0.0,0.0,0.0,0.0,0.0,0.0,0.0,0.0,0.0,0.0,0.0,0.0,0.0,0.0,0.0,0.0,0.0,0.0,0.0,0.0,0.0,0.0,0.0,1.0717,1.0717,1.0717,1.0717,1.0717,1.0717,1.0717,1.0717,1.0717,1.0717,1.0751,0.0,0.0,0.0,0.0,0.0,0.0,0.0,0.0,0.0,0.0,0.0,0.0,0.0,0.0,0.0,0.0,0.0,0.0,0.0,0.0,0.0,0.0,0.0,0.0,0.0,0.0,0.0,0.0,0.0,0.0,0.0,0.0,0.0,0.0,0.0,0.0,0.0,0.0,0.0,0.0,0.0,0.0,0.0,0.0,0.0,0.0,0.0,0.0,0.0,0.0,0.0,0.0,0.0,0.0,0.0,0.0,0.0,0.0,0.0,0.9822,0.9822,0.0,0.0,0.0,0.0,0.0,0.0,0.0,0.0,0.0,0.0,0.0,0.0,0.0,0.0,0.0,0.0,0.0,0.0,0.0,0.0,0.0,0.0,0.0,0.0,0.0,0.0,0.0,0.0,0.0,0.0,0.0,0.0,0.0,0.0,0.0,0.0,0.0,0.0,0.0,0.0,1.0717,1.0717,1.0717,1.0717,1.0717,1.0717,1.0717,1.0717,1.0717,1.0717,1.0744,0.0,0.0,0.0,0.0,0.0,0.0,0.0,0.0,0.0,0.0,0.0,0.0,0.0,0.0,0.0,0.0,0.0,0.0,0.0,0.0,0.0,0.0,0.0,0.0,0.0,0.0,0.0,0.0,0.0,0.0,0.0,0.0,0.0,0.0,0.0,0.0,0.0,0.0,0.0,0.0,0.0,0.0,0.0,0.0,0.0,0.0,0.0,0.0,0.0,0.0,0.0,0.0,0.0,1.102,1.0422,1.0664,1.0058,0.9937,1.0179,0.9943,0.9822,0.9822,0.9822,0.0,0.0,0.0,0.0,0.0,0.0,0.0,0.0,0.0,0.0,0.0,0.0,0.0,0.0,0.0,0.0,0.0,0.0,0.0,0.0,0.0,0.0,0.0,0.0,1.0568,0.9639,0.6981,0.0,0.0,0.0,0.0,0.0,0.0,0.0,0.0,0.0,0.0,0.0,1.0717,1.0717,1.0717,1.0717,1.0717,1.0717,1.0717,1.0717,1.0724,1.0724,1.0738,1.0751,0.0,0.0,0.0,0.0,0.0,0.0,0.0,0.0,0.0,0.0,0.0,0.0,0.0,0.0,0.0,0.0,0.0,0.0,0.0,0.0,0.0,0.0,0.0,0.0,0.0,0.0,0.0,0.0,0.0,0.0,0.0,0.0,1.901,1.8765,0.0,0.0,0.0,0.0,0.0,0.0,0.0,0.0,0.0,0.0,0.0,0.0,0.0,1.7923,1.4914,1.6127,1.5902,1.4242,1.2697,1.2577,1.3885,1.102,1.0543,1.1856,1.0422,0.0,0.9822,0.9822,0.0,0.0,0.0,0.0,0.0,0.0,0.0,0.0,0.0,0.0,0.0,0.0,0.0,0.0,0.0,0.0,0.0,0.0,0.0,0.0,0.0,0.0,1.0446,1.0493,1.0602,1.0558,0.0,1.0054,0.9952,0.9946,1.0352,0.0,0.0,0.0,0.0,0.0,0.0,0.0,1.0717,1.0717,1.0717,1.0717,1.0717,1.0717,1.0717,1.0717,1.0731,1.0751,1.0731,1.0744,1.0665,1.0672,0.0,0.0,0.0,0.0,0.0,0.0,0.0,0.0,0.0,0.0,0.0,0.0,0.0,0.0,0.0,0.0,0.0,0.0,0.0,0.0,0.0,0.0,0.0,0.0,0.0,0.0,0.0,0.0,0.0,1.7572,1.8402,1.9243,1.8648,1.8402,0.0,0.0,0.0,0.0,0.0,0.0,0.0,0.0,0.0,1.8402,1.901,1.8765,1.7337,1.7091,1.6609,1.5902,1.3407,1.2577,1.3168,1.0899,1.0179,1.0778,1.0058,0.9822,0.9822,0.9822,0.9822,0.9822,0.0,0.0,0.0,0.0,0.9822,0.9822,0.9822,0.9822,0.9822,0.9822,0.0,0.0,0.0,0.0,0.0,0.0,0.0,0.0,0.0,0.0,1.0514,1.0602,1.067,1.0717,1.0717,1.0738,1.0751,0.0,1.0738,1.0731,1.0724,0.0,0.0,0.0,0.0,1.0717,1.0717,1.0717,1.0717,1.0717,1.0717,1.0717,1.0717,1.0717,1.0731,1.0751,1.0731,1.0738,1.0638,1.0658,0.8344,0.0,0.0,0.0,0.0,0.0,0.0,0.0,0.0,0.0,0.0,0.0,0.0,0.0,0.0,0.0,0.0,0.0,0.0,0.0,0.0,0.0,0.0,0.0,0.0,0.0,0.0,0.0,0.0,1.7572,1.8052,1.9243,1.8286,1.804,0.0,0.0,0.0,0.0,0.0,0.0,1.9372,1.9372,1.9372,1.9372,1.9372,1.9372,1.9372,1.8169,1.7572,1.7572,1.4708,1.3407,1.3407,1.1374,1.0422,1.0422,0.9943,0.9822,0.9822,0.9822,0.9822,0.9822,0.9822,0.9822,0.9822,0.9822,0.9822,0.9822,0.9822,0.9822,0.9822,0.9822,0.9849,0.9883,0.9924,0.0,0.0,0.0,0.0,1.0371,1.0514,1.0548,1.0582,1.0697,1.0717,1.0717,1.0717,1.0717,1.0717,0.0,1.0717,1.0717,1.0717,0.0,0.0,0.0,1.0717,1.0717,1.0717,1.0717,1.0717,1.0717,1.0717,1.0717,1.0717,1.0717,1.0731,1.0751,1.0738,1.0738,1.0751,1.0658,0.9029,0.5499,0.0,0.0,0.0,0.0,0.0,0.0,0.0,0.0,0.0,0.0,0.0,0.0,0.0,0.0,0.0,0.0,0.0,0.0,0.0,0.0,0.0,0.0,0.0,0.0,0.0,0.0,0.0,0.0,0.0,1.9372,1.9372,0.0,0.0,0.0,0.0,1.9372,1.9372,1.9372,1.9372,1.9372,1.9372,1.9372,1.9372,1.9372,1.9372,1.9359,1.9243,1.9243,1.756,1.6727,1.6609,1.3517,1.2097,1.1976,1.0422,0.9822,0.9822,0.9822,0.9822,0.9822,0.9822,0.9822,0.9822,0.9822,0.9822,0.9822,0.9822,0.9822,0.9822,0.9822,0.9917,1.0066,1.0215,1.0263,0.0,0.0,1.048,1.0514,1.067,1.0711,1.0711,1.0717,1.0717,1.0717,1.0717,1.0717,1.0717,0.0,1.0717,1.0717,1.0717,0.0,1.0717,1.0717,1.0717,1.0717,1.0717,1.0717,1.0717,1.0717,1.0717,1.0717,1.0717,1.0717,1.0731,1.0751,1.0751,1.0751,1.0751,1.0678,0.9046,0.5499,0.1881,0.0,0.0,0.0,0.0,0.0,0.0,0.0,0.0,0.0,0.0,0.0,0.0,0.0,0.0,0.0,0.0,0.0,0.0,0.0,0.0,0.0,0.0,0.0,0.0,0.0,0.0,0.0,0.0,1.9372,1.9372,0.0,1.9372,1.9372,1.9372,1.9372,1.9372,1.9372,1.9372,1.9372,1.9372,1.9372,1.9372,1.9372,1.9372,1.9372,1.9372,1.9359,1.7806,1.6962,1.6962,1.4718,1.3168,1.2217,1.1615,1.0778,0.9822,0.9822,0.9822,0.9822,0.9822,0.9822,0.9822,0.9822,0.9822,0.9822,0.9822,0.9883,0.9985,1.0086,1.0154,1.0222,1.0371,1.0419,1.0446,1.0595,1.0636,1.0649,1.0704,1.0717,1.0717,1.0717,1.0717,1.0717,1.0717,1.0717,1.0717,1.0717,1.0717,1.0717,1.0717,1.0717,1.0717,1.0717,1.0717,1.0717,1.0717,1.0717,1.0758,1.086,1.0867,1.0907,1.0995,1.1002,1.1016,1.0906,1.0906,1.0873,1.107,1.0826,1.0103,0.8773,0.2959,0.0,0.0,0.0,0.0,0.0,0.0,0.0,0.0,0.0,0.0,0.0,0.0,0.0,0.0,0.0,0.0,0.0,0.0,0.0,0.0,0.0,0.0,0.0,0.0,0.0,0.0,1.8765,1.9372,1.9372,1.9372,1.9372,1.9372,1.9372,1.9372,1.9372,1.9372,1.9372,1.9372,1.9372,1.9372,1.9372,1.9372,1.9372,1.9372,1.9372,1.9372,1.9372,1.8286,1.756,1.6962,1.5902,1.4242,1.2217,1.2217,1.1261,0.9822,0.9822,0.9849,0.989,0.9842,0.9822,0.9829,0.9876,0.9897,0.9903,0.9958,1.0046,1.0154,1.0304,1.0351,1.0378,1.0527,1.0568,1.0588,1.069,1.0717,1.0717,1.0717,1.0717,1.0717,1.0717,1.0717,1.0717,1.0717,1.0717,1.0717,1.0717,1.0717,1.0717,1.0717,1.0717,1.0717,1.0717,1.0717,1.0717,1.0717,1.0765,1.0833,1.0941,1.0989,1.1056,1.1151,1.1165,1.1172,1.1054,1.1074,1.104,1.109,1.0849,1.0665,1.065,0.3643,0.0,0.0,0.0,0.0,0.0,0.0,0.0,0.0,0.0,0.0,0.0,0.0,0.0,0.0,0.0,0.0,0.0,0.0,0.0,0.0,0.0,0.0,0.0,0.0,0.0,1.9372,1.9372,1.9372,1.9372,1.9372,1.9372,1.9372,1.9372,1.9372,1.9372,1.9372,1.9372,1.9372,1.9372,1.9372,1.9372,1.9372,1.9372,1.9372,1.9372,1.9372,1.9372,1.9372,1.8519,1.7079,1.6962,1.53,1.2217,1.2217,1.1269,0.9829,0.9836,0.9924,1.0039,0.989,0.9829,0.9849,1.0005,1.0059,1.008,1.0236,1.029,1.031,1.0453,1.05,1.0527,1.0677,1.0717,1.0717,1.0717,1.0717,1.0717,1.0717,1.0717,1.0717,1.0717,1.0717,1.0717,1.0717,1.0717,1.0717,1.0717,1.0717,1.0717,1.0717,1.0717,1.0717,1.0717,1.0724,0.0,1.0724,1.086,1.0955,1.0962,1.109,1.1172,1.1179,1.1179,1.1179,1.1179,1.1233,1.1107,1.0796,1.0582,1.0398,1.0378,0.3528,0.0,0.0,0.0,0.0,0.0,0.0,0.0,0.0,0.0,0.0,0.0,0.0,0.0,0.0,0.0,0.0,0.0,0.0,0.0,0.0,0.0,0.0,0.0,1.9372,1.9372,1.9372,1.9372,1.9372,1.9372,1.9372,1.9372,1.9372,1.9372,1.9372,1.9372,1.9372,1.9372,1.9372,1.9372,1.9372,1.9372,1.9372,1.9372,1.9372,1.9372,1.9372,1.9372,1.9372,1.9127,1.8648,1.756,1.5902,1.3894,1.2847,1.1448,0.9992,1.0107,1.0181,1.0202,1.0046,1.0053,1.0161,1.0202,1.0215,1.0236,1.0385,1.0432,1.046,1.0609,1.0656,1.0663,1.0711,1.0717,1.0717,1.0717,1.0717,1.0717,1.0717,1.0717,1.0717,1.0717,1.0717,1.0717,1.0717,1.0717,1.0717,1.0717,1.0717,1.0717,1.0717,1.0717,1.0717,1.0717,1.0812,0.0,1.0887,1.1016,1.1145,1.126,1.1307,1.1375,1.1484,1.1497,1.1497,1.1497,1.1525,1.0185,0.7371,0.4537,0.2964,0.293,0.0963,0.0,0.0,0.0,0.0,0.0,0.0,0.0,0.0,0.0,0.0,0.0,0.0,0.0,0.0,0.0,0.0,0.0,0.0,0.0,0.0,0.0,0.0,0.0,1.9372,1.9372,1.9372,1.9372,1.9372,1.9372,1.9372,1.9372,1.9372,1.9372,1.9372,1.9372,1.9372,1.9372,1.9372,1.9372,1.9372,1.9372,1.9372,1.9372,1.9372,1.9372,1.9372,1.9372,1.9492,1.9546,1.9546,1.8695,1.7051,1.4882,1.4033,1.2242,1.0154,1.0243,1.0317,0.0,0.0,0.0,0.0,0.0,1.0412,1.0473,1.0561,1.0588,1.0602,1.069,1.0717,1.0717,1.0717,1.0717,1.0717,1.0717,1.0717,1.0717,1.0717,1.0717,1.0717,1.0717,1.0717,1.0717,1.0717,1.0717,1.0717,1.0717,1.0717,0.0,1.0717,1.0717,1.0744,1.0806,1.0894,1.0968,1.1029,1.1165,1.1294,1.1382,1.145,1.1525,1.1613,1.1619,0.0,0.0,0.0,0.9125,0.3588,0.1144,0.0,0.0,0.0,0.0,0.0,0.0,0.0,0.0,0.0,0.0,0.0,0.0,0.0,0.0,0.0,0.0,0.0,0.0,0.0,0.0,0.0,0.0,0.0,0.0,0.0,0.0,1.9372,1.9372,1.9372,1.9372,1.9372,1.9372,1.9372,1.9372,1.9372,1.9372,1.9372,1.9372,1.9372,1.9372,1.9372,1.9372,0.0,0.0,0.0,1.9386,1.9412,1.9412,1.9439,1.9466,1.972,1.9853,1.9853,1.9866,1.8239,1.5256,1.5152,1.3304,1.0304,1.0324,1.0405,1.0507,1.0378,1.0331,1.0344,1.0473,1.0602,1.0717,1.0717,0.0,0.0,1.0717,1.0717,1.0717,1.0717,1.0717,1.0717,1.0717,1.0717,1.0717,1.0717,1.0717,1.0717,1.0717,1.0717,1.0717,1.0717,1.0717,1.0717,1.0717,1.0717,1.0724,1.0744,1.0744,1.0792,1.0928,1.0975,1.1043,1.1172,1.1321,1.1416,1.1416,0.0,0.0,1.1619,1.1619,1.1619,1.1619,1.1647,0.8285,0.1016,0.0288,0.0,0.0,0.0,0.0,0.0,0.0,0.0,0.0,0.0,0.0,0.0,0.0,0.0,0.0,0.0,0.0,0.0,0.0,0.0,0.0,0.0,0.0,0.0,0.0,0.0,1.9372,1.9372,1.9372,1.9372,1.9372,1.9372,1.9372,1.9372,1.9372,1.9372,1.9372,1.9372,1.9372,1.9372,1.9372,1.9372,1.9372,1.9372,1.9372,1.9372,1.9479,1.972,1.972,1.9826,2.0067,2.012,0.0,2.0026,1.8838,1.7234,1.5256,1.4051,1.2355,1.046,1.0582,1.0649,1.067,1.0643,1.0636,1.0636,1.0663,1.0697,1.0717,1.0717,1.0717,1.0717,1.0717,1.0717,1.0717,1.0717,1.0717,0.0,1.0717,1.0717,1.0717,1.0717,1.0717,1.0717,1.0717,1.0717,1.0717,1.0717,1.0717,1.0717,1.0717,1.0717,1.0758,1.088,1.0907,1.0914,1.0941,1.1151,1.1314,1.1341,1.1484,1.1572,1.1572,1.1599,1.1619,1.1619,1.1619,1.1619,1.1619,1.1667,0.9474,0.4936,0.1598,0.0,0.0,0.0,0.0,0.0,0.0,0.0,0.0,0.0,0.0,0.0,0.0,0.0,0.0,0.0,0.0,0.0,0.0,0.0,0.0,0.0,1.9372,1.9372,0.0,1.9372,1.9372,1.9372,1.9372,1.9372,1.9492,1.9533,1.9386,1.9372,1.9372,1.9372,1.9372,1.9426,1.9573,1.9586,1.9653,1.9786,1.98,1.98,1.98,1.98,1.9867,2.0013,2.0013,2.0094,2.0227,2.0388,2.0454,2.0454,1.9846,1.85,1.6855,1.5189,1.357,1.1904,1.108,1.0717,1.0717,1.0717,1.0717,1.0717,1.0717,1.0717,1.0717,1.0717,1.0717,1.0717,1.0717,1.0717,1.0717,1.0717,1.0717,1.0717,1.0717,1.0717,1.0717,1.0717,1.0717,1.0717,1.0717,1.0717,1.0717,1.0717,1.0717,1.0717,1.0717,1.0717,1.0772,1.0921,1.1009,1.1084,1.1158,1.1294,1.1416,1.1497,1.1572,1.1619,1.1619,1.1619,1.1619,1.1619,1.1619,1.1619,1.1619,1.166,0.9908,0.5956,0.2036,0.0,0.0,0.0,0.0,0.0,0.0,0.0,0.0,0.0,0.0,0.0,0.0,0.0,0.0,0.0,0.0,0.0,1.9372,1.9372,1.9372,1.9372,1.9372,1.9372,1.9372,1.9386,1.9439,1.9452,1.9466,1.9533,1.9733,1.98,1.9559,1.9533,1.9533,1.9533,1.9533,1.9639,1.9867,1.988,1.9987,2.0227,2.0227,2.0227,2.0227,2.0227,2.0267,2.0321,2.0321,2.0347,2.0401,2.0641,2.0762,2.0775,2.1002,2.0195,1.8372,1.6302,1.4362,1.2676,1.124,1.0717,1.0717,1.0717,1.0717,1.0717,1.0717,1.0717,1.0717,1.0717,1.0717,1.0717,1.0717,1.0717,1.0717,1.0717,1.0717,1.0717,1.0717,1.0717,1.0717,1.0717,1.0717,1.0717,1.0717,1.0717,1.0717,1.0717,1.0717,1.0717,1.0717,1.0744,1.0812,1.0962,1.1111,1.1246,1.1369,1.1416,1.1484,1.1606,1.1619,1.1619,1.1619,1.1619,1.1619,1.1619,1.1619,1.1619,1.1619,1.164,1.0185,0.7123,0.2468,0.0,0.0,0.0,0.0,0.0,0.0,0.0,0.0,0.0,0.0,1.9372,1.9372,1.9372,1.9372,1.9372,1.9372,0.0,1.9372,1.9372,1.9372,1.9372,1.9372,1.9372,1.9372,1.9452,1.9706,1.976,1.984,2.0094,2.016,2.0174,2.0134,2.0134,2.0134,2.0134,2.0134,2.0147,2.0187,2.0187,2.0201,2.0227,2.0227,2.0227,2.0227,2.0227,2.0361,2.0628,2.0628,2.0748,2.1015,2.1042,2.1069,2.1069,2.1096,2.0195,1.8372,1.5005,1.2545,1.0982,1.0717,1.0717,1.0717,1.0717,1.0717,1.0717,1.0717,1.0717,1.0717,1.0717,1.0717,1.0717,1.0717,1.0717,1.0717,1.0717,1.0717,1.0717,1.0717,1.0717,1.0717,1.0717,1.0717,1.0717,1.0717,1.0717,1.0717,1.0717,1.0717,1.0717,1.0717,1.0833,1.0968,1.1118,1.1267,1.1369,1.1389,1.1504,1.1599,1.1619,1.1619,1.1619,1.1619,1.1619,1.1619,1.1619,1.1619,1.1619,1.1619,1.164,1.1372,1.0964,0.3923,0.0,0.0,0.0,0.0,0.0,0.0,0.0,0.0,0.0,0.0,1.9372,1.9372,1.9372,1.9372,1.9372,1.9372,1.9372,1.9372,1.9372,1.9372,1.9372,1.9412,1.9586,1.9626,1.972,2.0,2.0054,2.0094,2.0214,2.0374,2.0494,2.0494,2.0641,2.0615,2.0267,2.0227,2.0307,2.0481,2.0494,2.0561,2.0735,2.0748,2.0748,2.0748,2.0748,2.0802,2.0922,2.0922,2.0989,2.1109,2.1109,2.1109,2.1109,2.1109,2.0195,1.8372,1.5913,1.384,1.215,1.1115,1.0717,1.0717,1.0717,1.0717,1.0717,1.0717,1.0717,1.0717,1.0717,1.0717,1.0717,1.0717,1.0717,1.0717,1.0717,1.0717,1.0717,1.0717,1.0717,1.0717,1.0717,1.0717,1.0717,1.0717,1.0717,1.0717,1.0717,1.0717,1.0744,1.0833,1.0907,1.1023,1.1253,1.1348,1.1423,1.1511,1.1579,1.1619,1.1619,1.1619,1.1619,1.1619,1.1619,1.1619,1.1619,1.1619,1.1619,1.1619,1.1626,1.1647,1.1529,0.6246,0.2324,0.0,0.0,0.0,0.0,0.0,0.0,0.0,0.0,0.0,1.9372,1.9372,1.9372,1.9372,1.9372,1.9372,1.9372,1.9372,1.9386,1.9466,1.9492,1.9573,1.9867,1.992,2.0013,2.0307,2.0361,2.0388,2.0468,2.0655,2.0802,2.0802,2.0989,2.0935,2.0521,2.0468,2.0561,2.0775,2.0802,2.0895,2.1096,2.1109,2.1109,2.1109,2.1109,2.1109,2.1109,2.1109,2.1109,2.1109,2.1109,2.1109,2.1109,2.1109,2.0195,1.8384,1.6689,1.4884,1.3193,1.1372,1.0717,1.0717,1.0717,1.0717,1.0717,1.0717,1.0717,1.0717,1.0717,1.0717,1.0717,1.0717,1.0717,1.0717,1.0717,1.0717,1.0717,1.0717,1.0717,1.0717,1.0717,1.0717,1.0717,1.0717,1.0717,1.0717,1.0717,1.0751,1.0819,1.0928,1.1016,1.1138,1.1355,1.1423,1.1491,1.1606,1.1619,1.1619,1.1619,1.1619,1.1619,1.1619,1.1619,1.1619,1.1619,1.1619,1.1619,1.1619,1.1619,1.1626,1.1653,0.8868,0.5081,0.0145,0.0,0.0,0.0,0.0,0.0,0.0,0.0,0.0,1.9372,1.9372,1.9372,1.9372,1.9372,1.9372,1.9372,1.9372,1.9452,1.9733,1.9786,1.988,2.0174,2.0214,2.0321,2.0615,2.0655,2.0762,2.1042,2.1096,2.1096,2.1096,2.1109,2.1096,2.1082,2.1082,2.1082,2.1096,2.1096,2.1096,2.1109,2.1109,2.1109,2.1109,2.1109,2.1109,2.1109,2.1109,2.1109,2.1109,2.1109,2.1109,2.1109,2.1109,2.0195,1.8384,1.6689,1.4884,1.3193,1.1372,1.0717,1.0717,1.0717,1.0717,1.0717,1.0717,1.0717,1.0717,1.0717,1.0717,1.0717,1.0717,1.0717,1.0717,1.0717,1.0717,1.0717,1.0717,1.0717,1.0717,1.0717,1.0717,1.0717,1.0717,1.0717,1.0717,1.0717,1.0833,1.0941,1.0948,1.1179,1.1382,1.1389,1.1511,1.1613,1.1619,1.1619,1.1619,1.1619,1.1619,1.1619,1.1619,1.1619,1.1619,1.1619,1.1619,1.1619,1.1619,1.1619,1.1626,1.1653,1.1509,0.7842,0.0145,0.0,0.0,0.0,0.0,0.0,0.0,0.0,0.0,1.9372,1.9372,1.9372,1.9372,1.9372,1.9372,1.9372,1.9519,1.9679,1.9773,1.9947,2.0174,2.0468,2.0535,2.0628,2.0922,2.0962,2.1002,2.1096,2.1109,2.1109,2.1109,2.1109,2.1109,2.1109,2.1109,2.1109,2.1109,2.1109,2.1109,2.1109,2.1109,2.1109,2.1109,2.1109,2.1109,2.1109,2.1109,2.1109,2.1109,2.1109,2.1109,2.1109,2.1109,2.0716,2.0068,1.8372,1.6689,1.4874,1.3193,1.1762,1.0717,1.0717,1.0717,1.0717,1.0717,1.0717,1.0717,1.0717,1.0717,1.0717,1.0717,1.0717,1.0717,1.0717,1.0717,1.0717,1.0717,1.0717,1.0717,1.0717,1.0717,1.0717,1.0717,1.0717,1.0751,1.0853,1.0914,1.1009,1.1206,1.1321,1.1423,1.1525,1.1586,1.1619,1.1619,1.1619,1.1619,1.1619,1.1619,1.1619,1.1619,1.1619,1.1619,1.1619,1.1619,1.1619,1.1619,1.1619,1.1619,1.1633,1.1647,1.0342,0.772,0.2615,0.0,0.0,0.0,0.0,0.0,0.0,0.0,1.9372,1.9372,1.9372,1.9372,1.9452,1.9519,1.9519,1.9746,1.9987,2.0094,2.0267,2.0481,2.0775,2.0828,2.0895,2.1082,2.1109,2.1109,2.1109,2.1109,2.1109,2.1109,2.1109,2.1109,2.1109,2.1109,2.1109,2.1109,2.1109,2.1109,2.1109,2.1109,2.1109,2.1109,2.1109,2.1109,2.1109,2.1109,2.1109,2.1109,2.1109,2.1109,2.1109,2.1109,2.1109,2.0982,1.9291,1.7859,1.6689,1.4232,1.2676,1.1637,1.0982,1.0717,1.0717,1.0717,1.0717,1.0717,1.0717,1.0717,1.0717,1.0717,1.0717,1.0717,1.0717,1.0717,1.0717,1.0717,1.0717,1.0717,1.0717,1.0717,1.0717,1.0717,1.0765,1.0826,1.0928,1.1029,1.1165,1.1355,1.1436,1.1504,1.1599,1.1619,1.1619,1.1619,1.1619,1.1619,1.1619,1.1619,1.1619,1.1619,1.1619,1.1619,1.1619,1.1619,1.1619,1.1619,1.1619,1.1619,1.1619,1.1633,1.166,1.1563,0.5377,0.1455,0.0,0.0,0.0,0.0,0.0,0.0,1.9372,1.9372,1.9372,1.9386,1.9599,1.98,1.9813,2.004,2.0334,2.0615,2.0681,2.0775,2.1056,2.1109,2.1109,2.1109,2.1109,2.1109,2.1109,2.1109,2.1109,2.1109,2.1109,2.1109,2.1109,2.1109,2.1109,2.1109,2.1109,2.1109,2.1109,2.1109,2.1109,2.1109,2.1109,2.1109,2.1109,2.1109,2.1109,2.1109,2.1109,2.1109,2.1109,2.1109,2.1109,2.0982,1.9291,1.864,1.8244,1.4874,1.3447,1.3325,1.163,1.085,1.085,1.085,1.0717,1.0717,1.0717,1.0717,1.0717,1.0717,1.0717,1.0717,1.0717,1.0717,1.0717,1.0717,1.0717,1.0717,1.0717,1.0724,1.0731,1.0731,1.0846,1.0962,1.0968,1.1192,1.1396,1.1402,1.1518,1.1619,1.1619,1.1619,1.1619,1.1619,1.1619,1.1619,1.1619,1.1619,1.1619,1.1619,1.1619,1.1619,1.1619,1.1619,1.1619,1.1619,1.1619,1.1619,1.1619,1.1619,1.1647,1.1556,0.7711,0.3925,0.0,0.0,0.0,0.0,0.0,0.0,1.9372,1.9372,1.9412,1.9639,1.9746,1.9853,2.0067,2.0347,2.0588,2.0655,2.0855,2.1029,2.1096,2.1109,2.1109,2.1109,2.1109,2.1109,2.1109,2.1109,2.1109,2.1109,2.1109,2.1109,2.1109,2.1109,2.1109,2.1109,2.1109,2.1109,2.1109,2.1109,2.1109,2.1109,2.1109,2.1109,2.1109,2.1109,2.1109,2.1109,2.1109,2.1109,2.1109,2.1109,2.1109,2.1109,2.0589,1.9674,1.8384,1.7602,1.6431,1.5135,1.4754,1.384,1.2676,1.2676,1.1762,1.0717,1.0717,1.0717,1.0717,1.0717,1.0717,1.0717,1.0717,1.0717,1.0717,1.0717,1.0717,1.0717,1.0717,1.0806,1.0894,1.0894,1.1002,1.1138,1.1253,1.1335,1.1423,1.1538,1.1592,1.1619,1.1619,1.1619,1.1619,1.1619,1.1619,1.1619,1.1619,1.1619,1.1619,1.1619,1.1619,1.1619,1.1619,1.1619,1.1619,1.1619,1.1619,1.1619,1.1619,1.1619,1.1633,1.1667,0.7847,0.3921,0.0,0.0,0.0,0.0,0.0,0.0,1.9519,1.9559,1.9626,1.992,2.0094,2.0227,2.0388,2.0655,2.0869,2.0869,2.1002,2.1109,2.1109,2.1109,2.1109,2.1109,2.1109,2.1109,2.1109,2.1109,2.1109,2.1109,2.1109,2.1109,2.1109,2.1109,2.1109,2.1109,2.1109,2.1109,2.1109,2.1109,2.1109,2.1109,2.1109,2.1109,2.1109,2.1109,2.1109,2.1109,2.1109,2.1109,2.1109,2.1109,2.1109,2.1109,2.1109,2.0589,1.9546,1.8768,1.7859,1.6947,1.6172,1.5265,1.4493,1.4493,1.384,1.2931,1.2931,1.2931,1.2668,1.124,1.0717,1.0717,1.0717,1.0717,1.0717,1.0717,1.0717,1.0738,1.0806,1.088,1.0962,1.1029,1.1151,1.1287,1.1369,1.1443,1.1518,1.1606,1.1619,1.1619,1.1619,1.1619,1.1619,1.1619,1.1619,1.1619,1.1619,1.1619,1.1619,1.1619,1.1619,1.1619,1.1619,1.1619,1.1619,1.1619,1.1619,1.1619,1.1619,1.1619,1.1626,1.1653,0.9463,0.5525,0.0,0.0,0.0,0.0,0.0,0.0,1.9786,1.9853,1.992,2.0214,2.0481,2.0681,2.0722,2.0922,2.1109,2.1109,2.1109,2.1109,2.1109,2.1109,2.1109,2.1109,2.1109,2.1109,2.1109,2.1109,2.1109,2.1109,2.1109,2.1109,2.1109,2.1109,2.1109,2.1109,2.1109,2.1109,2.1109,2.1109,2.1109,2.1109,2.1109,2.1109,2.1109,2.1109,2.1109,2.1109,2.1109,2.1109,2.1109,2.1109,2.1109,2.1109,2.1109,2.1109,2.0982,1.9419,1.8896,1.864,1.7216,1.6431,1.6302,1.6302,1.6043,1.5913,1.5913,1.5913,1.5394,1.2413,1.1372,1.1372,1.1115,1.1115,1.0982,1.0744,1.0751,1.0785,1.0941,1.0995,1.1036,1.1165,1.1307,1.1423,1.1423,1.1525,1.1619,1.1619,1.1619,1.1619,1.1619,1.1619,1.1619,1.1619,1.1619,1.1619,1.1619,1.1619,1.1619,1.1619,1.1619,1.1619,1.1619,1.1619,1.1619,1.1619,1.1619,1.1619,1.1619,1.1619,1.1626,1.1647,1.1543,0.8015,0.0726,0.0291,0.0,0.0,0.0,0.0,2.0147,2.016,2.0227,2.0521,2.0641,2.0735,2.0975,2.1069,2.1109,2.1109,2.1109,2.1109,2.1109,2.1109,2.1109,2.1109,2.1109,2.1109,2.1109,2.1109,2.1109,2.1109,2.1109,2.1109,2.1109,2.1109,2.1109,2.1109,2.1109,2.1109,2.1109,2.1109,2.1109,2.1109,2.1109,2.1109,2.1109,2.1109,2.1109,2.1109,2.1109,2.1109,2.1109,2.1109,2.1109,2.1109,2.1109,2.1109,2.1109,2.0716,2.0589,2.0589,2.0322,1.9291,1.7988,1.7988,1.7087,1.5913,1.5913,1.5913,1.5784,1.5135,1.5005,1.4754,1.3325,1.28,1.2576,1.127,1.0907,1.0941,1.109,1.1219,1.1321,1.1348,1.147,1.1579,1.1579,1.1599,1.1619,1.1619,1.1619,1.1619,1.1619,1.1619,1.1619,1.1619,1.1619,1.1619,1.1619,1.1619,1.1619,1.1619,1.1619,1.1619,1.1619,1.1619,1.1619,1.1619,1.1619,1.1619,1.1619,1.1619,1.1619,1.1626,1.1536,0.9334,0.4791,0.1602,0.0,0.0,0.0,0.0,2.0414,2.0468,2.0535,2.0828,2.0895,2.0935,2.1082,2.1109,2.1109,2.1109,2.1109,2.1109,2.1109,2.1109,2.1109,2.1109,2.1109,2.1109,2.1109,2.1109,2.1109,2.1109,2.1109,2.1109,2.1109,2.1109,2.1109,2.1109,2.1109,2.1109,2.1109,2.1109,2.1109,2.1109,2.1109,2.1109,2.1109,2.1109,2.1109,2.1109,2.1109,2.1109,2.1109,2.1109,2.1109,2.1109,2.1109,2.1109,2.1109,2.1109,2.1109,2.1109,2.1109,2.0589,1.9814,1.9814,1.9291,1.864,1.864,1.864,1.864,1.864,1.7345,1.5784,1.4884,1.4828,1.48,1.3979,1.3806,1.4061,1.425,1.3539,1.2935,1.2879,1.2266,1.1619,1.1619,1.1619,1.1619,1.1619,1.1619,1.1619,1.1619,1.1619,1.1619,1.1619,1.1619,1.1619,1.1619,1.1619,1.1619,1.1619,1.1619,1.1619,1.1619,1.1619,1.1619,1.1619,1.1619,1.1619,1.1619,1.1619,1.1619,1.1619,1.166,0.9613,0.5808,0.189,0.0,0.0,0.0,0.0,2.0708,2.0775,2.0828,2.1056,2.1109,2.1109,2.1109,2.1109,2.1109,2.1109,2.1109,2.1109,2.1109,2.1109,2.1109,2.1109,2.1109,2.1109,2.1109,2.1109,2.1109,2.1109,2.1109,2.1109,2.1109,2.1109,2.1109,2.1109,2.1109,2.1109,2.1109,2.1109,2.1109,2.1109,2.1109,2.1109,2.1109,2.1109,2.1109,2.1109,2.1109,2.1109,2.1109,2.1109,2.1109,2.1109,2.1109,2.1109,2.1109,2.1109,2.1109,2.1109,2.1109,2.1109,2.1109,2.1109,2.1109,2.1109,2.1109,2.1109,2.1122,2.1189,1.9377,1.7033,1.6634,1.6802,1.6992,1.6645,1.6654,1.6838,1.7062,1.6015,1.4806,1.4531,1.3031,1.1619,1.1619,1.1619,1.1619,1.1619,1.1619,1.1619,1.1619,1.1619,1.1619,1.1619,1.1619,1.1619,1.1619,1.1619,1.1619,1.1619,1.1619,1.1619,1.1619,1.1619,1.1619,1.1619,1.1619,1.1619,1.1619,1.1619,1.1619,1.1619,1.164,1.0041,0.6978,0.2323,0.0,0.0,0.0,0.0,2.1056,2.1069,2.1082,2.1096,2.1109,2.1109,2.1109,2.1109,2.1109,2.1109,2.1109,2.1109,2.1109,2.1109,2.1109,2.1109,2.1109,2.1109,2.1109,2.1109,2.1109,2.1109,2.1109,2.1109,2.1109,2.1109,2.1109,2.1109,2.1109,2.1109,2.1109,2.1109,2.1109,2.1109,2.1109,2.1109,2.1109,2.1109,2.1109,2.1109,2.1109,2.1109,2.1109,2.1109,2.1109,2.1109,2.1109,2.1109,2.1109,2.1109,2.1109,2.1109,2.1109,2.1109,2.1109,2.1109,2.1109,2.1109,2.1109,2.1109,2.1149,2.143,2.1381,2.0722,1.9256,1.8909,1.8887,1.7339,1.7001,1.7072,1.7157,1.7077,1.6525,1.4849,1.3031,1.1619,1.1619,1.1619,1.1619,1.1619,1.1619,1.1619,1.1619,1.1619,1.1619,1.1619,1.1619,1.1619,1.1619,1.1619,1.1619,1.1619,1.1619,1.1619,1.1619,1.1619,1.1619,1.1619,1.1619,1.1619,1.1619,1.1619,1.1619,1.1619,1.164,1.1378,1.1108,0.3633,0.0,0.0,0.0,0.0,2.1109,2.1109,2.1109,2.1109,2.1109,2.1109,2.1109,2.1109,2.1109,2.1109,2.1109,2.1109,2.1109,2.1109,2.1109,2.1109,2.1109,2.1109,2.1109,2.1109,2.1109,2.1109,2.1109,2.1109,2.1109,2.1109,2.1109,2.1109,2.1109,2.1109,2.1109,2.1109,2.1109,2.1109,2.1109,2.1109,2.1109,2.1109,2.1109,2.1109,2.1109,2.1109,2.1109,2.1109,2.1109,2.1109,2.1109,2.1109,2.1109,2.1109,2.1109,2.1109,2.1109,2.1109,2.1109,2.1109,2.1109,2.1136,2.1309,2.1376,2.143,2.1724,2.1937,2.1899,2.1056,2.0933,2.1028,2.0453,2.0464,2.0622,2.0593,1.9773,1.8508,1.6545,1.4716,1.3309,1.3309,1.2466,1.1619,1.1619,1.1619,1.1619,1.1619,1.1619,1.1619,1.1619,1.1619,1.1619,1.1619,1.1619,1.1619,1.1619,1.1619,1.1619,1.1619,1.1619,1.1619,1.1619,1.1619,1.1619,1.1619,1.1619,1.1619,1.1619,1.1626,1.1647,1.1529,0.6101,0.2324,0.0,0.0,0.0,2.1109,2.1109,2.1109,2.1109,2.1109,2.1109,2.1109,2.1109,2.1109,2.1109,2.1109,2.1109,2.1109,2.1109,2.1109,2.1109,2.1109,2.1109,2.1109,2.1109,2.1109,2.1109,2.1109,2.1109,2.1109,2.1109,2.1109,2.1109,2.1109,2.1109,2.1109,2.1109,2.1109,2.1109,2.1109,2.1109,2.1109,2.1109,2.1109,2.1109,2.1109,2.1109,2.1109,2.1109,2.1109,2.1109,2.1109,2.1109,2.1109,2.1109,2.1109,2.1109,2.1109,2.1109,2.1122,2.1203,2.1243,2.1283,2.1577,2.1683,2.1724,2.2017,2.2258,2.2392,2.2285,2.2392,2.2552,2.2552,2.2699,2.2859,2.2859,2.1459,1.9773,1.8369,1.6545,1.5132,1.4574,1.3309,1.2323,1.1763,1.1619,1.1619,1.1619,1.1619,1.1619,1.1619,1.1619,1.1619,1.1619,1.1619,1.1619,1.1619,1.1619,1.1619,1.1619,1.1619,1.1619,1.1619,1.1619,1.1619,1.1619,1.1619,1.1619,1.1619,1.1619,1.1633,1.1653,0.8874,0.4939,0.0,0.0,0.0,2.1109,2.1109,2.1109,2.1109,2.1109,2.1109,2.1109,2.1109,2.1109,2.1109,2.1109,2.1109,2.1109,2.1109,2.1109,2.1109,2.1109,2.1109,2.1109,2.1109,2.1109,2.1109,2.1109,2.1109,2.1109,2.1109,2.1109,2.1109,2.1109,2.1109,2.1109,2.1109,2.1109,2.1109,2.1109,2.1109,2.1109,2.1109,2.1109,2.1109,2.1109,2.1109,2.1109,2.1109,2.1109,2.1109,2.1109,2.1109,2.1109,2.1109,2.1109,2.1109,2.1109,2.1109,2.1149,2.1443,2.155,2.159,2.1884,2.1977,2.2031,2.2325,2.2418,2.2472,2.2766,2.2859,2.2859,2.2859,2.2859,2.2859,2.2859,2.1459,2.0051,2.0063,1.8659,1.6685,1.4858,1.4432,1.3872,1.19,1.1619,1.1619,1.1619,1.1619,1.1619,1.1619,1.1619,1.1619,1.1619,1.1619,1.1619,1.1619,1.1619,1.1619,1.1619,1.1619,1.1619,1.1619,1.1619,1.1619,1.1619,1.1619,1.1619,1.1619,1.1619,1.1633,1.1653,1.1543,0.7575,0.0,0.0,0.0,2.1109,2.1109,2.1109,2.1109,2.1109,2.1109,2.1109,2.1109,2.1109,2.1109,2.1109,2.1109,2.1109,2.1109,2.1109,2.1109,2.1109,2.1109,2.1109,2.1109,2.1109,2.1109,2.1109,2.1109,2.1109,2.1109,2.1109,2.1109,2.1109,2.1109,2.1109,2.1109,2.1109,2.1109,2.1109,2.1109,2.1109,2.1109,2.1109,2.1109,2.1109,2.1109,2.1109,2.1109,2.1109,2.1109,2.1109,2.1109,2.1109,2.1109,2.1109,2.1109,2.1109,2.1229,2.143,2.1523,2.1683,2.1897,2.2178,2.2285,2.2325,2.2632,2.2726,2.2739,2.2832,2.2859,2.2859,2.2859,2.2859,2.2859,2.2859,2.2448,2.1734,2.0479,1.8659,1.6685,1.4858,1.3452,1.2323,1.1763,1.1619,1.1619,1.1619,1.1619,1.1619,1.1619,1.1619,1.1619,1.1619,1.1619,1.1619,1.1619,1.1619,1.1619,1.1619,1.1619,1.1619,1.1619,1.1619,1.1619,1.1619,1.1619,1.1619,1.1619,1.1619,1.1619,1.1626,1.1536,0.7584,0.0,0.0,0.0,2.1109,2.1109,2.1109,2.1109,2.1109,2.1109,2.1109,2.1109,2.1109,2.1109,2.1109,2.1109,2.1109,2.1109,2.1109,2.1109,2.1109,2.1109,2.1109,2.1109,2.1109,2.1109,2.1109,2.1109,2.1109,2.1109,2.1109,2.1109,2.1109,2.1109,2.1109,2.1109,2.1109,2.1109,2.1109,2.1109,2.1109,2.1109,2.1109,2.1109,2.1109,2.1109,2.1109,2.1109,2.1109,2.1109,2.1109,2.1109,0.0,2.1109,2.1176,2.1269,2.1269,2.1456,2.1724,2.1844,2.1991,2.2191,2.2485,2.2579,2.2619,2.2806,2.2859,2.2859,2.2859,2.2859,2.2859,2.2859,2.2859,2.2859,2.2859,2.2859,2.2585,2.1459,2.019,1.8648,1.5981,1.4583,1.3317,1.19,1.1619,1.1619,1.1619,1.1619,1.1619,1.1619,1.1619,1.1619,1.1619,1.1619,1.1619,1.1619,1.1619,1.1619,1.1619,1.1619,1.1619,1.1619,1.1619,1.1619,1.1619,1.1619,1.1619,1.1619,1.1619,1.1619,1.1619,1.0191,0.6116,0.0,0.0,0.0,0.0,2.1109,2.1109,2.1109,2.1109,2.1109,2.1109,2.1109,0.0,2.1109,2.1109,2.1109,2.1109,2.1109,2.1109,2.1109,2.1109,2.1109,2.1109,2.1109,2.1109,2.1109,2.1109,2.1109,2.1109,2.1109,2.1109,2.1109,2.1109,2.1109,2.1109,2.1109,2.1109,2.1109,2.1109,2.1109,2.1109,2.1109,2.1109,2.1109,2.1109,2.1109,2.1109,2.1109,2.1109,2.1109,2.1109,2.1122,2.1149,2.1149,2.1309,2.159,2.159,2.1764,2.2044,2.2311,2.2432,2.2485,2.2766,2.2859,2.2859,2.2859,2.2859,2.2859,2.2859,2.2859,2.2859,2.2859,2.2859,2.2859,2.2859,2.2859,2.2859,2.2722,2.2722,2.1734,1.7949,1.7117,1.599,1.2466,1.1763,1.1619,1.1619,1.1619,1.1619,1.1619,1.1619,1.1619,1.1619,1.1619,1.1619,1.1619,1.1619,1.1619,1.1619,1.1619,1.1619,1.1619,1.1619,1.1619,1.1619,1.1619,1.1619,1.1619,1.1619,1.1619,1.1626,0.7693,0.378,0.0,0.0,0.0,2.1109,0.0,2.1109,2.1109,2.1109,2.1109,0.0,2.1109,2.1109,2.1109,2.1109,2.1109,2.1109,2.1109,2.1109,2.1109,2.1109,2.1109,2.1109,2.1109,2.1109,2.1109,2.1109,2.1109,2.1109,2.1109,2.1109,2.1109,2.1109,2.1109,2.1109,2.1109,2.1109,2.1109,2.1109,2.1109,2.1109,2.1109,2.1109,2.1109,2.1109,2.1109,2.1109,2.1109,2.1109,2.1109,2.1109,2.1243,2.1443,2.1443,2.1617,2.1884,2.1884,2.2058,2.2325,2.2392,2.2565,2.2766,2.2832,2.2859,2.2859,2.2859,2.2859,2.2859,2.2859,2.2859,2.2859,2.2859,2.2859,2.2859,2.2859,2.2859,2.2585,2.1032,2.0756,2.0051,1.7669,1.6122,1.4858,1.3872,1.2602,1.1619,1.1619,1.1619,1.1619,1.1619,1.1619,1.1619,1.1619,1.1619,1.1619,1.1619,1.1619,1.1619,1.1619,1.1619,1.1619,1.1619,1.1619,1.1619,1.1619,1.1619,1.1619,1.1619,1.1619,1.164,1.1543,0.7706,0.378,0.0,0.0,0.0,2.1109,2.1109,2.1109,2.1109,2.1109,2.1109,2.1109,2.1109,2.1109,2.1109,2.1109,2.1109,2.1109,2.1109,2.1109,2.1109,2.1109,2.1109,2.1109,2.1109,2.1109,2.1109,2.1109,2.1109,2.1109,2.1109,2.1109,2.1109,2.1109,2.1109,2.1109,2.1109,2.1109,2.1109,2.1109,2.1109,2.1109,2.1109,2.1109,2.1109,2.1109,2.1109,2.1109,2.1109,2.1189,2.1309,2.1309,2.1483,2.175,2.175,2.1924,2.2178,2.2178,2.2365,2.2619,2.2619,2.2726,2.2859,2.2859,2.2859,2.2859,2.2859,2.2859,2.2859,2.2859,2.2859,2.2859,2.2859,2.2859,2.2859,2.2859,2.2859,2.2585,2.1596,2.1321,2.0894,1.8938,1.6967,1.5416,1.4574,1.2888,1.1619,1.1619,1.1619,1.1619,1.1619,1.1619,1.1619,1.1619,1.1619,1.1619,1.1619,1.1619,1.1619,1.1619,1.1619,1.1619,1.1619,1.1619,1.1619,1.1619,1.1619,1.1619,1.1619,1.1619,1.1647,1.1563,0.7711,0.378,0.0,0.0,0.0,2.1109,2.1109,2.1109,2.1109,2.1109,2.1109,2.1109,2.1109,2.1109,2.1109,2.1109,2.1109,2.1109,2.1109,2.1109,2.1109,2.1109,2.1109,2.1109,2.1109,2.1109,2.1109,2.1109,2.1109,2.1109,2.1109,2.1109,2.1109,2.1109,2.1109,2.1109,2.1109,2.1109,2.1109,2.1109,2.1109,2.1109,2.1109,2.1109,2.1109,2.1109,2.1136,2.1176,2.1176,2.1336,2.1617,2.1617,0.0,2.2044,2.2044,2.2231,2.2485,2.2485,2.2645,2.2859,2.2859,2.2859,2.2859,2.2859,2.2859,2.2859,2.2859,2.2859,2.2859,2.2859,2.2859,2.2859,2.2859,2.2859,2.2859,2.2859,2.2859,2.2859,2.2859,2.2859,2.2435,2.0894,1.9077,1.7107,1.5132,1.3309,1.19,1.1619,1.1619,1.1619,1.1619,1.1619,1.1619,1.1619,1.1619,1.1619,1.1619,1.1619,1.1619,1.1619,1.1619,1.1619,1.1619,1.1619,1.1619,1.1619,1.1619,1.1619,1.1619,1.1619,1.1647,1.1563,0.7711,0.378,0.0,0.0,0.0,2.1109,2.1109,2.1109,2.1109,2.1109,2.1109,2.1109,0.0,2.1109,2.1109,2.1109,2.1109,2.1109,2.1109,2.1109,2.1109,2.1109,2.1109,2.1109,2.1109,2.1109,2.1109,2.1109,2.1109,2.1109,2.1109,2.1109,2.1109,2.1109,2.1109,2.1109,2.1109,2.1109,2.1109,2.1109,2.1109,2.1109,2.1109,2.1109,2.1109,2.1109,2.1243,2.1483,2.1483,2.1643,2.1924,0.0,2.2084,2.2352,2.2352,2.2525,2.2792,2.2792,2.2819,2.2859,2.2859,2.2859,2.2859,2.2859,2.2859,2.2859,2.2859,2.2859,2.2859,2.2859,2.2859,2.2859,2.2859,2.2859,2.2859,2.2859,2.2859,2.2859,2.2859,2.2859,2.2859,2.2585,2.1032,1.9077,1.7107,1.5274,1.3452,1.19,1.1619,1.1619,1.1619,1.1619,1.1619,1.1619,1.1619,1.1619,1.1619,1.1619,1.1619,1.1619,1.1619,1.1619,1.1619,1.1619,1.1619,1.1619,1.1619,1.1619,1.1619,1.1619,1.1647,1.1563,0.7711,0.378,0.0,0.0,0.0,2.1109,2.1109,2.1109,2.1109,2.1109,2.1109,0.0,0.0,2.1109,2.1109,2.1109,2.1109,2.1109,2.1109,2.1109,2.1109,2.1109,2.1109,2.1109,2.1109,2.1109,2.1109,2.1109,2.1109,2.1109,2.1109,2.1109,2.1109,2.1109,2.1109,2.1109,2.1109,2.1109,2.1109,2.1109,2.1109,2.1109,2.1269,2.1349,2.1349,2.1349,2.151,2.179,2.179,2.1951,2.2218,0.0,2.2378,2.2659,2.2659,2.2739,2.2859,2.2859,2.2859,2.2859,2.2859,2.2859,2.2859,2.2859,2.2859,2.2859,2.2859,2.2859,2.2859,2.2859,2.2859,2.2859,2.2859,2.2859,2.2859,2.2859,2.2859,2.2859,2.2859,2.2859,2.2859,2.2859,2.1459,1.9495,1.7529,1.5698,1.3872,1.19,1.1619,1.1619,1.1619,1.1619,1.1619,1.1619,1.1619,1.1619,1.1619,1.1619,1.1619,1.1619,1.1619,1.1619,1.1619,1.1619,1.1619,1.1619,1.1619,1.1619,1.1619,1.1619,1.1647,1.1563,0.7711,0.378,0.0,0.0,0.0,2.1109,2.1109,2.1109,2.1109,2.1109,0.0,0.0,0.0,0.0,0.0,2.1109,2.1109,2.1109,2.1109,2.1109,2.1109,2.1109,2.1109,2.1109,2.1109,2.1109,2.1109,2.1109,2.1109,2.1109,2.1109,2.1109,2.1109,2.1109,2.1109,2.1109,2.1109,2.1109,2.1109,2.1176,2.1216,2.1216,2.151,2.1617,2.155,2.1617,2.1804,2.2084,2.2084,2.2245,2.2525,2.2525,2.2645,2.2859,2.2859,2.2859,2.2859,2.2859,2.2859,2.2859,2.2859,2.2859,2.2859,2.2859,2.2859,2.2859,2.2859,2.2859,2.2859,2.2859,2.2859,2.2859,2.2859,2.2859,2.2859,2.2859,2.2859,2.2859,2.2859,2.2859,2.2859,2.2859,2.1734,2.0051,1.7669,1.5981,1.429,1.2043,1.1619,1.1619,1.1619,1.1619,1.1619,1.1619,1.1619,1.1619,1.1619,1.1619,1.1619,1.1619,1.1619,1.1619,1.1619,1.1619,1.1619,1.1619,1.1619,1.1619,1.1619,1.1619,1.1647,1.1549,0.7711,0.3778,0.0,0.0,0.0,2.1109,2.1109,2.1109,2.1109,2.1109,0.0,2.1109,2.1109,0.0,2.1109,2.1109,2.1109,2.1109,2.1109,2.1109,2.1109,2.1109,2.1109,2.1109,2.1109,2.1109,2.1109,2.1109,2.1109,2.1109,2.1109,2.1109,2.1109,2.1109,2.1109,2.1109,2.1109,2.1109,2.1109,2.1376,2.1523,2.1523,2.1804,2.1817,2.155,2.183,2.2111,2.2392,2.2392,2.2552,2.2832,2.2832,2.2846,2.2859,2.2859,2.2859,2.2859,2.2859,2.2859,2.2859,2.2859,2.2859,2.2859,2.2859,2.2859,2.2859,2.2859,2.2859,2.2859,2.2859,2.2859,2.2859,2.2859,2.2859,2.2859,2.2859,2.2859,2.2859,2.2859,2.2859,2.2859,2.2859,2.2722,2.1596,1.7949,1.7107,1.5849,1.2187,1.1619,1.1619,1.1619,1.1619,1.1619,1.1619,1.1619,1.1619,1.1619,1.1619,1.1619,1.1619,1.1619,1.1619,1.1619,1.1619,1.1619,1.1619,1.1619,1.1619,1.1619,1.1619,1.1633,1.1653,0.7702,0.3776,0.0,0.0,0.0,2.1109,2.1109,2.1109,2.1109,2.1109,0.0,0.0,2.1109,2.1362,2.2466,2.1853,2.1475,2.2466,2.1853,2.1475,2.2466,2.1727,2.1475,2.2466,2.2591,2.3076,2.4039,2.3311,2.2591,2.2591,2.1727,2.1109,2.1109,2.1109,2.1109,2.1109,2.1109,2.1189,2.1376,2.1496,2.1643,2.1817,2.2111,2.2205,2.2098,2.2205,2.2405,2.2699,2.2699,2.2752,2.2859,2.2859,2.2859,2.2859,2.2859,2.2859,2.2859,2.2859,2.2859,2.2859,2.2859,2.2859,2.2859,2.2859,2.2859,2.2859,2.2859,2.2859,2.2859,2.2859,2.2859,2.2859,2.2859,2.2859,2.2859,2.2859,2.2859,2.2859,2.2859,2.2859,2.2859,2.2859,2.2859,2.216,1.9495,1.8089,1.6404,1.3729,1.2323,1.1619,1.1619,1.1619,1.1619,1.1619,1.1619,1.1619,1.1619,1.1619,1.1619,1.1619,1.1619,1.1619,1.1619,1.1619,1.1619,1.1619,1.1619,1.1619,1.1619,1.1619,1.164,1.1543,1.0064,0.6112,0.0,0.0,0.0,2.1109,2.1109,2.1109,2.1109,0.0,0.0,2.1853,2.1853,2.2215,2.3325,2.2716,2.2341,2.4054,2.3435,2.3062,2.4178,2.3435,2.3062,2.4178,2.4425,2.4778,2.5863,2.5024,2.4178,2.3698,2.2591,2.1727,2.1109,2.1109,2.1109,2.1109,2.1203,2.1336,2.155,2.1724,2.1924,2.2124,2.2418,2.2565,2.2565,2.2565,2.2672,2.2859,2.2859,2.2859,2.2859,2.2859,2.2859,2.2859,2.2859,2.2859,2.2859,2.2859,2.2859,2.2859,2.2859,2.2859,2.2859,2.2859,2.2859,2.2859,2.2859,2.2859,2.2859,2.2859,2.2859,2.2859,2.2859,2.2859,2.2859,2.2859,2.2859,2.2859,2.2859,2.2859,2.2859,2.2859,2.2859,2.216,1.9634,1.8089,1.6404,1.3872,1.2466,1.1619,1.1619,1.1619,1.1619,1.1619,1.1619,1.1619,1.1619,1.1619,1.1619,1.1619,1.1619,1.1619,1.1619,1.1619,1.1619,1.1619,1.1619,1.1619,1.1619,1.1619,1.164,1.1543,1.0366,0.7729,0.3648,0.1167,0.0,2.1109,2.1109,2.1109,2.1109,2.2341,2.3574,2.3698,2.3574,2.3574,2.3574,2.3698,2.4178,2.5741,2.5984,2.5984,2.5984,2.5984,2.5984,2.5984,2.5984,2.5984,2.6106,2.5984,2.5375,2.3822,2.3574,2.2952,2.1235,2.1109,2.1109,2.1109,2.139,2.155,2.1563,2.2124,2.2418,2.2418,2.2712,2.2859,2.2859,2.2859,2.2859,2.2859,2.2859,2.2859,2.2859,2.2859,2.2859,2.2859,2.2859,2.2859,2.2859,2.2859,2.2859,2.2859,2.2859,2.2859,2.2859,2.2859,2.2859,2.2859,2.2859,2.2859,2.2859,2.2859,2.2859,2.2859,2.2859,2.2859,2.2859,2.2859,2.2859,2.2859,2.2859,2.2859,2.2859,2.2859,2.2859,2.1734,1.7949,1.7248,1.599,1.233,1.1619,1.1619,1.1619,1.1619,1.1619,1.1619,1.1619,1.1619,1.1619,1.1619,1.1619,1.1619,1.1619,1.1619,1.1619,1.1619,1.1619,1.1619,1.1619,1.1619,1.1619,1.1619,1.1633,1.1653,0.7702,0.7865,1.1299,0.3648,0.0,2.1109,2.1109,2.1362,2.2591,2.3201,2.4178,2.6486,2.6106,0.0,2.5253,2.6227,2.7091,2.7572,2.6712,2.6349,2.7434,2.6712,2.6349,2.7572,2.7692,2.817,2.9294,2.8426,2.7452,2.697,2.5984,2.4655,2.2952,2.2841,2.244,2.1545,2.151,2.1737,2.2151,2.2325,2.2512,2.2726,2.2819,2.2859,2.2859,2.2859,2.2859,2.2859,2.2859,2.2859,2.2859,2.2859,2.2859,2.2859,2.2859,2.2859,2.2859,2.2859,2.2859,2.2859,2.2859,2.2859,2.2859,2.2859,2.2859,2.2859,2.2859,2.2859,2.2859,2.2859,2.2859,2.2859,2.2859,2.2859,2.2859,2.2859,2.2859,2.2859,2.2859,2.2859,2.2859,2.2859,2.2859,2.216,1.9773,1.8089,1.6404,1.4014,1.2466,1.1619,1.1619,1.1619,1.1619,1.1619,1.1619,1.1619,1.1619,1.1619,1.1619,1.1619,1.1619,1.1619,1.1619,1.1619,1.1619,1.1619,1.1619,1.1619,1.1619,1.1633,1.166,1.1543,1.0378,0.7593,0.3356,0.1021,0.0,2.1109,2.1601,2.2341,2.3325,2.4548,2.6244,2.8801,2.817,2.7194,2.7811,2.8188,2.8545,2.9275,2.8545,2.8307,2.9275,2.8545,2.8307,2.9275,2.9394,2.9785,3.0762,3.002,2.9157,2.8426,2.7554,2.6227,2.4655,2.4673,2.4094,2.268,2.279,2.2835,2.2405,2.2539,2.2686,2.2859,2.2859,2.2859,2.2859,2.2859,2.2859,2.2859,2.2859,2.2859,2.2859,2.2859,2.2859,2.2859,2.2859,2.2859,2.2859,2.2859,2.2859,2.2859,2.2859,2.2859,2.2859,2.2859,2.2859,2.2859,2.2859,2.2859,2.2859,2.2859,2.2859,2.2859,2.2859,2.2859,2.2859,2.2859,2.2859,2.2859,2.2859,2.2859,2.2859,2.2859,2.2859,2.216,1.9495,1.7949,1.6413,1.3729,1.2323,1.1619,1.1619,1.1619,1.1619,1.1619,1.1619,1.1619,1.1619,1.1619,1.1619,1.1619,1.1619,1.1619,1.1619,1.1619,1.1619,1.1619,1.1619,1.1619,1.1619,1.164,1.0781,0.9329,1.0838,0.7601,0.0,0.0,0.0,2.1601,2.2702,2.3807,2.4054,2.6365,2.9039,3.0528,2.9766,2.9039,3.0645,2.9648,2.9039,3.0645,3.0898,3.0898,3.0898,3.0898,3.0898,3.0898,3.0898,3.0898,3.0898,3.0898,3.0274,2.8783,2.8701,2.7984,2.6399,2.6627,2.6113,2.4396,2.484,2.4392,2.2714,2.2848,2.2859,2.2859,2.2859,2.2859,2.2859,2.2859,2.2859,2.2859,2.2859,2.2859,2.2859,2.2859,2.2859,2.2859,2.2859,2.2859,2.2859,2.2859,2.2859,2.2859,2.2859,2.2859,2.2859,2.2859,2.2859,2.2859,2.2859,2.2859,2.2859,2.2859,2.2859,2.2859,2.2859,2.2859,2.2859,2.2859,2.2859,2.2859,2.2859,2.2859,2.2859,2.2859,2.2859,2.1734,1.7949,1.7248,1.599,1.2187,1.1619,1.1619,1.1619,1.1619,1.1619,1.1619,1.1619,1.1619,1.1619,1.1619,1.1619,1.1619,1.1619,1.1619,1.1619,1.1619,1.1619,1.1619,1.1619,1.1619,1.1619,1.1647,0.9896,0.6395,0.9205,0.6865,0.0,0.0,0.0,2.5008,2.5253,2.5741,2.7091,2.892,3.0509,3.0762,3.0645,3.0509,3.0879,3.0645,3.0509,3.0879,3.0898,3.0898,3.0898,3.0898,3.0898,3.0898,3.0898,3.0898,3.0898,3.0898,3.0762,3.0392,3.068,3.0137,2.8514,2.8747,2.8477,2.6986,2.5735,2.5011,2.4876,2.3624,2.2859,2.2859,2.2859,2.2859,2.2859,2.2859,2.2859,2.2859,2.2859,2.2859,2.2859,2.2859,2.2859,2.2859,2.2859,2.2859,2.2859,2.2859,2.2859,2.2859,2.2859,2.2859,2.2859,2.2859,2.2859,2.2859,2.2859,2.2859,2.2859,2.2859,2.2859,2.2859,2.2859,2.2859,2.2859,2.2859,2.2859,2.2859,2.2859,2.2859,2.2859,2.2859,2.2859,2.1734,1.7949,1.7248,1.599,1.2187,1.1619,1.1619,1.1619,1.1619,1.1619,1.1619,1.1619,1.1619,1.1619,1.1619,1.1619,1.1619,1.1619,1.1619,1.1619,1.1619,1.1619,1.1619,1.1619,1.1626,1.1647,1.1536,1.126,1.039,0.5104,0.1605,0.0,0.0,0.0,2.5984,2.6591,2.7572,2.9157,3.0274,3.0898,3.0898,3.0898,3.0898,3.0898,3.0898,3.0898,3.0898,3.0898,3.0898,3.0898,3.0898,3.0898,3.0898,3.0898,3.0898,3.0898,3.0898,3.0976,3.1172,3.1387,3.1223,3.0672,3.0945,3.0497,2.9032,2.7393,2.6269,2.5502,2.3788,2.2859,2.2859,2.2859,2.2859,2.2859,2.2859,2.2859,2.2859,2.2859,2.2859,2.2859,2.2859,2.2859,2.2859,2.2859,2.2859,2.2859,2.2859,2.2859,2.2859,2.2859,2.2859,2.2859,2.2859,2.2859,2.2859,2.2859,2.2859,2.2859,2.2859,2.2859,2.2859,2.2859,2.2859,2.2859,2.2859,2.2859,2.2859,2.2859,2.2859,2.2859,2.2859,2.2859,2.1734,1.7949,1.7248,1.599,1.2187,1.1619,1.1619,1.1619,1.1619,1.1619,1.1619,1.1619,1.1619,1.1619,1.1619,1.1619,1.1619,1.1619,1.1619,1.1619,1.1619,1.1619,1.1619,1.1619,1.1626,1.1653,0.9763,0.9786,1.1596,0.3794,0.0,0.0,0.0,0.0,2.6832,2.7811,2.9157,3.0528,3.0898,3.0898,3.0898,3.0898,3.0898,3.0898,3.0898,3.0898,3.0898,3.0898,3.0898,3.0898,3.0898,3.0898,3.0898,3.0898,3.0898,3.0898,3.0957,3.1133,3.1484,3.166,3.1894,3.2246,3.2656,3.2248,3.0809,2.9431,2.7768,2.6039,2.4317,2.327,2.2859,2.2859,2.2859,2.2859,2.2859,2.2859,2.2859,2.2859,2.2859,2.2859,2.2859,2.2859,2.2859,2.2859,2.2859,2.2859,2.2859,2.2859,2.2859,2.2859,2.2859,2.2859,2.2859,2.2859,2.2859,2.2859,2.2859,2.2859,2.2859,2.2859,2.2859,2.2859,2.2859,2.2859,2.2859,2.2859,2.2859,2.2859,2.2859,2.2859,2.2859,2.2859,2.1734,1.7949,1.6695,1.5283,1.2187,1.1619,1.1619,1.1619,1.1619,1.1619,1.1619,1.1619,1.1619,1.1619,1.1619,1.1619,1.1619,1.1619,1.1619,1.1619,1.1619,1.1619,1.1619,1.1619,1.1633,1.166,0.7847,0.6986,0.9518,0.3209,0.0,0.0,0.0,0.0,3.0274,3.0392,3.0645,3.0879,3.0898,3.0898,3.0898,3.0898,3.0898,3.0898,3.0898,3.0898,3.0898,3.0898,3.0898,3.0898,3.0898,3.0898,3.0898,3.0898,3.0898,3.0898,3.1211,3.1445,3.1504,3.2187,3.2656,3.2715,3.3105,3.3214,3.2942,3.1414,2.9605,2.79,2.6039,2.4452,2.2859,2.2859,2.2859,2.2859,2.2859,2.2859,2.2859,2.2859,2.2859,2.2859,2.2859,2.2859,2.2859,2.2859,2.2859,2.2859,2.2859,2.2859,2.2859,2.2859,2.2859,2.2859,2.2859,2.2859,2.2859,2.2859,2.2859,2.2859,2.2859,2.2859,2.2859,2.2859,2.2859,2.2859,2.2859,2.2859,2.2859,2.2859,2.2859,2.2859,2.2859,2.2859,2.1734,1.7949,1.4583,1.2187,1.1619,1.1619,1.1619,1.1619,1.1619,1.1619,1.1619,1.1619,1.1619,1.1619,1.1619,1.1619,1.1619,1.1619,1.1619,1.1619,1.1619,1.1619,1.1619,1.1619,1.1647,1.1549,0.7711,0.4361,0.1605,0.0438,0.0,0.0,0.0,0.0,3.0898,3.0898,3.0898,3.0898,3.0898,3.0898,3.0898,3.0898,3.0898,3.0898,3.0898,3.0898,3.0898,3.0898,3.0898,3.0898,3.0898,3.0898,3.0898,3.0898,3.0898,3.0898,3.1269,3.1621,3.1855,3.2441,3.2891,3.3125,3.332,3.3418,3.3418,3.1707,3.0513,2.9735,2.6972,2.5113,2.4317,2.3393,2.2859,2.2859,2.2859,2.2859,2.2859,2.2859,2.2859,2.2859,2.2859,2.2859,2.2859,2.2859,2.2859,2.2859,2.2859,2.2859,2.2859,2.2859,2.2859,2.2859,2.2859,2.2859,2.2859,2.2859,2.2859,2.2859,2.2859,2.2859,2.2859,2.2859,2.2859,2.2859,2.2859,2.2859,2.2859,2.2859,2.2859,2.2859,2.2859,2.2859,2.1734,1.7949,1.4156,1.1619,1.1619,1.1619,1.1619,1.1619,1.1619,1.1619,1.1619,1.1619,1.1619,1.1619,1.1619,1.1619,1.1619,1.1619,1.1619,1.1619,1.1619,1.1619,1.1619,1.1619,1.1647,1.1556,0.7711,0.3925,0.0,0.0,0.0,0.0,0.0,0.0,3.0898,3.0898,3.0898,3.0898,3.0898,3.0898,3.0898,3.0898,3.0898,3.0898,3.0898,3.0898,3.0898,3.0898,3.0898,3.0898,3.0898,3.0898,3.0898,3.0898,3.0937,3.1035,3.1426,3.1855,3.2285,3.2715,3.3086,3.3398,3.3418,3.3418,3.3418,3.2218,3.1047,3.0125,2.7619,2.5786,2.4858,2.3529,2.2859,2.2859,2.2859,2.2859,2.2859,2.2859,2.2859,2.2859,2.2859,2.2859,2.2859,2.2859,2.2859,2.2859,2.2859,2.2859,2.2859,2.2859,2.2859,2.2859,2.2859,2.2859,2.2859,2.2859,2.2859,2.2859,2.2859,2.2859,2.2859,2.2859,2.2859,2.2859,2.2859,2.2859,2.2859,2.2859,2.2859,2.2859,2.2859,2.2585,2.117,1.7809,1.4583,1.218,1.1619,1.1619,1.1619,1.1619,1.1619,1.1619,1.1619,1.1619,1.1619,1.1619,1.1619,1.1619,1.1619,1.1619,1.1619,1.1619,1.1619,1.1619,1.1619,1.1619,1.1647,1.1556,0.7711,0.3925,0.0,0.0,0.0,0.0,0.0,0.0,3.0898,3.0898,3.0898,3.0898,3.0898,3.0898,3.0898,3.0898,3.0898,3.0898,3.0898,3.0898,3.0898,3.0898,3.0898,3.0898,3.0898,3.0898,3.0898,3.0898,3.1035,3.1445,3.1875,3.2305,3.2715,3.3144,3.3398,3.3418,3.3418,3.3418,3.3418,3.3292,3.1707,2.8427,2.8163,2.6439,2.3133,2.2996,2.2859,2.2859,2.2859,2.2859,2.2859,2.2859,2.2859,2.2859,2.2859,2.2859,2.2859,2.2859,2.2859,2.2859,2.2859,2.2859,2.2859,2.2859,2.2859,2.2859,2.2859,2.2859,2.2859,2.2859,2.2859,2.2859,2.2859,2.2859,2.2859,2.2859,2.2859,2.2859,2.2859,2.2859,2.2859,2.2859,2.2859,2.2859,2.2859,2.1459,1.9634,1.7529,1.5557,1.3729,1.19,1.1619,1.1619,1.1619,1.1619,1.1619,1.1619,1.1619,1.1619,1.1619,1.1619,1.1619,1.1619,1.1619,1.1619,1.1619,1.1619,1.1619,1.1619,1.1619,1.1647,1.1556,0.7711,0.3925,0.0,0.0,0.0,0.0,0.0,0.0,3.0898,3.0898,3.0898,3.0898,3.0898,3.0898,3.0898,3.0898,3.0898,3.0898,3.0898,3.0898,3.0898,3.0898,3.0898,3.0898,3.0898,3.0898,3.0898,3.1133,3.1348,3.1504,3.2148,3.2637,3.2773,3.3184,3.3418,3.3418,3.3418,3.3418,3.3418,3.3418,3.2365,2.9995,2.8821,2.6439,2.2996,2.2859,2.2859,2.2859,2.2859,2.2859,2.2859,2.2859,2.2859,2.2859,2.2859,2.2859,2.2859,2.2859,2.2859,2.2859,2.2859,2.2859,2.2859,2.2859,2.2859,2.2859,2.2859,2.2859,2.2859,2.2859,2.2859,2.2859,2.2859,2.2859,2.2859,2.2859,2.2859,2.2859,2.2859,2.2859,2.2859,2.2859,2.2859,2.2859,2.2859,2.0467,1.8089,1.7388,1.4725,1.2323,1.1763,1.1619,1.1619,1.1619,1.1619,1.1619,1.1619,1.1619,1.1619,1.1619,1.1619,1.1619,1.1619,1.1619,1.1619,1.1619,1.1619,1.1619,1.1619,1.1619,1.1647,1.1556,0.7711,0.3925,0.0,0.0,0.0,0.0,0.0,0.0,3.0898,3.0898,3.0898,3.0898,3.0898,3.0898,3.0898,3.0898,3.0898,3.0898,3.0898,3.0898,3.0898,3.0898,3.0898,3.0898,3.0898,3.0898,3.0898,3.125,3.1562,3.1719,3.2363,3.2851,3.2988,3.3262,3.3418,3.3418,3.3418,3.3418,3.3418,3.3418,3.2365,2.9995,2.7635,2.5263,2.2859,2.2859,2.2859,2.2859,2.2859,2.2859,2.2859,2.2859,2.2859,2.2859,2.2859,2.2859,2.2859,2.2859,2.2859,2.2859,2.2859,2.2859,2.2859,2.2859,2.2859,2.2859,2.2859,2.2859,2.2859,2.2859,2.2859,2.2859,2.2859,2.2859,2.2859,2.2859,2.2859,2.2859,2.2859,2.2859,2.2859,2.2859,2.2859,2.2859,2.2859,2.0479,1.7949,1.7398,1.4725,1.2323,1.1763,1.1619,1.1619,1.1619,1.1619,1.1619,1.1619,1.1619,1.1619,1.1619,1.1619,1.1619,1.1619,1.1619,1.1619,1.1619,1.1619,1.1619,1.1619,1.1619,1.1647,1.1556,0.7711,0.3925,0.0,0.0,0.0,0.0,0.0,0.0,0.0,0.0,0.0,3.0898,3.0898,3.0898,3.0898,3.0898,3.0898,3.0898,3.0898,3.0898,3.0898,3.0898,3.0898,3.0898,3.0898,3.0898,3.0898,3.1269,3.1699,3.2109,3.2559,3.2969,3.3379,3.3418,3.3418,3.3418,3.3418,3.3418,3.3418,3.3292,3.1707,2.8163,2.4723,2.2859,2.2859,2.2859,2.2859,2.2859,2.2859,2.2859,2.2859,2.2859,2.2859,2.2859,2.2859,2.2859,2.2859,2.2859,2.2859,2.2859,2.2859,2.2859,2.2859,2.2859,2.2859,2.2859,2.2859,2.2859,2.2859,2.2859,2.2859,2.2859,2.2859,2.2859,2.2859,2.2859,2.2859,2.2859,2.2859,2.2859,2.2859,2.2859,2.2859,2.2859,2.2859,2.1321,1.9495,1.7529,1.5698,1.3729,1.19,1.1619,1.1619,1.1619,1.1619,1.1619,1.1619,1.1619,1.1619,1.1619,1.1619,1.1619,1.1619,1.1619,1.1619,1.1619,1.1619,1.1619,1.1619,1.1619,1.1647,1.1556,0.7711,0.3925,0.0,0.0,0.0,0.0,0.0,0.0,3.0898,0.0,0.0,0.0,0.0,0.0,3.0898,3.0898,3.0898,3.0898,3.0898,3.0898,3.0898,3.0898,3.0898,3.0898,3.0898,3.0898,3.0898,3.1523,3.2031,3.2148,3.2812,3.3301,3.3418,3.3418,3.3418,3.3418,3.3418,3.3418,3.3418,3.1047,2.8558,2.6306,2.406,2.2859,2.2859,2.2859,2.2859,2.2859,2.2859,2.2859,2.2859,2.2859,2.2859,2.2859,2.2859,2.2859,2.2859,2.2859,2.2859,2.2859,2.2859,2.2859,2.2859,2.2859,2.2859,2.2859,2.2859,2.2859,2.2859,2.2859,2.2859,2.2859,2.2859,2.2859,2.2859,2.2859,2.2859,2.2859,2.2859,2.2859,2.2859,2.2859,2.2859,2.2859,2.2859,2.034,1.7809,1.7248,1.4583,1.218,1.1763,1.1619,1.1619,1.1619,1.1619,1.1619,1.1619,1.1619,1.1619,1.1619,1.1619,1.1619,1.1619,1.1619,1.1619,1.1619,1.1619,1.1619,1.1619,1.1619,1.1633,1.1667,0.7851,0.3921,0.0,0.0,0.0,0.0,0.0,0.0,0.0,0.0,0.0,0.0,0.0,0.0,3.0898,3.0898,3.0898,3.0898,3.0898,3.0898,3.0898,3.0898,3.0898,3.0898,3.0898,3.0957,3.1133,3.1738,3.2226,3.2402,3.3008,3.3418,3.3418,3.3418,3.3418,3.3418,3.3418,3.3019,3.2365,2.9735,2.737,2.5517,2.3788,2.2859,2.2859,2.2859,2.2859,2.2859,2.2859,2.2859,2.2859,2.2859,2.2859,2.2859,2.2859,2.2859,2.2859,2.2859,2.2859,2.2859,2.2859,2.2859,2.2859,2.2859,2.2859,2.2859,2.2859,2.2859,2.2859,2.2859,2.2859,2.2859,2.2859,2.2859,2.2859,2.2859,2.2859,2.2859,2.2859,2.2859,2.2859,2.2859,2.2859,2.2859,2.2859,2.0479,1.8229,1.7398,1.4156,1.1619,1.1619,1.1619,1.1619,1.1619,1.1619,1.1619,1.1619,1.1619,1.1619,1.1619,1.1619,1.1619,1.1619,1.1619,1.1619,1.1619,1.1619,1.1619,1.1619,1.1619,1.1633,1.1529,0.9323,0.5525,0.0,0.0,0.0,0.0,0.0,0.0,0.0,0.0,0.0,0.0,3.0898,0.0,3.0898,3.0898,3.0898,3.0898,3.0898,3.0898,3.0898,3.0898,3.0898,3.0898,3.0937,3.1094,3.1465,3.1894,3.2324,3.2734,3.3164,3.3418,3.3418,3.3418,3.3418,3.3418,3.3165,3.2365,3.0642,2.8821,2.7105,2.5248,2.3665,2.2859,2.2859,2.2859,2.2859,2.2859,2.2859,2.2859,2.2859,2.2859,2.2859,2.2859,2.2859,2.2859,2.2859,2.2859,2.2859,2.2859,2.2859,2.2859,2.2859,2.2859,2.2859,2.2859,2.2859,2.2859,2.2859,2.2859,2.2859,2.2859,2.2859,2.2859,2.2859,2.2859,2.2859,2.2859,2.2859,2.2859,2.2859,2.2859,2.2859,2.2859,2.2859,2.1321,1.9217,1.7529,1.4298,1.19,1.1619,1.1619,1.1619,1.1619,1.1619,1.1619,1.1619,1.1619,1.1619,1.1619,1.1619,1.1619,1.1619,1.1619,1.1619,1.1619,1.1619,1.1619,1.1619,1.1619,1.1647,1.1549,1.1108,0.7289,0.0,0.0,0.0,0.0,0.0,0.0,0.0,0.0,0.0,0.0,0.0,0.0,3.0898,3.0898,3.0898,3.0898,3.0898,3.0898,3.0898,3.0898,3.0898,3.0898,3.1172,3.1426,3.1504,3.1894,3.2324,3.2734,3.3164,3.3418,3.3418,3.3418,3.3418,3.3418,3.2091,3.0513,2.8821,2.6972,2.5248,2.3393,2.3133,2.2859,2.2859,2.2859,2.2859,2.2859,2.2859,2.2859,2.2859,2.2859,2.2859,2.2859,2.2859,2.2859,2.2859,2.2859,2.2859,2.2859,2.2859,2.2859,2.2859,2.2859,2.2859,2.2859,2.2859,2.2859,2.2859,2.2859,2.2859,2.2859,2.2859,2.2859,2.2859,2.2859,2.2859,2.2859,2.2859,2.2859,2.2859,2.2859,2.2859,2.2859,2.2859,2.019,1.7669,1.7248,1.5425,1.3309,1.19,1.1619,1.1619,1.1619,1.1619,1.1619,1.1619,1.1619,1.1619,1.1619,1.1619,1.1619,1.1619,1.1619,1.1619,1.1619,1.1619,1.1619,1.1619,1.1619,1.1626,1.1633,0.8574,0.4654,0.0,0.0,0.0,0.0,0.0,0.0,0.0,0.0,0.0,3.0898,0.0,0.0,0.0,3.0898,3.0898,3.0898,3.0898,3.0898,3.0898,3.0898,3.0898,3.0898,3.125,3.1601,3.1816,3.2207,3.2637,3.3066,3.3301,3.3418,3.3418,3.3418,3.3418,3.3418,3.1835,2.9995,2.8295,2.6439,2.4723,2.2996,2.2859,2.2859,2.2859,2.2859,2.2859,2.2859,2.2859,2.2859,2.2859,2.2859,2.2859,2.2859,2.2859,2.2859,2.2859,2.2859,2.2859,2.2859,2.2859,2.2859,2.2859,2.2859,2.2859,2.2859,2.2859,2.2859,2.2859,2.2859,2.2859,2.2859,2.2859,2.2859,2.2859,2.2859,2.2859,2.2859,2.2859,2.2859,2.2859,2.2859,2.2859,2.2859,2.2859,2.0617,1.8369,1.7388,1.5698,1.3872,1.19,1.1619,1.1619,1.1619,1.1619,1.1619,1.1619,1.1619,1.1619,1.1619,1.1619,1.1619,1.1619,1.1619,1.1619,1.1619,1.1619,1.1619,1.1619,1.1619,1.1633,1.166,0.7711,0.393,0.0,0.0,0.0,0.0,0.0,0.0,0.0,0.0,0.0,0.0,0.0,3.0898,0.0,0.0,0.0,3.0898,3.0898,3.0898,3.0898,3.0898,3.084,3.0664,3.1133,3.1621,3.1875,3.2422,3.2949,3.3379,3.3418,3.3418,3.3418,3.3418,3.3418,3.3418,3.1433,2.9735,2.8295,2.6188,2.4317,2.2996,2.2859,2.2859,2.2859,2.2859,2.2859,2.2859,2.2859,2.2859,2.2859,2.2859,2.2859,2.2859,2.2859,2.2859,2.2859,2.2859,2.2859,2.2859,2.2859,2.2859,2.2859,2.2859,2.2859,2.2859,2.2859,2.2859,2.2859,2.2859,2.2859,2.2859,2.2859,2.2859,2.2859,2.2859,2.2859,2.2859,2.2859,2.2859,2.2859,2.2859,2.2859,2.2859,2.2859,2.117,1.9077,1.7529,1.5425,1.3452,1.19,1.1619,1.1619,1.1619,1.1619,1.1619,1.1619,1.1619,1.1619,1.1619,1.1619,1.1619,1.1619,1.1619,1.1619,1.1619,1.1619,1.1619,1.1619,1.1619,1.1647,1.1549,0.7724,0.393,0.0,0.0,0.0,0.0,0.0,0.0,0.0,0.0,0.0,0.0,3.0898,0.0,0.0,0.0,3.0898,3.0898,0.0,3.0898,3.0898,0.0,0.0,2.9844,3.0723,3.1406,3.1074,3.2051,3.2949,3.3379,3.3418,3.3418,3.3418,3.3418,3.3418,3.3418,3.0401,2.8427,2.8163,2.4993,2.3133,2.2859,2.2859,2.2859,2.2859,2.2859,2.2859,2.2859,2.2859,2.2859,2.2859,2.2859,2.2859,2.2859,2.2859,2.2859,2.2859,2.2859,2.2859,2.2859,2.2859,2.2859,2.2859,2.2859,2.2859,2.2859,2.2859,2.2859,2.2859,2.2859,2.2859,2.2859,2.2859,2.2859,2.2859,2.2859,2.2859,2.2859,2.2859,2.2859,2.2859,2.2859,2.2859,2.2859,2.2859,2.0051,1.7388,1.7248,1.4298,1.19,1.1619,1.1619,1.1619,1.1619,1.1619,1.1619,1.1619,1.1619,1.1619,1.1619,1.1619,1.1619,1.1619,1.1619,1.1619,1.1619,1.1619,1.1619,1.1619,1.1619,1.1633,1.166,0.7847,0.3921,0.0,0.0,0.0,0.0,0.0,0.0,0.0,0.0,0.0,0.0,0.0,0.0,3.0898,0.0,3.0898,0.0,0.0,0.0,0.0,0.0,0.0,0.0,3.0996,3.1543,3.1621,3.2305,3.2949,3.3379,3.3418,3.3418,3.3418,3.2492,3.1835,3.1835,2.8673,2.6573,2.6573,2.4331,2.2859,2.2859,2.2859,2.2859,2.2859,2.2859,2.2859,2.2859,2.2859,2.2859,2.2859,2.2859,2.2859,2.2859,2.2859,2.2859,2.2859,2.2859,2.2859,2.2859,2.2859,2.2859,2.2859,2.2859,2.2859,2.2859,2.2859,2.2859,2.2859,2.2859,2.2859,2.2859,2.2859,2.2859,2.2859,2.2859,2.2859,2.2859,2.2859,2.2859,2.2859,2.2859,2.2859,2.2859,2.2859,1.9912,1.7248,1.7248,1.4156,1.1619,1.1619,1.1619,1.1619,1.1619,1.1619,1.1619,1.1619,1.1619,1.1619,1.1619,1.1619,1.1619,1.1619,1.1619,1.1619,1.1619,1.1619,1.1619,1.1619,1.1619,1.1674,1.1782,1.0152,0.6191,0.0,0.0,0.0,0.0,0.0,0.0,3.1094,0.0,0.0,0.0,0.0,0.0,0.0,0.0,0.0,0.0,0.0,0.0,0.0,0.0,0.0,0.0,0.0,3.1582,3.1797,3.2383,3.2949,3.3379,3.3418,3.3418,3.3418,3.1835,3.0771,3.0771,2.7487,2.5517,2.5517,2.3788,2.2859,2.2859,2.2859,2.2859,2.2859,2.2859,2.2859,2.2859,2.2859,2.2859,2.2859,2.2859,2.2859,2.2859,2.2859,2.2859,2.2859,2.2859,2.2859,2.2859,2.2859,2.2859,2.2859,2.2859,2.2859,2.2859,2.2859,2.2859,2.2859,2.2859,2.2859,2.2859,2.2859,2.2859,2.2859,2.2859,2.2859,2.2859,2.2859,2.2859,2.2859,2.2859,2.2859,2.2859,2.2859,1.9912,1.7248,1.7248,1.4156,1.1619,1.1619,1.1619,1.1619,1.1619,1.1619,1.1619,1.1619,1.1619,1.1619,1.1619,1.1619,1.1619,1.1619,1.1619,1.1619,1.1619,1.1653,1.1681,1.1681,1.1721,1.1803,1.1932,1.1938,0.9122,0.3315,0.106,0.0,0.0,0.0,0.0,0.0,0.0,0.0,3.0996,0.0,0.0,0.0,0.0,3.0898,0.0,0.0,0.0,0.0,0.0,0.0,0.0,0.0,0.0,0.0,3.2012,3.2949,3.3379,3.3418,3.3418,3.3418,3.1835,3.0771,3.0771,2.7487,2.5517,2.5517,2.3788,2.2859,2.2859,2.2859,2.2859,2.2859,2.2859,2.2859,2.2859,2.2859,2.2859,2.2859,2.2859,2.2859,2.2859,2.2859,2.2859,2.2859,2.2859,2.2859,2.2859,2.2859,2.2859,2.2859,2.2859,2.2859,2.2859,2.2859,2.2859,2.2859,2.2859,2.2859,2.2859,2.2859,2.2859,2.2859,2.2859,2.2859,2.2859,2.2859,2.2859,2.2859,2.2859,2.2859,2.2859,2.2859,1.9912,1.7248,1.7248,1.4156,1.1619,1.1619,1.1619,1.1619,1.1619,1.1619,1.1619,1.1619,1.1619,1.1619,1.1619,1.1619,1.1619,1.1619,1.1619,1.1619,1.1619,1.1748,1.1823,1.1823,1.1965,1.2047,1.2054,1.223,1.2094,1.1788,0.3814,0.0,0.0,0.0,0.0,0.0,0.0,3.1914,3.1777,0.0,0.0,0.0,0.0,0.0,0.0,0.0,0.0,0.0,0.0,0.0,0.0,0.0,0.0,0.0,3.0049,2.9854,2.9995,3.0918,3.1176,3.0012,2.8279,2.7354,2.7354,2.5113,2.3788,2.3788,2.3256,2.2859,2.2859,2.2859,2.2859,2.2859,2.2859,2.2859,2.2859,2.2859,2.2859,2.2859,2.2859,2.2859,2.2859,2.2859,2.2859,2.2859,2.2859,2.2859,2.2859,2.2859,2.2859,2.2859,2.2859,2.2859,2.2859,2.2859,2.2859,2.2859,2.2859,2.2859,2.2859,2.2859,2.2859,2.2859,2.2859,2.2859,2.2859,2.2859,2.2859,2.2859,2.2859,2.2859,2.2859,2.2859,1.9912,1.7248,1.7248,1.4156,1.1619,1.1619,1.1619,1.1619,1.1619,1.1619,1.1619,1.1619,1.1619,1.1619,1.1619,1.1619,1.1619,1.1619,1.1619,1.166,1.1755,1.1803,1.1877,1.1979,1.2033,1.2108,1.221,1.2223,1.2284,1.24,0.9645,0.5447,0.0,0.0,0.0,3.2422,3.2383,0.0,3.2207,3.2168,0.0,3.2168,0.0,0.0,0.0,0.0,0.0,0.0,0.0,0.0,0.0,0.0,0.0,0.0,2.9707,2.8689,2.737,2.8821,2.9474,2.8312,2.6573,2.5517,2.5517,2.3924,2.2859,2.2859,2.2859,2.2859,2.2859,2.2859,2.2859,2.2859,2.2859,2.2859,2.2859,2.2859,2.2859,2.2859,2.2859,2.2859,2.2859,2.2859,2.2859,2.2859,2.2859,2.2859,2.2859,2.2859,2.2859,2.2859,2.2859,2.2859,2.2859,2.2859,2.2859,2.2859,2.2859,2.2859,2.2859,2.2859,2.2859,2.2859,2.2859,2.2859,2.2859,2.2859,2.2859,2.2859,2.2859,2.2859,2.2859,2.2859,1.9912,1.7248,1.7248,1.4156,1.1619,1.1619,1.1619,1.1619,1.1619,1.1619,1.1619,1.1619,1.1619,1.1619,1.1619,1.1619,1.1619,1.1619,1.1667,1.1735,1.1823,1.1932,1.204,1.2142,1.2189,1.2244,1.2291,1.2338,1.2393,1.2461,1.2542,0.9246,0.2967,0.2504,0.1411]}]]